[[{"header":{"parameterUnit":"m.s-1","parameterCategory":1,"la1":30.6,"la2":29.2853,"lo1":-89.7004,"lo2":-87.6739,"dy":0.0162,"dx":0.0183,"nx":112,"ny":82,"refTime":"2024-08-28T06:00:00:Z","depth":0,"parameterNumber":2,"parameterNumberName":"U-component_of_WINDS"},"data":[0.0,0.0,0.0,0.0,0.0,0.0,0.0,0.0,0.0,0.0,0.0,0.0,0.0,0.0,0.0,0.0,0.0,0.0,0.0,0.0,0.0,0.0,0.0,0.0,0.0,0.0,0.0,0.0,0.0,0.0,0.0,0.0,0.0,0.0,0.0,0.0,0.0,0.0,0.0,0.0,0.0,0.0,0.0,0.0,0.0,0.0,0.0,0.0,0.0,0.0,0.0,0.0,0.0,0.0,0.0,0.0,0.0,0.0,0.0,0.0,0.0,0.0,0.0,0.0,0.0,0.0,0.0,0.0,0.0,0.0,0.0,0.0,0.0,0.0,0.0,0.0,0.0,0.0,0.0,0.0,0.0,0.0,0.0,0.0,0.0,0.0,0.0,0.0,0.0,0.0,0.254,0.2775,0.2464,0.2266,0.2352,0.2914,0.3289,0.3437,0.0,0.0,0.0,0.0,0.0,0.0,0.0,0.0,0.0,0.0,0.0,0.0,0.0,0.0,0.0,0.0,0.0,0.0,0.0,0.0,0.0,0.0,0.0,0.0,0.0,0.0,0.0,0.0,0.0,0.0,0.0,0.0,0.0,0.0,0.0,0.0,0.0,0.0,0.0,0.0,0.0,0.0,0.0,0.0,0.0,0.0,0.0,0.0,0.0,0.0,0.0,0.0,0.0,0.0,0.0,0.0,0.0,0.0,0.0,0.0,0.0,0.0,0.0,0.0,0.0,0.0,0.0,0.0,0.0,0.0,0.0,0.0,0.0,0.0,0.0,0.0,0.0,0.0,0.0,0.0,0.0,0.0,0.0,0.0,0.0,0.0,0.0,0.0,0.0,0.0,0.0,0.0,0.0,0.0,0.0,0.0,0.0,0.0,0.0,0.0,0.0,0.0,0.0,0.0,0.2999,0.2365,0.2301,0.2348,0.252,0.2567,0.2852,0.3607,0.0,0.0,0.0,0.0,0.0,0.0,0.0,0.0,0.0,0.0,0.0,0.0,0.0,0.0,0.0,0.0,0.0,0.0,0.0,0.0,0.0,0.0,0.0,0.0,0.0,0.0,0.0,0.0,0.0,0.0,0.0,0.0,0.0,0.0,0.0,0.0,0.0,0.0,0.0,0.0,0.0,0.0,0.0,0.0,0.0,0.0,0.0,0.0,0.0,0.0,0.0,0.0,0.0,0.0,0.0,0.0,0.0,0.0,0.0,0.0,0.0,0.0,0.0,0.0,0.0,0.0,0.0,0.0,0.0,0.0,0.0,0.0,0.0,0.0,0.0,0.0,0.0,0.0,0.0,0.0,0.0,0.0,0.0,0.0,0.0,0.0,0.0,0.0,0.0,0.0,0.0,0.0,0.0,0.0,0.0,0.0,0.0,0.0,0.0,0.0,0.0,0.0,0.0,0.2478,0.2597,0.2296,0.2277,0.2287,0.2274,0.2157,0.2488,0.3471,0.347,0.0,0.0,0.0,0.0,0.0,0.0,0.0,0.0,0.0,0.0,0.0,0.0,0.0,0.0,0.0,0.0,0.0,0.0,0.0,0.0,0.0,0.0,0.0,0.0,0.0,0.0,0.0,0.0,0.0,0.0,0.0,0.0,0.0,0.0,0.0,0.0,0.0,0.0,0.0,0.0,0.0,0.0,0.0,0.0,0.0,0.0,0.0,0.0,0.0,0.0,0.0,0.0,0.0,0.0,0.0,0.0,0.0,0.0,0.0,0.0,0.0,0.0,0.0,0.0,0.0,0.0,0.0,0.0,0.0,0.0,0.0,0.0,0.0,0.0,0.0,0.0,0.0,0.0,0.0,0.0,0.0,0.0,0.0,0.0,0.0,0.0,0.0,0.0,0.0,0.0,0.0,0.0,0.0,0.0,0.0,0.0,0.0,0.0,0.0,0.0,0.0,0.0,0.1996,0.21,0.2212,0.2277,0.2228,0.2015,0.1925,0.2293,0.3335,0.2883,0.0,0.0,0.0,0.0,0.0,0.0,0.0,0.0,0.0,0.0,0.0,0.0,0.0,0.0,0.0,0.0,0.0,0.0,0.0,0.0,0.0,0.0,0.0,0.0,0.0,0.0,0.0,0.0,0.0,0.0,0.0,0.0,0.0,0.0,0.0,0.0,0.0,0.0,0.0,0.0,0.0,0.0,0.0,0.0,0.0,0.0,0.0,0.0,0.0,0.0,0.0,0.0,0.0,0.0,0.0,0.0,0.0,0.0,0.0,0.0,0.0,0.0,0.0,0.0,0.0,0.0,0.0,0.0,0.0,0.0,0.0,0.0,0.0,0.0,0.0,0.0,0.0,0.0,0.0,0.0,0.0,0.0,0.0,0.0,0.0,0.0,0.0,0.0,0.0,0.0,0.0,0.0,0.0,0.0,0.0,0.0,0.0,0.0,0.0,0.0,0.0,0.0,0.211,0.2003,0.2016,0.2184,0.2224,0.2017,0.2051,0.2463,0.333,0.2885,0.0,0.0,0.0,0.0,0.0,0.0,0.0,0.0,0.0,0.0,0.0,0.0,0.0,0.0,0.0,0.0,0.0,0.0,0.0,0.0,0.0,0.0,0.0,0.0,0.0,0.0,0.0,0.0,0.0,0.0,0.0,0.0,0.0,0.0,0.0,0.0,0.0,0.0,0.0,0.0,0.0,0.0,0.0,0.0,0.0,0.0,0.0,0.0,0.0,0.0,0.0,0.0,0.0,0.0,0.0,0.0,0.0,0.0,0.0,0.0,0.0,0.0,0.0,0.0,0.0,0.0,0.0,0.0,0.0,0.0,0.0,0.0,0.0,0.0,0.0,0.0,0.0,0.0,0.0,0.0,0.0,0.0,0.0,0.0,0.0,0.0,0.0,0.0,0.0,0.0,0.0,0.0,0.0,0.0,0.0,0.0,0.0,0.0,0.0,0.0,0.0,0.0,0.1814,0.1836,0.1767,0.1854,0.1813,0.1566,0.1553,0.1848,0.2594,0.0,0.0,0.0,0.0,0.0,0.0,0.0,0.0,0.0,0.0,0.0,0.0,0.0,0.0,0.0,0.0,0.0,0.0,0.0,0.0,0.0,0.0,0.0,0.0,0.0,0.0,0.0,0.0,0.0,0.0,0.0,0.0,0.0,0.0,0.0,0.0,0.0,0.0,0.0,0.0,0.0,0.0,0.0,0.0,0.0,0.0,0.0,0.0,0.0,0.0,0.0,0.0,0.0,0.0,0.0,0.0,0.0,0.0,0.0,0.0,0.0,0.0,0.0,0.0,0.0,0.0,0.0,0.0,0.0,0.0,0.0,0.0,0.0,0.0,0.0,0.0,0.0,0.0,0.0,0.0,0.0,0.0,0.0,0.0,0.0,0.0,0.0,0.0,0.0,0.0,0.0,0.0,0.0,0.0,0.0,0.0,0.0,0.0,0.0,0.0,0.0,0.0,0.1305,0.1503,0.161,0.1501,0.1588,0.1587,0.1303,0.1267,0.1506,0.2064,0.0,0.0,0.0,0.0,0.0,0.0,0.0,0.0,0.0,0.0,0.0,0.0,0.0,0.0,0.0,0.0,0.0,0.0,0.0,0.0,0.0,0.0,0.0,0.0,0.0,0.0,0.0,0.0,0.0,0.0,0.0,0.0,0.0,0.0,0.0,0.0,0.0,0.0,0.0,0.0,0.0,0.0,0.0,0.0,0.0,0.0,0.0,0.0,0.0,0.0,0.0,0.0,0.0,0.0,0.0,0.0,0.0,0.0,0.0,0.0,0.0,0.0,0.0,0.0,0.0,0.0,0.0,0.0,0.0,0.0,0.0,0.0,0.0,0.0,0.0,0.0,0.0,0.0,0.0,0.0,0.0,0.0,0.0,0.0,0.0,0.0,0.0,0.0,0.0,0.0,0.0,0.0,0.0,0.0,0.0,0.0,0.0,0.0,0.0,0.0,0.0,0.0,0.1111,0.1209,0.1303,0.1303,0.1465,0.1506,0.1302,0.1378,0.1541,0.0,0.0,0.0,0.0,0.0,0.0,0.0,0.0,0.0,0.0,0.0,0.0,0.0,0.0,0.0,0.0,0.0,0.0,0.0,0.0,0.0,0.0,0.0,0.0,0.0,0.0,0.0,0.0,0.0,0.0,0.0,0.0,0.0,0.0,0.0,0.0,0.0,0.0,0.0,0.0,0.0,0.0,0.0,0.0,0.0,0.0,0.0,0.0,0.0,0.0,0.0,0.0,0.0,0.0,0.0,0.0,0.0,0.0,0.0,0.0,0.0,0.0,0.0,0.0,0.0,0.0,0.0,0.0,0.0,0.0,0.0,0.0,0.0,0.0,0.0,0.0,0.0,0.0,0.0,0.0,0.0,0.0,0.0,0.0,0.0,0.0,0.0,0.0,0.0,0.0,0.0,0.0,0.0,0.0,0.0,0.0,0.0,0.0,0.0,0.0,0.0,0.0,0.0,0.1096,0.0694,0.0609,0.1221,0.1343,0.1375,0.1312,0.1273,0.1268,0.1333,0.0,0.0,0.0,0.0,0.0,0.0,0.0,0.0,0.0,0.0,0.0,0.0,0.0,0.0,0.0,0.0,0.0,0.0,0.0,0.0,0.0,0.0,0.0,0.0,0.0,0.0,0.0,0.0,0.0,0.0,0.0,0.0,0.0,0.0,0.0,0.0,0.0,0.0,0.0,0.0,0.0,0.0,0.0,0.0,0.0,0.0,0.0,0.0,0.0,0.0,0.0,0.0,0.0,0.0,0.0,0.0,0.0,0.0,0.0,0.0,0.0,0.0,0.0,0.0,0.0,0.0,0.0,0.0,0.0,0.0,0.0,0.0,0.0,0.0,0.0,0.0,0.0,0.0,0.0,0.0,0.0,0.0,0.0,0.0,0.0,0.0,0.0,0.0,0.0,0.0,0.0,0.0,0.0,0.0,0.0,0.0,0.0,0.0,0.0,0.0,0.0,0.0,0.0506,-0.0118,-0.0247,0.0659,0.0736,0.089,0.1277,0.1246,0.1171,0.1063,0.0,0.0,0.0,0.0,0.0,0.0,0.0,0.0,0.0,0.0,0.0,0.0,0.0,0.0,0.0,0.0,0.0,0.0,0.0,0.0,0.0,0.0,0.0,0.0,0.0,0.0,0.0,0.0,0.0,0.0,0.0,0.0,0.0,0.0,0.0,0.0,0.0,0.0,0.0,0.0,0.0,0.0,0.0,0.0,0.0,0.0,0.0,0.0,0.0,0.0,0.0,0.0,0.0,0.0,0.0,0.0,0.0,0.0,0.0,0.0,0.0,0.0,0.0,0.0,0.0,0.0,0.0,0.0,0.0,0.0,0.0,0.0,0.0,0.0,0.0,0.0,0.0,0.0,0.0,0.0,0.0,0.0,0.0,0.0,0.0,0.0,0.0,0.0,0.0,0.0,0.0,0.0,0.0,0.0,0.0,0.0,0.0,0.0,0.0,0.0,0.0,0.0,-0.0475,-0.1117,-0.1264,-0.0337,-0.0248,0.0122,0.0977,0.1071,0.103,0.0916,0.0,0.0,0.0,0.0,0.0,0.0,0.0,0.0,0.0,0.0,0.0,0.0,0.0,0.0,0.0,0.0,0.0,0.0,0.0,0.0,0.0,0.0,0.0,0.0,0.0,0.0,0.0,0.0,0.0,0.0,0.0,0.0,0.0,0.0,0.0,0.0,0.0,0.0,0.0,0.0,0.0,0.0,0.0,0.0,0.0,0.0,0.0,0.0,0.0,0.0,0.0,0.0,0.0,0.0,0.0,0.0,0.0,0.0,0.0,0.0,0.1498,0.1657,0.0,0.0,0.0,0.0,0.0,0.0,0.0,0.0,0.0,0.0,0.0,0.0,0.0,0.0,0.0,0.0,0.0,0.0,0.0,0.0,0.0,0.0,0.0,0.0,0.0,0.0,0.0,0.0,0.0,0.0,0.0,0.0,0.0,0.0,0.0,0.0,0.0,0.0,0.0,0.0,-0.1184,-0.1896,-0.211,-0.1291,-0.12,-0.1096,-0.0855,-0.0275,0.0112,0.0138,0.0668,0.0,0.0,0.0,0.0,0.0,0.0,0.0,0.0,0.0,0.0,0.0,0.0,0.0,0.0,0.0,0.0,0.0,0.0,0.0,0.0,0.0,0.0,0.0,0.0,0.0,0.0,0.0,0.0,0.0,0.0,0.0,0.0,0.0,0.0,0.0,0.0,0.0,0.0,0.0,0.0,0.0,0.0,0.0,0.0,0.0,0.0,0.0,0.0,0.0,0.0,0.0,0.0,0.0,0.0,0.0,0.0,0.0,0.0,0.0,0.0485,0.0717,0.0,0.0,0.0,0.0,0.0,0.0,0.0,0.0,0.0,0.0,0.0,0.0,0.0,0.0,0.0,0.0,0.0,0.0,0.0,0.0,0.0,0.0,0.0,0.0,0.0,0.0,0.0,0.0,0.0,0.0,0.0,0.0,0.0,0.0,0.0,0.0,0.0,0.0,0.0,0.0,-0.2061,-0.2859,-0.3127,-0.2246,-0.2181,-0.1976,-0.147,-0.1046,-0.0767,-0.0765,-0.0366,0.0,0.0,0.0,0.0,0.0,0.0,0.0,0.0,0.0,0.0,0.0,0.0,0.0,0.0,0.0,0.0,0.0,0.0,0.0,0.0,0.0,0.0,0.0,0.0,0.0,0.0,0.0,0.0,0.0,0.0,0.0,0.0,0.0,0.0,0.0,0.0,0.0,0.0,0.0,0.0,0.0,0.0,0.0,0.0,0.0,0.0,0.0,0.0,0.0,0.0,0.0,0.0,0.0,0.0042,0.0,0.0,0.0,-0.0304,-0.0748,-0.0245,0.008,0.0246,0.075,0.0,0.0,0.0,0.0,0.0,0.0,0.0,0.0,0.0,0.0,0.0,0.0,0.0,0.0,0.0,0.0,0.0,0.0,0.0,0.0,0.0,0.0,-0.254,-0.2677,-0.3248,-0.3433,-0.2107,0.0,0.0,0.0,0.0,0.0,0.0,0.0,0.0,0.0,0.0,0.0,-0.2967,-0.3713,-0.3985,-0.3226,-0.3131,-0.283,-0.2038,-0.1773,-0.1693,-0.1714,-0.1469,-0.134,0.0,0.0,0.0,0.0,0.0,0.0,0.0,0.0,0.0,0.0,0.0,0.0,0.0,0.0,0.0,0.0,0.0,0.0,0.0,0.0,0.0,0.0,0.0,0.0,0.0,0.0,0.0,0.0,0.0,0.0,0.0,0.0,0.0366,0.0388,0.0,0.0,0.0,0.0,0.0,0.0,0.0,0.0,0.0,0.0,0.0,0.0,0.0,0.029,0.029,-0.0217,-0.0487,-0.0487,-0.1014,-0.1267,-0.1267,-0.1267,-0.1316,-0.1366,-0.1305,0.0,-0.0473,-0.0385,0.0,0.0,0.0,0.0,0.0,0.0,0.0,0.0,0.0,0.0,0.0,0.0,0.0,0.0,0.0,0.0,0.0,0.0,0.0,0.0,0.0,0.0,-0.4907,-0.5018,-0.5463,-0.5726,-0.5471,-0.4333,-0.3332,-0.3288,-0.321,-0.3116,0.0,0.0,0.0,0.0,0.0,0.0,-0.3802,-0.4088,-0.4253,-0.4119,-0.4109,-0.403,-0.3872,-0.3143,-0.2672,-0.2549,-0.1851,-0.1449,-0.1378,-0.1241,0.0,0.0,0.0,0.0,0.0,0.0,0.0,0.0,0.0,0.0,0.0,0.0,0.0,0.0,0.0,0.0,0.0,0.0,0.0,0.0,0.0,0.0,0.0,0.0,0.0,0.0,0.0,0.0,0.0,0.0289,0.0244,-0.0073,0.0181,0.0357,0.0,0.0,0.0,0.0,0.0,0.0,0.0,0.0,0.0,-0.0644,-0.0703,-0.0714,-0.0723,-0.1024,-0.1181,-0.1181,-0.141,-0.1577,-0.1577,-0.1577,-0.1577,-0.1577,-0.1577,-0.1408,-0.1135,-0.0731,-0.0398,-0.0214,0.0,0.0,0.0,0.0,-0.1135,-0.1798,-0.1216,-0.1949,-0.3136,-0.3005,0.0,0.0,0.0,0.0,0.0,0.0,0.0,-0.4043,-0.4683,-0.5242,-0.5652,-0.5962,-0.6317,-0.6643,-0.6661,-0.6068,-0.5447,-0.5178,-0.4692,-0.4249,-0.3941,-0.3989,0.0,0.0,0.0,-0.3859,-0.3978,-0.4189,-0.43,-0.43,-0.43,-0.4283,-0.4246,-0.3892,-0.3605,-0.3544,-0.3056,-0.2787,-0.2764,-0.2251,-0.1929,0.0,0.0,0.0,0.0,0.0,0.0,0.0,0.0,0.0,0.0,0.0,0.0,0.0,0.0,0.0,0.0,0.0,0.0,0.0,0.0,0.0,0.0,0.0,0.0,0.0,0.0,0.0,0.0,-0.0173,-0.0184,-0.0567,-0.031,-0.0039,0.0,0.0,0.0,0.0,0.0,0.0,-0.2187,-0.2234,-0.2307,-0.2309,-0.2404,-0.2453,-0.2452,-0.2538,-0.2556,-0.2556,-0.2542,-0.2559,-0.2559,-0.2559,-0.2559,-0.2559,-0.2559,-0.2559,-0.2496,-0.1587,-0.121,-0.1282,-0.1434,-0.1365,-0.1263,-0.198,-0.2569,-0.2955,-0.2485,-0.3344,-0.4629,-0.4064,-0.4398,-0.4976,-0.4638,0.0,0.0,0.0,0.0,-0.5308,-0.5809,-0.6331,-0.6789,-0.7163,-0.7433,-0.7682,-0.7744,-0.7507,-0.7171,-0.6579,-0.5949,-0.543,-0.506,-0.514,0.0,-0.4342,-0.4492,-0.4716,-0.4769,-0.4707,-0.4647,-0.4647,-0.4446,-0.43,-0.43,-0.424,-0.4239,-0.4216,-0.4022,-0.3899,-0.3834,-0.3183,-0.2777,-0.2633,0.0,0.0,0.0,0.0,0.0,0.0,0.0,0.0,0.0,0.0,0.0,0.0,0.0,0.0,0.0,0.0,0.0,0.0,0.0,0.0,0.0,0.0,0.0,0.0,0.0,0.0,0.0,0.0,0.0,-0.1251,-0.1278,0.0,0.0,0.0,0.0,-0.2874,-0.3822,-0.4444,-0.4532,-0.4614,-0.4704,-0.4796,-0.4888,-0.4979,-0.5124,-0.513,-0.5132,-0.5132,-0.5136,-0.5138,-0.5138,-0.5138,-0.5138,-0.5138,-0.5138,-0.5138,-0.5013,-0.3648,-0.3073,-0.3162,-0.41,-0.3877,-0.3119,-0.4167,-0.3931,-0.3219,-0.4226,-0.4608,-0.4853,-0.5898,-0.6206,-0.6033,-0.5013,-0.466,0.0,0.0,-0.6372,-0.7037,-0.8134,-0.8797,-0.928,-0.942,-0.9456,-0.9452,-0.9464,-0.8833,-0.7986,-0.7148,-0.6823,-0.6683,-0.6612,0.0,-0.6497,-0.6524,-0.6571,-0.6642,-0.6805,-0.6091,-0.5522,-0.5522,-0.48,-0.43,-0.43,-0.4295,-0.4259,-0.4222,-0.4204,-0.4114,-0.3984,-0.3842,-0.3661,-0.3533,-0.3238,0.0,0.0,0.0,0.0,0.0,0.0,0.0,0.0,0.0,0.0,0.0,0.0,0.0,0.0,0.0,0.0,0.0,0.0,0.0,0.0,0.0,0.0,0.0,0.0,0.0,0.0,0.0,0.0,-0.2401,-0.3053,0.0,-0.3421,-0.3826,-0.4107,-0.4223,-0.46,-0.4918,-0.5017,-0.509,-0.5122,-0.5209,-0.5189,-0.5277,-0.5312,-0.5312,-0.5312,-0.5312,-0.5312,-0.5312,-0.5312,-0.5312,-0.5312,-0.5312,-0.5312,-0.5312,-0.5303,-0.5512,-0.5122,-0.4453,-0.4668,-0.4534,-0.4237,-0.4632,-0.4978,-0.5174,-0.4878,-0.5664,-0.6905,-0.7297,-0.7394,-0.7321,-0.6933,-0.6798,-0.6848,-0.7234,-0.7601,-0.8011,-0.8563,-0.8992,-0.9302,-0.9562,-0.9579,-0.9579,-0.9579,-0.9379,-0.9071,-0.8713,-0.8098,-0.7558,-0.7409,-0.7479,-0.7299,-0.6767,-0.6808,-0.691,-0.7007,-0.6695,-0.6293,-0.5782,-0.5356,-0.4929,-0.4385,-0.4332,-0.4263,-0.4222,-0.4118,-0.4042,-0.3952,-0.383,-0.372,-0.359,-0.3479,-0.3297,0.0,0.0,0.0,0.0,0.0,0.0,0.0,0.0,0.0,0.0,0.0,0.0,0.0,0.0,0.0,0.0,0.0,0.0,0.0,0.0,0.0,0.0,0.0,0.0,0.0,-0.3047,-0.3588,-0.3588,-0.4296,-0.4761,-0.4758,-0.5148,-0.5463,-0.5564,-0.5957,-0.6226,-0.6303,-0.638,-0.6386,-0.6424,-0.6424,-0.6445,-0.6537,-0.6537,-0.6537,-0.6537,-0.6537,-0.6537,-0.6537,-0.6537,-0.6537,-0.6537,-0.6537,-0.6537,-0.6588,-0.7242,-0.7015,-0.6302,-0.6133,-0.5833,-0.5528,-0.5935,-0.6243,-0.6503,-0.6192,-0.6931,-0.8116,-0.8116,-0.8032,-0.7988,-0.7988,-0.8088,-0.8137,-0.8137,-0.8386,-0.8733,-0.8878,-0.913,-0.9385,-0.9579,-0.9579,-0.9579,-0.9579,-0.9579,-0.9579,-0.9579,-0.9042,-0.8524,-0.8402,-0.85,-0.8332,-0.7752,-0.7799,-0.788,-0.788,-0.7644,-0.7231,-0.6709,-0.631,-0.585,-0.5218,-0.489,-0.4761,-0.4918,-0.4567,-0.4435,-0.4649,-0.4312,-0.409,-0.4024,-0.3938,-0.3936,-0.3998,0.0,0.0,0.0,0.0,0.0,0.0,0.0,0.0,0.0,0.0,0.0,0.0,0.0,0.0,0.0,0.0,0.0,0.0,0.0,0.0,0.0,0.0,0.0,-0.4404,-0.4621,-0.4763,-0.4763,-0.4964,-0.5099,-0.5103,-0.6173,-0.6872,-0.6945,-0.7904,-0.8489,-0.8496,-0.8496,-0.8564,-0.8713,-0.8716,-0.8791,-0.8881,-0.8885,-0.8885,-0.8885,-0.8885,-0.8885,-0.8885,-0.8885,-0.8885,-0.8885,-0.8885,-0.8885,-0.8871,-0.8777,-0.8716,-0.8703,-0.8543,-0.7846,-0.7054,-0.8111,-0.7846,-0.7109,-0.8164,-0.8391,-0.833,-0.833,-0.8177,-0.8005,-0.8005,-0.8201,-0.8396,-0.8443,-0.879,-0.9191,-0.9187,-0.9381,-0.9579,-0.9579,-0.9579,-0.9579,-0.9579,-0.9579,-0.9579,-0.9579,-0.9579,-0.9579,-0.9579,-0.9579,-0.9579,-0.9579,-0.9579,0.0,-0.9579,-0.8886,-0.8349,-0.8301,-0.7536,-0.6973,-0.67,-0.5975,-0.5764,-0.6381,-0.5533,-0.537,-0.6169,-0.5303,-0.4819,-0.4862,-0.4766,-0.5041,-0.5594,0.0,0.0,0.0,0.0,0.0,0.0,0.0,0.0,0.0,0.0,0.0,0.0,0.0,0.0,0.0,0.0,0.0,0.0,0.0,0.0,0.0,-0.5537,-0.5591,-0.4676,-0.5437,-0.6084,-0.6084,-0.6929,-0.7559,-0.7522,-0.7849,-0.8059,-0.8204,-0.8485,-0.8696,-0.8808,-0.8815,-0.8832,-0.8821,-0.8821,-0.8841,-0.8885,-0.8885,-0.8885,-0.8885,-0.8885,-0.8885,-0.8885,-0.8885,-0.8885,-0.8885,-0.8885,-0.8885,-0.8878,-0.8838,-0.8821,-0.8849,-0.8584,-0.8321,-0.8111,-0.8374,-0.8321,-0.8111,-0.8374,-0.8459,-0.8425,-0.8425,-0.8394,-0.8412,-0.8615,-0.8718,-0.8797,-0.8889,-0.9159,-0.9388,-0.9218,-0.9381,-0.9579,-0.9579,-0.9579,-0.9579,-0.9579,-0.9579,-0.9579,-0.9579,-0.9579,-0.9579,-0.9579,-0.9579,-0.9579,-0.9579,-0.9579,-0.9579,-0.9579,-0.9387,-0.9007,-0.8417,-0.8129,-0.7638,-0.6833,-0.6517,-0.6358,-0.6337,-0.5954,-0.588,-0.6203,-0.5793,-0.567,-0.5803,-0.5685,-0.5691,0.0,0.0,0.0,0.0,0.0,0.0,0.0,0.0,0.0,0.0,0.0,0.0,0.0,0.0,0.0,0.0,0.0,0.0,0.0,0.0,0.0,0.0,-0.6683,-0.6939,-0.6314,-0.6901,-0.7397,-0.7397,-0.8115,-0.8577,-0.8577,-0.8635,-0.8737,-0.8882,-0.8896,-0.8964,-0.9117,-0.9123,-0.9123,-0.9123,-0.9123,-0.9123,-0.9123,-0.9123,-0.9123,-0.9123,-0.9624,-0.9901,-0.9901,-1.0455,-1.0679,-1.0679,-1.0679,-1.0679,-1.0671,-1.06,-1.0516,-1.0433,0.0,0.0,0.0,0.0,-0.9094,-0.8726,-0.9254,-0.9158,-0.8789,-0.8789,-0.9162,-0.9522,-0.9216,-0.9522,-0.9916,-0.9519,-0.9591,-0.9875,-1.0222,-1.0449,-1.0678,-1.1038,-1.1118,-1.109,-1.0909,-1.0547,-1.0256,-1.0256,-0.9916,0.0,-0.9579,-0.9579,-0.9579,-0.9579,-0.9579,-0.9579,-0.9579,-0.9579,-0.9426,-0.8931,-0.889,-0.8568,-0.7923,-0.7485,0.0,0.0,0.0,-0.6488,-0.6564,-0.6447,0.0,0.0,0.0,0.0,0.0,-0.7199,0.0,0.0,-0.6364,-0.6235,0.0,0.0,0.0,0.0,0.0,0.0,0.0,0.0,0.0,0.0,0.0,0.0,0.0,0.0,0.0,0.0,-0.7475,-0.8211,-0.8492,-0.8533,-0.8526,-0.8509,-0.8645,-0.8743,-0.8757,-0.8882,-0.9022,-0.9224,-0.9234,-0.9296,-0.9374,-0.9381,0.0,0.0,0.0,-0.9668,-0.9838,-0.9838,-0.9838,-0.9838,-1.0982,-1.1491,-1.1548,-1.2685,-1.3198,-1.3198,-1.3198,-1.3198,-1.3183,-1.2941,-1.2869,-1.2622,-1.026,-0.9316,-0.9482,-1.0562,-1.0296,-0.9533,-1.0617,0.0,0.0,-0.9643,-1.0441,-1.1141,-1.0164,-1.0784,-1.1553,-1.0558,-1.045,-1.0858,-1.1859,-1.2108,-1.2316,-1.3073,-1.3225,-1.316,-1.2824,-1.2034,-1.1394,-1.137,-1.0596,-0.9969,-0.9969,-0.9772,-0.9579,-0.9579,-0.9579,-0.9579,-0.9579,-0.9579,-0.9579,-0.9579,-0.9579,0.0,-0.9416,-0.8598,-0.828,-0.8807,-0.7884,-0.7335,-0.7275,-0.7332,-0.7409,-0.7587,-0.7694,-0.8106,-0.8852,-0.9015,-0.9108,-0.9108,-0.7339,-0.7017,0.0,0.0,0.0,0.0,0.0,0.0,0.0,0.0,0.0,0.0,0.0,0.0,0.0,0.0,0.0,-0.7766,-0.8284,-0.8642,-0.8825,-0.8797,-0.8804,-0.8679,-0.8801,-0.894,-0.9111,-0.9149,-0.9231,-0.9323,-0.9337,-0.9351,-0.9381,-0.9381,-0.9896,-1.0924,-1.0924,-1.1434,-1.2461,-1.2456,-1.2456,-1.2456,-1.2685,0.0,-1.2856,-1.3084,-1.3198,-1.3198,-1.3198,-1.3198,-1.3193,-1.3155,-1.3136,-1.3041,-1.233,-1.2073,-1.2127,-1.2615,-1.2674,-1.2457,-1.2729,-1.2645,-1.2504,-1.2504,-1.269,-1.2875,-1.2875,-1.3036,0.0,-1.3152,-1.3153,-1.3216,-1.328,-1.3284,-1.3319,-1.348,-1.352,-1.3454,-1.3165,-1.2968,-1.2711,-1.2473,-1.2242,-1.2101,-1.2101,-1.0694,-0.9579,-0.9579,-0.9579,-0.9579,-0.9579,-0.9579,-0.9579,-0.9579,-0.9579,-0.9555,-0.9416,-0.9243,-0.9099,-0.9051,-0.8854,-0.8639,-0.8492,-0.8627,-0.8722,-0.8754,-0.879,-0.8872,-0.9043,-0.908,-0.9169,-0.9343,-0.8798,-0.8665,0.0,0.0,0.0,0.0,0.0,0.0,0.0,0.0,0.0,0.0,0.0,-0.588,-0.6876,0.0,-0.7653,-0.8376,-0.8615,-0.8764,-0.8861,-0.9427,-0.9559,-0.8886,-0.8954,-0.9076,-0.9204,-0.9841,-1.0295,-1.0463,-1.1054,-1.1441,-1.1535,-1.1539,-1.1829,-1.2475,-1.247,-1.2822,-1.346,-1.346,-1.346,-1.3465,-1.4101,-1.4392,-1.4397,-1.5035,-1.5324,-1.5324,-1.5324,-1.5324,-1.5371,-1.5366,-1.5416,-1.5395,-1.542,-1.4357,-1.2874,-1.3689,-1.3588,-1.3156,-1.3863,-1.3868,-1.348,-1.348,-1.4019,-1.4508,-1.4024,-1.4293,-1.47,-1.4157,-1.4018,-1.4097,-1.4606,-1.4729,-1.4856,-1.53,-1.5423,-1.5299,-1.5032,-1.4421,-1.3897,-1.3722,-1.3154,-1.2678,-1.2678,-1.1858,-1.113,-1.113,-1.113,-1.113,-1.113,-1.0694,-1.04,-1.04,-0.9916,-0.9592,-0.9498,-0.9457,-0.9331,-0.9108,-0.9096,-0.9056,-0.8962,-0.9047,-0.9096,-0.9096,-0.9181,-0.9273,-0.9273,-0.9319,-0.9449,-0.9665,-0.9531,-0.949,0.0,0.0,0.0,0.0,0.0,0.0,0.0,-0.4881,-0.5275,-0.6366,-0.6741,-0.7164,-0.7969,-0.8272,-0.8452,-0.8747,-0.8798,-0.8838,-0.896,-0.9964,-1.0398,-0.9418,-0.9693,-0.9836,-0.9642,-1.0869,-1.1798,-1.193,-1.2881,-1.3539,-1.3715,-1.3725,-1.3784,-1.4083,-1.4083,-1.4202,-1.4441,-1.4441,-1.4441,-1.4441,-1.5451,-1.5989,-1.5989,-1.7126,-1.7602,-1.7602,-1.7661,-1.7655,-1.7701,-1.7712,-1.778,-1.7803,-1.7976,-1.6331,-1.3932,-1.4969,-1.4678,-1.3975,-1.5183,-1.5095,-1.4454,-1.4454,-1.5263,-1.6074,-1.5049,-1.5482,-1.6021,-1.5049,-1.4781,-1.4995,-1.5968,-1.6234,-1.6396,-1.7126,-1.7286,-1.7206,-1.6854,-1.5952,-1.5177,-1.5122,-1.4148,-1.338,-1.338,-1.334,-1.3162,-1.2775,-1.2678,-1.2678,-1.2678,-1.1999,-1.1512,-1.1512,-1.0739,-1.0212,-1.0212,-1.0114,-0.9866,-0.9536,-0.9524,-0.9434,-0.9202,-0.9202,-0.9202,-0.9202,-0.942,-0.9506,-0.9506,-0.964,-0.9803,-0.9937,-0.9937,-0.9937,-0.1227,-0.1979,-0.292,-0.3916,-0.4248,-0.4692,0.0,-0.6359,-0.665,-0.796,-0.8253,-0.8327,-0.8604,-0.8648,-0.8757,-0.9111,-0.9159,-0.9166,-0.9183,-1.0134,-1.0859,-1.0867,-1.1767,-1.2066,-1.1159,-1.232,-1.322,-1.3434,-1.3572,-1.3701,-1.3725,-1.3725,-1.4202,-1.5337,-1.5397,-1.593,-1.7062,-1.7062,-1.7062,-1.7062,-1.7244,-1.7303,-1.7303,-1.7732,-1.7966,-1.7966,-1.8194,-1.8298,-1.8298,-1.8325,-1.8293,-1.83,-1.8116,-1.7767,-1.7471,-1.7873,-1.7773,-1.7436,-1.7611,-1.7428,-1.7147,-1.7147,-1.7259,-1.7364,-1.7259,-1.7312,-1.7364,-1.7259,-1.7206,-1.7259,-1.7364,-1.7424,-1.7411,-1.7542,-1.7535,-1.7455,-1.7213,-1.7023,-1.6821,-1.6557,-1.6173,-1.5878,-1.5878,-1.5656,-1.4813,-1.2969,-1.2678,-1.2678,-1.2678,-1.2587,-1.2533,-1.2533,-1.2436,-1.2344,-1.2344,-1.2318,-1.1953,-1.1011,-1.0963,-1.0529,-0.9567,-0.9567,-0.9567,-0.9567,-0.9738,-0.9827,-0.9827,-1.0065,-1.0163,-1.0184,-1.0184,-1.0184,-0.3641,-0.4276,-0.492,-0.593,-0.6338,-0.6646,-0.7472,-0.7674,-0.7849,-0.849,-0.8686,-0.8794,-0.894,-0.8967,-0.9314,-1.0266,-1.0417,-1.0699,-1.1431,-1.2408,-1.2785,-1.2172,-1.3846,-1.4461,-1.2952,-1.4273,-1.5215,-1.5316,-1.5871,-1.6172,-1.6172,-1.5994,-1.6166,-1.6703,-1.6708,-1.6944,-1.7479,-1.7485,-1.7602,-1.7784,-1.7784,-1.7843,-1.8006,-1.8194,-1.8252,-1.8252,-1.8363,-1.8538,-1.8706,-1.8706,-1.8829,-1.8997,-1.8879,-1.8833,-1.8774,-1.8371,-1.8183,-1.8077,-1.8249,-1.8103,-1.7856,-1.7856,-1.7729,-1.7582,-1.7582,-1.7582,-1.7582,-1.7582,-1.7582,-1.7582,-1.7582,-1.7582,-1.7582,-1.7582,-1.7582,-1.7549,-1.7481,-1.732,-1.7166,-1.7038,-1.6727,-1.6526,-1.6526,-1.642,-1.598,-1.4929,-1.4624,-1.4519,-1.4519,-1.3992,-1.3366,-1.2775,-1.2678,-1.2678,-1.2678,-1.2678,-1.2533,-1.2096,-1.2268,-1.2147,-1.1707,-1.1823,-1.1942,-1.1942,-1.2025,-1.1717,-1.1062,-1.1147,-1.0889,-1.0322,-1.0322,-1.0375,-0.5392,-0.5916,-0.6392,-0.7382,-0.7882,-0.8153,-0.8347,-0.8472,-0.8587,-0.8743,-0.8807,-0.8971,-0.9076,-0.9462,-1.0046,-1.1122,-1.1648,-1.2201,-1.3112,-1.4076,-1.4327,-1.3537,-1.5378,-1.6251,-1.505,-1.6127,-1.6873,-1.675,-1.7596,-1.8083,-1.7972,-1.7784,-1.7661,-1.7778,-1.7661,-1.7661,-1.7778,-1.7778,-1.7895,-1.8083,-1.8083,-1.8194,-1.8421,-1.8473,-1.859,-1.8661,-1.8661,-1.8829,-1.9055,-1.9055,-1.9178,-1.9424,-1.9424,-1.9424,-1.9312,-1.8715,-1.8391,-1.8325,-1.8555,-1.8417,-1.8102,-1.8015,-1.7896,-1.7695,-1.7609,-1.7582,-1.7582,-1.7582,-1.7582,-1.7582,-1.7582,-1.7582,-1.7582,-1.7582,-1.7582,-1.7582,-1.7582,-1.7467,-1.732,-1.732,-1.7027,-1.6827,-1.6827,-1.676,-1.6633,-1.6426,-1.6213,-1.6012,-1.5804,-1.5159,-1.4436,-1.365,-1.3553,-1.3553,-1.3553,-1.3616,-1.3559,-1.3268,-1.3551,-1.3635,-1.3335,-1.3498,-1.3585,-1.3585,-1.3656,-1.3277,-1.2454,-1.2514,-1.2154,-1.1407,-1.1089,-1.1054,-0.5437,-0.5933,-0.6475,-0.7526,-0.8035,-0.834,-0.8632,-0.8699,-0.8747,-0.8844,-0.8878,-0.8885,-0.8888,-1.0062,-1.1122,-1.1294,-1.245,-1.3334,-1.3392,-1.4203,-1.4807,-1.491,-1.606,-1.6956,-1.7426,-1.7799,-1.7849,-1.7479,-1.8071,-1.8246,-1.8025,-1.7972,-1.8083,-1.8357,-1.8142,-1.8083,-1.8363,-1.8363,-1.8363,-1.8363,-1.8363,-1.8421,-1.8421,-1.8765,-1.9062,-1.9366,-1.9366,-1.9366,-1.9366,-1.9366,-1.9366,-1.9424,-1.9424,-1.9424,-1.9424,-1.9345,-1.9158,-1.8855,-1.8911,-1.8724,-1.843,-1.8089,-1.7982,-1.7922,-1.7675,-1.7582,-1.7582,-1.7582,-1.7582,-1.7582,-1.7582,-1.7582,-1.7582,-1.7582,-1.7582,-1.7582,-1.7582,-1.7575,-1.7569,-1.7569,-1.7387,-1.7186,-1.7186,-1.6901,-1.67,-1.6693,-1.6687,-1.6473,-1.5905,-1.5784,-1.573,-1.573,-1.573,-1.573,-1.573,-1.5996,-1.5765,-1.4728,-1.4926,-1.4659,-1.3625,-1.3585,-1.3585,-1.3585,-1.3773,-1.3898,-1.3845,-1.3955,-1.4008,-1.396,-1.2837,-1.2354,-0.6801,-0.7196,-0.755,-0.8143,-0.8411,-0.8615,-0.8815,-0.8807,-0.8821,-0.8871,-0.8804,-0.9064,-1.0039,-1.0532,-1.1514,-1.3567,-1.4293,-1.4977,-1.5962,-1.6247,-1.6435,-1.6708,-1.7096,-1.7453,-1.7818,-1.8148,-1.834,-1.8402,-1.8648,-1.8706,-1.8596,-1.8363,-1.8311,-1.8421,-1.8305,-1.8311,-1.8421,-1.8421,-1.8538,-1.8706,-1.8946,-1.9068,-1.9068,-1.9185,-1.9301,-1.9424,-1.9424,-1.9424,-1.9424,-1.9424,-1.9424,-1.9424,-1.9424,-1.9424,-1.9424,-1.9424,-1.9305,-1.9219,-1.9219,-1.9025,-1.8764,-1.8601,-1.8308,-1.7975,-1.7869,-1.7749,-1.7582,-1.7582,-1.7582,-1.7582,-1.7582,-1.7582,-1.7582,-1.7582,-1.7582,-1.7582,-1.7582,-1.7582,-1.7582,-1.7582,-1.7554,-1.7494,-1.7494,-1.7355,-1.7221,-1.7079,-1.6834,-1.6633,-1.6433,-1.6413,-1.6413,-1.6413,-1.6413,-1.6413,-1.6413,-1.65,-1.6404,-1.6056,-1.6328,-1.6375,-1.601,-1.618,-1.6229,-1.6229,-1.6323,-1.5998,-1.5252,-1.5281,-1.4888,-1.4078,-1.295,-1.2792,-0.7651,-0.7974,-0.8258,-0.8503,-0.8679,-0.8818,-0.8861,-0.921,-0.9519,-0.941,-0.9637,-1.0142,-1.1004,-1.153,-1.2533,-1.4638,-1.539,-1.6143,-1.7313,-1.7371,-1.7373,-1.7596,-1.7572,-1.7723,-1.7995,-1.8286,-1.8574,-1.8687,-1.8939,-1.9055,-1.8939,-1.8706,-1.8655,-1.8771,-1.8745,-1.8803,-1.8927,-1.9024,-1.9083,-1.9213,-1.9354,-1.9424,-1.9424,-1.9424,-1.9424,-1.9424,-1.9424,-1.9424,-1.9424,-1.9424,-1.9424,-1.9424,-1.9424,-1.9424,-1.9424,-1.9424,-1.9424,-1.9424,-1.9424,-1.9239,-1.9065,-1.8958,-1.8671,-1.8268,-1.8055,-1.7856,-1.7722,-1.7615,-1.7582,-1.7582,-1.7582,-1.7582,-1.7582,-1.7582,-1.7582,-1.7582,-1.7582,-1.7582,-1.7582,-1.7582,-1.7582,-1.7582,-1.7582,-1.7582,-1.7515,-1.7387,-1.7141,-1.6941,-1.6734,-1.6707,-1.6707,-1.6707,-1.6707,-1.6707,-1.6707,-1.68,-1.6867,-1.6867,-1.7192,-1.7353,-1.7353,-1.7482,-1.7582,-1.7582,-1.7582,-1.7259,-1.6505,-1.6505,-1.6127,-1.5316,-1.4191,-1.4072,-0.8026,-0.8323,-0.8583,-0.8843,-0.8937,-0.8992,-0.9047,-0.9962,-1.0716,-1.0432,-1.123,-1.1892,-1.1672,-1.2801,-1.3969,-1.4565,-1.5829,-1.6881,-1.7471,-1.7609,-1.7672,-1.7678,-1.7679,-1.7797,-1.8059,-1.8369,-1.8537,-1.846,-1.901,-1.9243,-1.8939,-1.8933,-1.9068,-1.9386,-1.9345,-1.949,-1.982,-2.0094,-2.0094,-1.982,-1.9533,-1.945,-1.945,-1.943,-1.9424,-1.9424,-1.9424,-1.9424,-1.9424,-1.9424,-1.9424,-1.9424,-1.9424,-1.9424,-1.9424,-1.9424,-1.9424,-1.9424,-1.9424,-1.9424,-1.9377,-1.9038,-1.8931,-1.8761,-1.8209,-1.8029,-1.7949,-1.7695,-1.7609,-1.7602,-1.7589,-1.7582,-1.7582,-1.7582,-1.7582,-1.7582,-1.7582,-1.7582,-1.7582,-1.7582,-1.7582,-1.7582,-1.7582,-1.7582,-1.7582,-1.7582,-1.7582,-1.7382,-1.682,-1.6747,-1.6747,-1.6747,-1.6747,-1.6747,-1.6747,-1.7058,-1.7226,-1.7226,-1.7481,-1.7582,-1.7582,-1.7582,-1.7582,-1.7582,-1.7582,-1.7582,-1.7582,-1.7582,-1.7582,-1.7582,-1.6452,-1.6054,-0.9318,-0.9133,-0.9112,-1.0995,-1.0858,-1.0457,-1.1332,-1.1598,-1.1598,-1.1338,-1.1272,-1.1404,-1.1958,-1.2733,-1.3727,-1.5024,-1.6254,-1.7277,-1.7769,-1.8073,-1.8307,-1.8539,-1.859,-1.8698,-1.9014,-1.9137,-1.9163,-1.9127,-1.9307,-1.9366,-1.9301,-1.9243,-1.9401,-1.9686,-1.97,-1.9781,-2.012,-2.0194,-2.0194,-2.0114,-1.9826,-1.9686,-1.9679,-1.9466,-1.9424,-1.9424,-1.9424,-1.9424,-1.9424,-1.9424,-1.9424,-1.9424,-1.9424,-1.9424,-1.9424,-1.9424,-1.9424,-1.9424,-1.9424,-1.9424,-1.9417,-1.9279,-1.9105,-1.8891,-1.8744,-1.8551,-1.8317,-1.8016,-1.7876,-1.7876,-1.7642,-1.7582,-1.7582,-1.7582,-1.7582,-1.7582,-1.7582,-1.7582,-1.7582,-1.7582,-1.7582,-1.7582,-1.7582,-1.7582,-1.7582,-1.7582,-1.7582,-1.7528,-1.7375,-1.7361,-1.7361,-1.7361,-1.7361,-1.7361,-1.7361,-1.7428,-1.7521,-1.7521,-1.7542,-1.7582,-1.7582,-1.7582,-1.7582,-1.7582,-1.7582,-1.7582,-1.7582,-1.7582,-1.7582,-1.7582,-1.6452,-1.6495,-1.0036,-1.0338,-1.0658,-1.2059,-1.1923,-1.1552,-1.1963,-1.2312,-1.2457,-1.1836,-1.1887,-1.2135,-1.2388,-1.2999,-1.3826,-1.4963,-1.6189,-1.721,-1.7764,-1.8287,-1.8706,-1.8881,-1.9055,-1.9185,-1.9366,-1.9424,-1.9419,-1.9546,-1.9559,-1.9559,-1.9559,-1.9679,-1.982,-1.9987,-2.0114,-2.0321,-2.0615,-2.0488,-2.0428,-2.0428,-2.0127,-1.992,-1.9793,-1.9633,-1.9486,-1.9424,-1.9424,-1.9424,-1.9424,-1.9424,-1.9424,-1.9424,-1.9424,-1.9424,-1.9424,-1.9424,-1.9424,-1.9424,-1.9424,-1.9424,-1.9424,-1.9424,-1.9252,-1.9092,-1.8965,-1.8804,-1.8591,-1.8115,-1.7995,-1.7922,-1.7662,-1.7582,-1.7582,-1.7582,-1.7582,-1.7582,-1.7582,-1.7582,-1.7582,-1.7582,-1.7582,-1.7582,-1.7582,-1.7582,-1.7582,-1.7582,-1.7582,-1.7582,-1.7582,-1.7582,-1.7582,-1.7582,-1.7582,-1.7582,-1.7582,-1.7582,-1.7582,-1.7582,-1.7582,-1.7582,-1.7582,-1.7582,-1.7582,-1.7582,-1.7582,-1.7582,-1.7582,-1.7582,-1.7655,-1.7736,-1.7128,-1.7408,-1.0678,-1.1585,-1.2467,-1.2797,-1.2719,-1.2486,-1.2185,-1.2853,-1.3199,-1.2208,-1.2756,-1.3188,-1.265,-1.3236,-1.3978,-1.457,-1.5811,-1.6948,-1.7622,-1.8378,-1.89,-1.8933,-1.9352,-1.9669,-1.9703,-1.9877,-2.0058,-2.0353,-2.0415,-2.0244,-1.986,-2.0094,-2.0193,-2.0233,-2.0581,-2.0855,-2.1109,-2.0862,-2.0735,-2.0728,-2.0434,-2.016,-1.9913,-1.9873,-1.97,-1.9426,-1.9426,-1.9406,-1.9424,-1.9424,-1.9424,-1.9424,-1.9424,-1.9424,-1.9424,-1.9424,-1.9424,-1.9424,-1.9424,-1.9424,-1.9424,-1.9424,-1.9424,-1.9377,-1.9058,-1.8985,-1.8871,-1.8262,-1.8109,-1.8035,-1.7782,-1.7702,-1.7702,-1.7702,-1.7675,-1.7642,-1.7642,-1.7609,-1.7582,-1.7582,-1.7582,-1.7595,-1.7635,-1.7642,-1.7655,-1.7695,-1.7669,-1.7642,-1.7642,-1.7609,-1.7582,-1.7582,-1.7582,-1.7582,-1.7582,-1.7582,-1.7582,-1.7582,-1.7582,-1.7582,-1.7582,-1.7582,-1.7582,-1.7582,-1.7582,-1.7582,-1.7582,-1.7622,-1.7782,-1.7989,-1.8035,-1.8342,-1.2025,-1.2226,-1.2852,-1.4804,-1.4428,-1.3782,-1.4543,-1.4386,-1.3877,-1.3296,-1.2954,-1.2527,-1.183,-1.253,-1.348,-1.4247,-1.5545,-1.6885,-1.8075,-1.861,-1.8971,-1.9274,-2.027,-2.0996,-2.1365,-2.2309,-2.3018,-2.3411,-2.364,-2.2722,-2.0288,-2.014,-2.0341,-2.0588,-2.0882,-2.1056,-2.1109,-2.1056,-2.1036,-2.1029,-2.0742,-2.0575,-2.0514,-2.0274,-2.0,-1.9726,-1.9726,-1.9586,-1.9424,-1.9424,-1.9424,-1.9424,-1.9424,-1.9424,-1.9424,-1.9424,-1.9424,-1.9424,-1.9424,-1.9424,-1.9424,-1.9424,-1.9424,-1.9417,-1.9305,-1.9292,-1.9219,-1.8871,-1.8715,-1.8704,-1.841,-1.8337,-1.8337,-1.8337,-1.8143,-1.7909,-1.7909,-1.7762,-1.7582,-1.7582,-1.7582,-1.7662,-1.7869,-1.7909,-1.7995,-1.8297,-1.8123,-1.7909,-1.7909,-1.7742,-1.7582,-1.7582,-1.7582,-1.7582,-1.7582,-1.7582,-1.7582,-1.7582,-1.7582,-1.7582,-1.7582,-1.7582,-1.7582,-1.7582,-1.7582,-1.7582,-1.7582,-1.7842,-1.7929,-1.8023,-1.829,-1.8597,-1.3252,-1.3776,-1.4476,-1.5618,-1.5159,-1.4526,-1.4747,-1.4142,-1.3367,-1.2704,-1.2157,-1.1675,-1.1303,-1.1912,-1.2668,-1.3377,-1.4754,-1.617,-1.7399,-1.8075,-1.8894,-2.0193,-2.0838,-2.1578,-2.2651,-2.3252,-2.3821,-2.4364,-2.4548,-2.3671,-2.1533,-2.0965,-2.0755,-2.0895,-2.1036,-2.1109,-2.1109,-2.1109,-2.1109,-2.1109,-2.0969,-2.0822,-2.0675,-2.0528,-2.0301,-2.0013,-1.9867,-1.972,-1.9579,-1.9491,-1.9424,-1.9424,-1.9424,-1.9424,-1.9424,-1.9424,-1.9424,-1.9424,-1.9424,-1.9424,-1.9424,-1.9424,-1.9424,-1.9424,-1.9424,-1.9424,-1.9305,-1.9005,-1.8925,-1.8858,-1.8564,-1.849,-1.8546,-1.865,-1.8585,-1.8509,-1.8673,-1.8353,-1.8137,-1.8232,-1.8158,-1.8103,-1.825,-1.8277,-1.833,-1.847,-1.837,-1.8277,-1.8277,-1.815,-1.7936,-1.7615,-1.7582,-1.7649,-1.7809,-1.7822,-1.7889,-1.8043,-1.7909,-1.7822,-1.7822,-1.7822,-1.7822,-1.7822,-1.7976,-1.8056,-1.8056,-1.8203,-1.835,-1.849,-1.8644,-1.8878,-1.4093,-1.4984,-1.5879,-1.5819,-1.5409,-1.4861,-1.429,-1.3523,-1.27,-1.1904,-1.1343,-1.0974,-1.1,-1.1438,-1.2037,-1.2729,-1.4107,-1.5547,-1.6787,-1.7621,-1.8858,-2.095,-2.1519,-2.2364,-2.3965,-2.4425,-2.4853,-2.5504,-2.5253,-2.4522,-2.3178,-2.2082,-2.1538,-2.1538,-2.1229,-2.1109,-2.1109,-2.1109,-2.1109,-2.1109,-2.1109,-2.0989,-2.0768,-2.0768,-2.0608,-2.0307,-2.002,-1.986,-1.978,-1.9486,-1.9424,-1.9424,-1.9424,-1.9424,-1.9424,-1.9424,-1.9424,-1.9424,-1.9424,-1.9424,-1.9424,-1.9424,-1.9424,-1.9424,-1.9424,-1.9424,-1.9377,-1.9085,-1.9018,-1.8965,-1.8738,-1.8733,-1.8825,-1.9029,-1.9098,-1.9136,-1.9373,-1.8953,-1.8639,-1.8871,-1.8705,-1.8615,-1.8682,-1.8744,-1.882,-1.8888,-1.884,-1.8744,-1.8695,-1.8635,-1.8358,-1.7829,-1.7776,-1.7849,-1.7975,-1.8049,-1.8243,-1.8477,-1.827,-1.8089,-1.8089,-1.8089,-1.8089,-1.8089,-1.837,-1.849,-1.849,-1.8551,-1.8698,-1.8925,-1.8991,-1.9145,-1.4135,-1.4841,-1.5831,-1.5596,-1.5143,-1.4643,-1.4191,-1.3302,-1.2424,-1.2065,-1.14,-1.0925,-1.0999,-1.123,-1.1869,-1.3226,-1.4353,-1.5652,-1.7277,-1.8083,-1.9111,-2.098,-2.2509,-2.4031,-2.5615,-2.7097,-2.816,-2.8587,-2.7452,-2.6167,-2.4824,-2.3613,-2.2889,-2.2889,-2.172,-2.1109,-2.1109,-2.1109,-2.1109,-2.1109,-2.1109,-2.1096,-2.1069,-2.1069,-2.0909,-2.0621,-2.0321,-2.0047,-1.978,-1.9486,-1.9424,-1.9424,-1.9424,-1.9424,-1.9424,-1.9424,-1.9424,-1.9424,-1.9424,-1.9424,-1.9424,-1.9424,-1.9424,-1.9424,-1.9424,-1.9424,-1.9417,-1.9332,-1.9325,-1.9377,-1.9292,-1.951,-1.9665,-1.9716,-1.9745,-1.9654,-1.9464,-1.9112,-1.8885,-1.8913,-1.8864,-1.8953,-1.9282,-1.9492,-1.9808,-2.0094,-1.9891,-1.9598,-1.933,-1.9035,-1.8733,-1.8465,-1.841,-1.831,-1.8015,-1.8297,-1.8464,-1.849,-1.8464,-1.845,-1.845,-1.845,-1.845,-1.845,-1.8477,-1.849,-1.849,-1.8751,-1.8898,-1.8931,-1.9199,-1.9339,-1.4879,-1.5364,-1.5831,-1.5565,-1.5081,-1.4495,-1.3955,-1.2991,-1.2092,-1.1719,-1.1038,-1.0651,-1.0991,-1.1099,-1.1506,-1.2764,-1.3438,-1.4327,-1.5866,-1.7268,-1.8933,-2.1179,-2.3148,-2.5054,-2.6875,-2.79,-2.8563,-2.8948,-2.8489,-2.7993,-2.7444,-2.5415,-2.4247,-2.4247,-2.2952,-2.2278,-2.2278,-2.1475,-2.1109,-2.1109,-2.1109,-2.1109,-2.1109,-2.1109,-2.0949,-2.0661,-2.0361,-2.0067,-1.978,-1.9486,-1.9424,-1.9424,-1.9424,-1.9424,-1.9424,-1.9424,-1.9424,-1.9424,-1.9424,-1.9424,-1.9424,-1.9424,-1.9424,-1.9424,-1.9424,-1.9424,-1.9424,-1.9424,-1.9424,-1.9424,-1.9591,-1.9982,-2.035,-2.0338,-2.0337,-2.0399,-2.0463,-2.011,-1.9808,-1.9921,-1.985,-1.9778,-1.9903,-2.0031,-2.013,-2.0256,-2.0165,-2.0088,-1.9981,-1.9642,-1.9335,-1.9045,-1.8702,-1.8517,-1.8515,-1.8684,-1.8831,-1.9005,-1.8851,-1.8751,-1.8751,-1.8751,-1.8751,-1.8751,-1.8931,-1.9018,-1.9018,-1.9138,-1.9192,-1.9192,-1.9312,-1.9424,-1.5167,-1.5448,-1.5596,-1.533,-1.4869,-1.43,-1.3711,-1.276,-1.1928,-1.1593,-1.0962,-1.0601,-1.114,-1.1175,-1.1458,-1.2524,-1.2993,-1.3898,-1.5669,-1.7198,-1.9159,-2.1856,-2.3602,-2.5407,-2.7452,-2.8187,-2.8682,-2.8966,-2.8984,-2.8984,-2.8984,-2.7203,-2.5973,-2.5607,-2.4309,-2.3504,-2.3076,-2.2153,-2.1475,-2.1109,-2.1109,-2.1109,-2.1109,-2.1109,-2.0949,-2.0661,-2.0361,-2.0067,-1.978,-1.9486,-1.9424,-1.9424,-1.9424,-1.9424,-1.9424,-1.9424,-1.9424,-1.9424,-1.9424,-1.9424,-1.9424,-1.9424,-1.9424,-1.9424,-1.9424,-1.9424,-1.9424,-1.9424,-1.9482,-1.9591,-1.9982,-2.0378,-2.0723,-2.0838,-2.085,-2.0933,-2.1159,-2.08,-2.0472,-2.068,-2.0551,-2.0443,-2.0443,-2.05,-2.0565,-2.0565,-2.0565,-2.0507,-2.0443,-2.0213,-1.9957,-1.9692,-1.9316,-1.9016,-1.8918,-1.9005,-1.9145,-1.941,-1.9172,-1.9052,-1.9052,-1.9052,-1.9052,-1.9052,-1.9259,-1.9424,-1.9424,-1.9424,-1.9424,-1.9424,-1.9424,-1.9424,-1.4524,-1.485,-1.5052,-1.4793,-1.446,-1.4068,-1.3453,-1.2612,-1.1987,-1.1895,-1.1259,-1.0861,-1.1468,-1.1579,-1.1866,-1.2746,-1.3578,-1.4975,-1.7512,-1.8385,-1.9969,-2.3178,-2.3973,-2.5005,-2.6984,-2.8269,-2.8975,-2.8984,-2.8984,-2.8984,-2.8984,-2.8984,-2.837,-2.7013,-2.5668,-2.4371,-2.3131,-2.3076,-2.2396,-2.1109,-2.1109,-2.1109,-2.1109,-2.1109,-2.0949,-2.0661,-2.0361,-2.0067,-1.978,-1.9486,-1.9424,-1.9424,-1.9424,-1.9424,-1.9424,-1.9424,-1.9424,-1.9424,-1.9424,-1.9424,-1.9424,-1.9424,-1.9424,-1.9424,-1.9424,-1.9424,-1.9424,-1.9424,-1.9591,-1.9924,-2.0544,-2.0716,-2.078,-2.1146,-2.1203,-2.1203,-2.1211,-2.0902,-2.0716,-2.0716,-2.0716,-2.0716,-2.0716,-2.0967,-2.1211,-2.1211,-2.1211,-2.1089,-2.0716,-2.0716,-2.0601,-2.0328,-2.0263,-1.9915,-1.9001,-1.9192,-1.9424,-1.9424,-1.9424,-1.9366,-1.9366,-1.9366,-1.9366,-1.9366,-1.9424,-1.9424,-1.9424,-1.9424,-1.9424,-1.9424,-1.9424,-1.9424,-1.3736,-1.421,-1.4514,-1.3876,-1.38,-1.3713,-1.3095,-1.2452,-1.1919,-1.1891,-1.1369,-1.1102,-1.1693,-1.1799,-1.2218,-1.3519,-1.4566,-1.5741,-1.7414,-1.9668,-2.162,-2.2894,-2.5164,-2.7103,-2.8333,-2.8764,-2.8984,-2.8984,-2.8984,-2.8984,-2.8984,-2.8984,-2.8797,-2.837,-2.7082,-2.6156,-2.5782,-2.4,-2.2889,-2.2459,-2.1538,-2.1109,-2.1109,-2.1109,-2.0842,-2.0368,-2.0274,-1.9953,-1.9499,-1.9464,-1.9424,-1.9424,-1.9424,-1.9424,-1.9424,-1.9424,-1.9424,-1.9424,-1.9424,-1.9424,-1.9424,-1.9424,-1.9424,-1.9424,-1.9424,-1.9424,-1.9424,-1.9649,-2.004,-2.0436,-2.0658,-2.0845,-2.1089,-2.1153,-2.1211,-2.1211,-2.1211,-2.1146,-2.1024,-2.1024,-2.1024,-2.1024,-2.1024,-2.1146,-2.1211,-2.1211,-2.1211,-2.1153,-2.1089,-2.0838,-2.0666,-2.0608,-2.0385,-2.0063,-1.9571,-1.9594,-1.9591,-1.9424,-1.9424,-1.9424,-1.9424,-1.9424,-1.9424,-1.9424,-1.9424,-1.9424,-1.9424,-1.9424,-1.9424,-1.9424,-1.9424,-1.9424,-1.2926,-1.3425,-1.3762,-1.3288,-1.3246,-1.3253,-1.2745,-1.216,-1.1703,-1.1703,-1.141,-1.1303,-1.1819,-1.1993,-1.2516,-1.4,-1.4926,-1.6193,-1.8308,-2.0537,-2.2484,-2.387,-2.6091,-2.7858,-2.8462,-2.8801,-2.8984,-2.8984,-2.8984,-2.8984,-2.8984,-2.8984,-2.8984,-2.8984,-2.8182,-2.7504,-2.7013,-2.5415,-2.4062,-2.3076,-2.2278,-2.1601,-2.1109,-2.1109,-2.0788,-2.0173,-2.0173,-1.9907,0.0,-1.9424,-1.9424,-1.9424,-1.9424,-1.9424,-1.9424,-1.9424,-1.9424,-1.9424,-1.9424,-1.9424,-1.9424,-1.9424,-1.9482,-1.9533,-1.9533,-1.9533,-1.9591,-1.9931,-2.0321,-2.0716,-2.0845,-2.1024,-2.1211,-2.1211,-2.1211,-2.1211,-2.1211,-2.1211,-2.1211,-2.1211,-2.1211,-2.1211,-2.1211,-2.1211,-2.1211,-2.1211,-2.1211,-2.1211,-2.1211,-2.1024,-2.0902,-2.0902,-2.0737,-2.0507,-2.0155,-1.9924,-1.9758,-1.9764,-1.954,-1.9482,-1.9707,-1.954,-1.9424,-1.954,-1.9424,-1.9424,-1.9424,-1.9424,-1.9424,-1.9424,-1.9424,-1.9426,0.0,-1.2537,-1.2804,-1.2766,-1.2736,-1.2648,-1.2388,-1.1824,0.0,-1.1389,-1.1389,-1.1536,-1.1933,-1.2237,-1.2934,-1.4438,-1.51,-1.6638,-2.0039,-2.1289,-2.2929,-2.5795,-2.6811,-2.7389,-2.7868,-2.8535,-2.8984,-2.8984,-2.8984,-2.8984,-2.8984,-2.8984,-2.8984,-2.8984,-2.8984,-2.843,-2.7142,-2.7082,-2.5782,-2.338,-2.3256,-2.2584,-2.1355,-2.1355,-2.1044,-2.0497,-2.0416,-2.0033,-1.9566,-1.9437,-1.9424,-1.9424,-1.9424,-1.9424,-1.9424,-1.9424,-1.9424,-1.9424,-1.9424,-1.9424,-1.9424,-1.9424,-1.9591,-1.9815,-1.9815,-1.9873,-1.9931,-2.0213,-2.0551,-2.078,-2.1146,-2.1211,-2.1211,-2.1211,-2.1211,-2.1211,-2.1211,-2.1211,-2.1211,-2.1211,-2.1211,-2.1211,-2.1211,-2.1211,-2.1211,-2.1211,-2.1211,-2.1211,-2.1211,-2.1211,-2.1211,-2.1211,-2.1211,-2.1089,-2.078,-2.0213,-1.9982,-2.027,-1.9764,-1.9707,-2.0213,-1.9707,-1.9533,-1.9758,-1.954,-1.9424,-1.9424,-1.9424,-1.9424,-1.9424,-1.945,-1.9546,-1.0989,0.0,-1.2025,-1.1548,-1.1589,-1.1717,0.0,-1.1334,-1.1156,-1.1342,-1.1389,-1.1695,-1.2712,-1.3324,-1.434,-1.6301,-1.7862,-1.947,-2.1271,-2.3267,-2.5209,-2.7141,-2.7564,-2.7969,-2.8627,-2.8874,-2.8984,-2.8984,-2.8984,-2.8984,-2.8984,-2.8984,-2.8984,-2.8984,-2.8984,-2.8856,-2.8549,-2.7504,-2.6702,-2.6095,-2.5048,-2.4379,-2.407,-2.407,-2.391,-2.3504,-2.2288,-2.1543,-2.1111,-1.9911,-1.9424,-1.9424,-1.9424,-1.9424,-1.9424,-1.9424,-1.9424,-1.9424,-1.9424,-1.9424,-1.9424,-1.9649,-1.9758,-1.9873,-2.0097,-2.0328,-2.0493,-2.0608,-2.0845,-2.1089,-2.1211,-2.1211,-2.1211,-2.1211,-2.1211,-2.1211,-2.1211,-2.1211,-2.1211,-2.1211,-2.1211,-2.1211,-2.1211,-2.1211,-2.1211,-2.1211,-2.1211,-2.1211,-2.1211,-2.1211,-2.1211,-2.1211,-2.1211,-2.1153,-2.1089,-2.073,-2.0436,-2.0328,-2.0162,-2.0046,-1.9931,-1.9758,-1.9649,-1.9482,-1.9424,-1.9424,-1.9424,-1.9424,-1.9424,-1.943,-1.9593,-1.9733,-1.0593,-1.1136,-1.1623,-1.1477,-1.141,-1.1429,-1.1597,-1.1196,-1.0868,-1.0995,-1.1243,-1.1768,-1.2996,-1.3992,-1.537,-1.7636,-1.9265,-2.0979,-2.2947,-2.4618,-2.6159,-2.7408,-2.7711,-2.8012,-2.8654,-2.8874,-2.8984,-2.8984,-2.8984,-2.8984,-2.8984,-2.8984,-2.8984,-2.8984,-2.8984,-2.8984,-2.8984,-2.8301,-2.7633,-2.7013,-2.6277,-2.5607,-2.4994,-2.4994,-2.4778,-2.4285,-2.3376,-2.2436,-2.1473,-2.0564,-1.988,-1.9424,-1.9424,-1.9424,-1.9424,-1.9424,-1.9424,-1.9424,-1.9424,-1.9424,-1.9424,-1.97,-1.9931,-2.0097,-2.0385,-2.0673,-2.0902,-2.0716,-2.096,-2.1211,-2.1211,-2.1211,-2.1211,-2.1211,-2.1211,-2.1211,-2.1211,-2.1211,-2.1211,-2.1211,-2.1211,-2.1211,-2.1211,-2.1211,-2.1211,-2.1211,-2.1211,-2.1211,-2.1211,-2.1211,-2.1211,-2.1211,-2.1211,-2.1211,-2.1211,-2.1024,-2.0852,-2.0737,-2.045,-2.0335,-2.045,-2.0162,-1.9873,-1.9591,-1.9482,-1.9424,-1.9424,-1.9499,-1.9566,-1.9573,-1.9867,-2.0074,-1.07,-1.1116,-1.159,-1.171,-1.1577,-1.1455,-1.1744,-1.1256,-1.074,-1.078,-1.1283,-1.2116,-1.3388,-1.4843,-1.6586,-1.8888,-2.0358,-2.2117,-2.4652,-2.5589,-2.6315,-2.7077,-2.7583,-2.793,-2.8352,-2.8755,-2.8984,-2.8984,-2.8984,-2.8984,-2.8984,-2.8984,-2.8984,-2.8984,-2.8984,-2.8984,-2.8984,-2.8984,-2.843,-2.7323,-2.7323,-2.671,-2.5607,-2.5607,-2.5241,-2.4667,-2.4434,-2.3235,-2.1526,-2.131,-2.05,-1.9424,-1.9424,-1.9424,-1.9424,-1.9424,-1.9424,-1.9424,-1.9424,-1.9482,-1.9597,-1.9873,-2.0155,-2.0385,-2.0666,-2.0967,-2.1146,-2.0845,-2.0967,-2.1211,-2.1211,-2.1211,-2.1211,-2.1211,-2.1211,-2.1211,-2.1211,-2.1211,-2.1211,-2.1211,-2.1211,-2.1211,-2.1211,-2.1211,-2.1211,-2.1211,-2.1211,-2.1211,-2.1211,-2.1211,-2.1211,-2.1211,-2.1211,-2.1211,-2.1211,-2.1211,-2.1211,-2.1211,-2.0737,-2.0622,-2.1089,-2.0565,-2.0155,-1.9815,-1.9591,-1.9444,-1.9432,-1.9679,-1.982,-1.9873,-2.0167,-2.0434,-1.1156,-1.1724,-1.1997,-1.1303,-1.1276,-1.1402,-1.1483,-1.1355,-1.1363,-1.1651,-1.2536,-1.3755,-1.5283,-1.7037,-1.8982,-2.1097,-2.2979,-2.4546,-2.5637,-2.5938,-2.6315,-2.7077,-2.7583,-2.793,-2.8352,-2.8755,-2.8984,-2.8984,-2.8984,-2.8984,-2.8984,-2.8984,-2.8984,-2.8984,-2.8984,-2.8984,-2.8984,-2.8984,-2.8925,-2.8677,-2.8677,-2.8618,-2.837,-2.837,-2.8119,-2.7678,-2.6261,-2.4763,-2.3158,-2.1735,-2.05,-1.9424,-1.9424,-1.9424,-1.9424,-1.9424,-1.9424,-1.9424,-1.9649,-1.9931,-2.022,-2.0493,-2.0608,-2.0723,-2.1024,-2.1153,-2.1211,-2.1146,-2.1153,-2.1211,-2.1211,-2.1211,-2.1211,-2.1211,-2.1211,-2.1211,-2.1211,-2.1211,-2.1211,-2.1211,-2.1211,-2.1211,-2.1211,-2.1211,-2.1211,-2.1211,-2.1211,-2.1211,-2.1211,-2.1211,-2.1211,-2.1211,-2.1211,-2.1211,-2.1211,-2.1211,-2.1211,-2.1211,-2.1096,-2.0974,-2.078,-2.05,-2.0155,-1.9815,-1.9758,-1.9712,-1.9733,-1.978,-1.9927,-2.0174,-2.0468,-2.0635,-1.0882,-1.1383,-1.1945,-1.2381,-1.2949,-1.3457,-1.3719,-1.3856,-1.3967,-1.4154,-1.4727,-1.5716,-1.7291,-1.8768,-2.0577,-2.3036,-2.457,-2.5598,-2.5957,-2.6205,-2.6435,-2.6811,-2.7205,-2.7609,-2.8012,-2.8425,-2.8755,-2.8966,-2.8984,-2.8984,-2.8984,-2.8984,-2.8984,-2.8984,-2.8984,-2.8984,-2.8984,-2.8984,-2.8984,-2.8984,-2.8984,-2.8984,-2.8975,-2.8764,-2.8443,-2.8031,-2.7032,-2.5369,-2.3197,-2.248,-2.106,-1.9424,-1.9424,-1.9424,-1.9424,-1.9533,-1.9649,-1.9649,-1.9989,-2.0155,-2.0328,-2.0601,-2.0716,-2.078,-2.1089,-2.1211,-2.1211,-2.1211,-2.1211,-2.1211,-2.1211,-2.1211,-2.1211,-2.1211,-2.1211,-2.1211,-2.1211,-2.1211,-2.1211,-2.1211,-2.1211,-2.1211,-2.1211,-2.1211,-2.1211,-2.1211,-2.1211,-2.1211,-2.1211,-2.1211,-2.1211,-2.1211,-2.1211,-2.1211,-2.1211,-2.1211,-2.1211,-2.1211,-2.1211,-2.1146,-2.0967,-2.0673,-2.0385,-2.0104,-1.9866,-1.9791,-1.98,-1.996,-2.0187,-2.0481,-2.0775,-2.0909,-1.076,-1.1189,-1.1983,-1.359,-1.4358,-1.499,-1.5991,-1.6199,-1.6274,-1.6609,-1.7087,-1.7803,-1.9168,-2.0597,-2.2316,-2.4546,-2.5644,-2.6159,-2.6159,-2.6389,-2.6591,-2.6591,-2.694,-2.7297,-2.7656,-2.8003,-2.837,-2.8673,-2.87,-2.8737,-2.8838,-2.8847,-2.8883,-2.8975,-2.8984,-2.8938,-2.8847,-2.8847,-2.8847,-2.8847,-2.8847,-2.8792,-2.8691,-2.8388,-2.8022,-2.7666,-2.7306,-2.5746,-2.3424,-2.3424,-2.2191,-2.027,-2.0321,-2.0378,-2.0429,-2.0601,-2.0544,-2.0493,-2.0723,-2.0673,-2.0558,-2.073,-2.0838,-2.0845,-2.1146,-2.1211,-2.1211,-2.1211,-2.1211,-2.1211,-2.1211,-2.1211,-2.1211,-2.1211,-2.1211,-2.1211,-2.1211,-2.1211,-2.1211,-2.1211,-2.1211,-2.1211,-2.1211,-2.1211,-2.1211,-2.1211,-2.1211,-2.1211,-2.1211,-2.1211,-2.1211,-2.1211,-2.1211,-2.1211,-2.1211,-2.1211,-2.1211,-2.1211,-2.1211,-2.1211,-2.1211,-2.096,-2.0666,-2.0385,-2.0167,-2.001,-2.0019,-2.0194,-2.0488,-2.0782,-2.1002,-2.1109,-1.1216,-1.179,-1.2611,-1.4163,-1.4088,-1.4283,-1.6861,-1.6879,-1.6774,-1.8238,-1.9171,-1.9963,-2.0706,-2.2827,-2.4679,-2.5243,-2.6013,-2.6545,-2.6545,-2.6564,-2.6591,-2.6591,-2.694,-2.7187,-2.7215,-2.7638,-2.7877,-2.7904,-2.7914,-2.8022,-2.8416,-2.8434,-2.8599,-2.8975,-2.8984,-2.881,-2.8443,-2.8434,-2.8434,-2.8434,-2.8434,-2.8232,-2.7904,-2.7877,-2.7591,-2.7215,-2.7187,-2.6265,-2.4667,-2.4667,-2.3935,-2.2749,-2.2999,-2.3271,-2.3439,-2.3215,-2.2782,-2.2289,-2.2353,-2.1809,-2.1153,-2.1153,-2.1153,-2.1153,-2.1211,-2.1211,-2.1211,-2.1211,-2.1211,-2.1211,-2.1211,-2.1211,-2.1211,-2.1211,-2.1211,-2.1211,-2.1211,-2.1211,-2.1211,-2.1211,-2.1211,-2.1211,-2.1211,-2.1211,-2.1211,-2.1211,-2.1211,-2.1211,-2.1211,-2.1211,-2.1211,-2.1211,-2.1211,-2.1211,-2.1211,-2.1211,-2.1211,-2.1211,-2.1211,-2.1211,-2.1211,-2.1211,-2.1024,-2.0658,-2.066,-2.0614,-2.0624,-2.0617,-2.0795,-2.1082,-2.1096,-2.1109,-1.1307,-1.2329,-1.3659,-1.536,-1.6096,-1.6882,-1.8644,-1.9368,-2.0087,-2.1397,-2.1773,-2.1967,-2.2449,-2.4008,-2.5197,-2.5396,-2.6059,-2.6591,-2.6591,-2.6591,-2.6591,-2.6591,-2.6719,-2.6912,-2.716,-2.7372,-2.7499,-2.7803,-2.7822,-2.7895,-2.7994,-2.8003,-2.8067,-2.8281,-2.8223,-2.8159,-2.8003,-2.8003,-2.7875,-2.7646,-2.7884,-2.7978,-2.7813,-2.7517,-2.7315,-2.716,-2.6921,-2.6042,-2.4778,-2.4778,-2.4206,-2.3287,-2.3551,-2.371,-2.3822,-2.3941,-2.3838,-2.3567,-2.3023,-2.2587,-2.2207,-2.1432,-2.1211,-2.1211,-2.1211,-2.1211,-2.1211,-2.1211,-2.1211,-2.1211,-2.1211,-2.1211,-2.1211,-2.1211,-2.1211,-2.1211,-2.1211,-2.1211,-2.1211,-2.1211,-2.1211,-2.1211,-2.1211,-2.1211,-2.1211,-2.1211,-2.1211,-2.1211,-2.1211,-2.1211,-2.1211,-2.1211,-2.1211,-2.1211,-2.1211,-2.1211,-2.1211,-2.1211,-2.1211,-2.1211,-2.1211,-2.1211,-2.1126,-2.1009,-2.0779,-2.0798,-2.0999,-2.0807,-2.0822,-2.1109,-2.1109,-2.1109,-1.1781,-1.2976,-1.4548,-1.6269,-1.7454,-1.86,-2.0101,-2.1101,-2.2071,-2.3455,-2.3519,-2.3444,-2.4024,-2.4803,-2.546,-2.5589,-2.6142,-2.6591,-2.6591,-2.6591,-2.6591,-2.6591,-2.6591,-2.6692,-2.6967,-2.6985,-2.7105,-2.737,-2.7398,-2.7509,-2.7572,-2.7638,-2.7693,-2.7822,-2.7822,-2.7767,-2.7638,-2.7638,-2.7436,-2.6995,-2.726,-2.7398,-2.7389,-2.7114,-2.6985,-2.6976,-2.6811,-2.6291,-2.5496,-2.5615,-2.5305,-2.4829,-2.4893,-2.5058,-2.5215,-2.5388,-2.5232,-2.4846,-2.3855,-2.3303,-2.2813,-2.1596,-2.1211,-2.1211,-2.1211,-2.1211,-2.1211,-2.1211,-2.1211,-2.1211,-2.1211,-2.1211,-2.1211,-2.1211,-2.1211,-2.1211,-2.1211,-2.1211,-2.1211,-2.1211,-2.1211,-2.1211,-2.1211,-2.1211,-2.1211,-2.1211,-2.1211,-2.1211,-2.1211,-2.1211,-2.1211,-2.1211,-2.1211,-2.1211,-2.1211,-2.1211,-2.1211,-2.1211,-2.1306,-2.1313,-2.1211,-2.1211,-2.1242,-2.1371,-2.1119,-2.1131,-2.1348,-2.1079,-2.1041,-2.1109,-2.1109,-2.1109,-1.2676,-1.3716,-1.5173,-1.6724,-1.7692,-1.8827,-2.1189,-2.1705,-2.2153,-2.3871,-2.4211,-2.4459,-2.5267,-2.5424,-2.5561,-2.5947,-2.6316,-2.6591,-2.6591,-2.6591,-2.6591,-2.6591,-2.6591,-2.6591,-2.6591,-2.6591,-2.6591,-2.6591,-2.6591,-2.6756,-2.715,-2.7169,-2.7408,-2.7803,-2.7813,-2.762,-2.7178,-2.7169,-2.6976,-2.6591,-2.6591,-2.6591,-2.6591,-2.6591,-2.6591,-2.6646,-2.689,-2.6989,-2.7043,-2.7314,-2.7584,-2.7853,-2.7539,-2.7755,-2.8291,-2.8014,-2.7295,-2.6354,-2.5113,-2.3958,-2.2813,-2.1596,-2.1211,-2.1211,-2.1211,-2.1211,-2.1211,-2.1211,-2.1211,-2.1211,-2.1211,-2.1211,-2.1211,-2.1211,-2.1211,-2.1211,-2.1211,-2.1211,-2.1211,-2.1211,-2.1211,-2.1211,-2.1211,-2.1211,-2.1211,-2.1211,-2.1211,-2.1211,-2.1211,-2.1211,-2.1211,-2.1211,-2.1211,-2.1211,-2.1211,-2.1211,-2.1211,-2.1211,-2.1525,-2.1554,-2.1225,-2.1218,-2.1372,-2.1701,-2.1703,-2.1644,-2.1587,-2.1589,-2.1425,-2.1109,-2.1109,-2.1109,-1.22,-1.4069,-1.6158,-1.6848,-1.8873,-2.0904,-2.1889,-2.2336,-2.2849,-2.3981,-2.4661,-2.5047,-2.4968,-2.546,-2.5874,-2.5993,-2.6316,-2.6591,-2.6591,-2.6591,-2.6591,-2.6591,-2.6591,-2.6591,-2.6591,-2.6591,-2.6591,-2.6591,-2.6591,-2.6637,-2.6756,-2.6765,-2.682,-2.694,-2.694,-2.6885,-2.6765,-2.6765,-2.671,-2.6591,-2.6591,-2.6591,-2.6591,-2.6591,-2.6691,-2.689,-2.6999,-2.7098,-2.7323,-2.7638,-2.7799,-2.7906,-2.8023,-2.813,-2.8291,-2.8237,-2.8014,-2.7457,-2.5397,-2.4505,-2.3847,-2.1873,-2.1211,-2.1211,-2.1211,-2.1211,-2.1211,-2.1211,-2.1211,-2.1211,-2.1211,-2.1211,-2.1211,-2.1211,-2.1211,-2.1211,-2.1211,-2.1211,-2.1211,-2.1211,-2.1211,-2.1211,-2.1211,-2.1211,-2.1211,-2.1211,-2.1211,-2.1211,-2.1211,-2.1211,-2.1211,-2.1211,-2.1211,-2.1211,-2.1211,-2.1423,-2.1547,-2.1547,-2.1862,-2.1891,-2.1569,-2.1774,-2.2037,-2.2337,-2.2069,-2.2093,-2.2283,-2.1811,-2.1544,-2.1418,-2.1235,-2.1109,-1.3271,-1.5314,-1.7548,-1.8218,-2.0066,-2.1925,-2.285,-2.3253,-2.362,-2.4321,-2.4716,-2.501,-2.5207,-2.5561,-2.5883,-2.6214,-2.6417,-2.6591,-2.6591,-2.6591,-2.6591,-2.6591,-2.6591,-2.6591,-2.6591,-2.6591,-2.6591,-2.6591,-2.6591,-2.6591,-2.6591,-2.6591,-2.6591,-2.6591,-2.6591,-2.6591,-2.6591,-2.6591,-2.6636,-2.6736,-2.6736,-2.6791,-2.6899,-2.6791,-2.6836,-2.6989,-2.726,-2.753,-2.7755,-2.797,-2.8067,-2.8067,-2.8237,-2.8291,-2.8291,-2.8291,-2.8014,-2.7295,-2.5397,-2.4394,-2.3687,-2.1816,-2.1211,-2.1211,-2.1211,-2.1211,-2.1211,-2.1211,-2.1211,-2.1211,-2.1211,-2.1211,-2.1211,-2.1211,-2.1211,-2.1211,-2.1211,-2.1211,-2.1211,-2.1211,-2.1211,-2.1211,-2.1211,-2.1211,-2.1211,-2.1211,-2.1211,-2.1211,-2.1211,-2.1211,-2.1211,-2.1211,-2.1211,-2.1262,-2.1393,-2.1584,-2.1752,-2.1884,-2.2184,-2.2271,-2.2074,-2.214,-2.2323,-2.2615,-2.2378,-2.2414,-2.2606,-2.2167,-2.1859,-2.1607,-2.1418,-2.1235,-1.5001,-1.6874,-1.8905,-2.0081,-2.1076,-2.2254,-2.3843,-2.4202,-2.4312,-2.4647,-2.4505,-2.4597,-2.5699,-2.5672,-2.5665,-2.6408,-2.6564,-2.6591,-2.6591,-2.6591,-2.6591,-2.6591,-2.6591,-2.6591,-2.6591,-2.6591,-2.6591,-2.6591,-2.6591,-2.6591,-2.6591,-2.6591,-2.6591,-2.6591,-2.6591,-2.6591,-2.6591,-2.6591,-2.6736,-2.6989,-2.6989,-2.7152,-2.7377,-2.7152,-2.7043,-2.7098,-2.7691,-2.8067,-2.8291,-2.8291,-2.8291,-2.8291,-2.8291,-2.8291,-2.8291,-2.8291,-2.7628,-2.6463,-2.5168,-2.4014,-2.2926,-2.1653,-2.1211,-2.1211,-2.1211,-2.1211,-2.1211,-2.1211,-2.1211,-2.1211,-2.1211,-2.1211,-2.1211,-2.1211,-2.1211,-2.1211,-2.1211,-2.1211,-2.1211,-2.1211,-2.1211,-2.1211,-2.1211,-2.1211,-2.1211,-2.1211,-2.1211,-2.1211,-2.1211,-2.1211,-2.1211,-2.1211,-2.124,-2.1379,-2.1672,-2.1752,-2.1906,-2.2206,-2.2506,-2.2667,-2.2667,-2.241,-2.2396,-2.2659,-2.2667,-2.2628,-2.2668,-2.2606,-2.2299,-2.167,-2.1607,-2.1418,-1.3707,-1.5909,-1.8388,-1.9,-2.0934,-2.2904,-2.3981,-2.4202,-2.4229,-2.4321,-2.4532,-2.473,-2.4986,-2.5525,-2.5938,-2.6122,-2.6371,-2.6591,-2.6591,-2.6591,-2.6591,-2.6591,-2.6591,-2.6591,-2.6591,-2.6591,-2.6591,-2.6591,-2.6591,-2.6591,-2.6591,-2.6591,-2.6591,-2.6591,-2.6591,-2.6591,-2.6591,-2.6591,-2.6736,-2.6989,-2.6989,-2.7152,-2.7377,-2.7323,-2.7476,-2.7745,-2.8077,-2.8237,-2.8291,-2.8291,-2.8291,-2.8291,-2.8291,-2.8291,-2.8291,-2.8291,-2.813,-2.7628,-2.5452,-2.4561,-2.4014,-2.1873,-2.1211,-2.1211,-2.1211,-2.1211,-2.1211,-2.1211,-2.1211,-2.1211,-2.1211,-2.1211,-2.1211,-2.1211,-2.1211,-2.1211,-2.1211,-2.1211,-2.1211,-2.1211,-2.1211,-2.1211,-2.1211,-2.1211,-2.1211,-2.1211,-2.1211,-2.1211,-2.1211,-2.1211,-2.1211,-2.1211,-2.1445,-2.162,-2.1693,-2.214,-2.2454,-2.252,-2.2828,-2.3003,-2.3003,-2.2945,-2.2937,-2.3003,-2.3003,-2.2977,-2.2981,-2.2738,-2.2418,-2.1985,-2.1734,-2.1418,-1.4081,-1.6283,-1.8718,-2.0146,-2.1699,-2.3068,-2.3721,-2.4064,-2.4202,-2.4202,-2.4376,-2.4587,-2.4748,-2.5115,-2.5506,-2.5699,-2.6076,-2.6289,-2.6289,-2.6463,-2.6591,-2.6591,-2.6591,-2.6591,-2.6591,-2.6591,-2.6591,-2.6591,-2.6591,-2.6591,-2.6591,-2.6591,-2.6591,-2.6591,-2.6591,-2.6591,-2.6591,-2.6591,-2.68,-2.7206,-2.7206,-2.7422,-2.7809,-2.7701,-2.7799,-2.8121,-2.8237,-2.8291,-2.8291,-2.8291,-2.8291,-2.8291,-2.8291,-2.8291,-2.8291,-2.8291,-2.7906,-2.7187,-2.5333,-2.4339,-2.3575,-2.1816,-2.1211,-2.1211,-2.1211,-2.1211,-2.1318,-2.1873,-2.1653,-2.1318,-2.193,-2.1653,-2.1211,-2.1211,-2.1211,-2.1211,-2.1211,-2.1211,-2.1211,-2.1211,-2.1211,-2.1211,-2.1211,-2.1211,-2.1211,-2.1211,-2.1211,-2.1211,-2.1211,-2.1211,-2.1269,-2.1423,-2.1598,-2.1818,-2.2118,-2.244,-2.2689,-2.2842,-2.3018,-2.3106,-2.3106,-2.3106,-2.3106,-2.3106,-2.3106,-2.3106,-2.3106,-2.2918,-2.2668,-2.2362,-2.1985,-2.167,-1.4573,-1.6735,-1.9207,-2.1604,-2.2547,-2.3014,-2.3407,-2.3859,-2.4202,-2.4202,-2.4202,-2.4312,-2.4661,-2.473,-2.4886,-2.5216,-2.5653,-2.5911,-2.5911,-2.616,-2.6408,-2.6472,-2.6481,-2.6509,-2.6582,-2.6591,-2.6591,-2.6591,-2.6591,-2.6591,-2.6591,-2.6591,-2.6591,-2.6591,-2.6591,-2.6591,-2.6591,-2.6591,-2.6854,-2.7377,-2.7485,-2.7809,-2.8291,-2.8067,-2.8067,-2.8291,-2.8291,-2.8291,-2.8291,-2.8291,-2.8291,-2.8291,-2.8291,-2.8291,-2.8291,-2.8291,-2.7682,-2.6636,-2.5452,-2.4403,-2.3424,-2.2207,-2.1816,-2.1816,-2.1816,-2.1816,-2.1979,-2.303,-2.2587,-2.1979,-2.2813,-2.2263,-2.1489,-2.1268,-2.1211,-2.1211,-2.1211,-2.1211,-2.1211,-2.1211,-2.1211,-2.1211,-2.1211,-2.1211,-2.1211,-2.1211,-2.1211,-2.1211,-2.1211,-2.1262,-2.1393,-2.1672,-2.1796,-2.2067,-2.2579,-2.2674,-2.282,-2.3091,-2.3106,-2.3106,-2.3106,-2.3106,-2.3106,-2.3106,-2.3106,-2.3106,-2.3106,-2.3106,-2.2926,-2.2606,-2.2237,-2.1922,-1.2893,-1.5647,-1.8903,-2.1207,-2.2346,-2.3014,-2.3407,-2.3859,-2.4202,-2.4202,-2.4202,-2.422,-2.4275,-2.4537,-2.4803,-2.4849,-2.5197,-2.5506,-2.5506,-2.5552,-2.5708,-2.6058,-2.6094,-2.6241,-2.6554,-2.6591,-2.6591,-2.6591,-2.6591,-2.6591,-2.6591,-2.6591,-2.6591,-2.6591,-2.6591,-2.6591,-2.6591,-2.6591,-2.6854,-2.7431,-2.7916,-2.8237,-2.8291,-2.8237,-2.8291,-2.8291,-2.8291,-2.8291,-2.8291,-2.8291,-2.8291,-2.8291,-2.8291,-2.8291,-2.8291,-2.8291,-2.8184,-2.7906,-2.669,-2.6136,-2.5799,-2.4616,-2.4228,-2.4228,-2.4228,-2.4228,-2.4283,-2.445,-2.4339,-2.4069,-2.3199,-2.2869,-2.2482,-2.1432,-2.1211,-2.1211,-2.1211,-2.1211,-2.1211,-2.1211,-2.1211,-2.1211,-2.1211,-2.1211,-2.1211,-2.1211,-2.1211,-2.1211,-2.1211,-2.1459,-2.165,-2.1693,-2.2176,-2.2535,-2.2615,-2.2879,-2.3062,-2.3106,-2.3106,-2.3106,-2.3106,-2.3106,-2.3106,-2.3106,-2.3106,-2.3106,-2.3106,-2.3106,-2.2926,-2.2606,-2.2237,-2.1922,-1.4223,-1.6647,-1.8998,-2.0893,-2.1787,-2.2327,-2.2721,-2.3354,-2.3813,-2.3813,-2.4045,-2.4202,-2.4202,-2.4358,-2.4477,-2.4477,-2.4826,-2.5041,-2.5041,-2.5286,-2.5488,-2.5663,-2.5874,-2.6085,-2.6269,-2.6454,-2.6591,-2.6591,-2.6591,-2.6591,-2.6591,-2.6591,-2.6591,-2.6591,-2.6591,-2.6591,-2.6591,-2.6591,-2.6854,-2.7431,-2.8023,-2.8291,-2.8291,-2.8291,-2.8291,-2.8291,-2.8291,-2.8291,-2.8291,-2.8291,-2.8291,-2.8291,-2.8291,-2.8291,-2.8291,-2.8291,-2.8291,-2.813,-2.6907,-2.6527,-2.63,-2.5067,-2.4727,-2.4727,-2.4727,-2.4727,-2.4837,-2.5516,-2.5232,-2.4561,-2.4069,-2.3472,-2.27,-2.1489,-2.1211,-2.1211,-2.1211,-2.1211,-2.1211,-2.1211,-2.1211,-2.1211,-2.1211,-2.1211,-2.1211,-2.1211,-2.1211,-2.1211,-2.1211,-2.1496,-2.1767,-2.195,-2.2359,-2.2696,-2.2879,-2.3025,-2.3106,-2.3106,-2.3106,-2.3106,-2.3106,-2.3106,-2.3106,-2.3106,-2.3106,-2.3106,-2.3106,-2.3106,-2.3043,-2.2856,-2.255,-2.2174,-1.4696,-1.6622,-1.8163,-1.9955,-2.0987,-2.1659,-2.2163,-2.2831,-2.337,-2.3471,-2.3785,-2.4082,-2.4183,-2.4202,-2.4202,-2.4202,-2.4468,-2.4629,-2.4629,-2.4927,-2.5148,-2.5267,-2.5534,-2.5791,-2.5993,-2.6296,-2.6472,-2.6582,-2.6591,-2.6591,-2.6591,-2.6591,-2.6591,-2.6591,-2.6591,-2.6591,-2.6591,-2.6745,-2.7008,-2.7431,-2.8023,-2.8291,-2.8291,-2.8291,-2.8291,-2.8291,-2.8291,-2.8291,-2.8291,-2.8291,-2.8291,-2.8291,-2.8291,-2.8291,-2.8291,-2.8291,-2.8291,-2.8184,-2.7241,-2.6971,-2.6799,-2.5899,-2.5617,-2.5617,-2.5617,-2.5617,-2.5781,-2.6681,-2.6291,-2.5443,-2.4829,-2.4069,-2.303,-2.1539,-2.1211,-2.1211,-2.1211,-2.1211,-2.1211,-2.1211,-2.1211,-2.1211,-2.1211,-2.1211,-2.1211,-2.1211,-2.1276,-2.1342,-2.1372,-2.1701,-2.2023,-2.2271,-2.2564,-2.2842,-2.3091,-2.3106,-2.3106,-2.3106,-2.3106,-2.3106,-2.3106,-2.3106,-2.3106,-2.3106,-2.3106,-2.3106,-2.3106,-2.3106,-2.3106,-2.3106,-2.2738,-2.248,-1.2384,-1.3975,-1.5654,-1.7882,-1.9814,-2.1346,-2.2099,-2.262,-2.305,-2.3416,-2.3508,-2.3694,-2.4128,-2.4202,-2.4202,-2.4202,-2.422,-2.4238,-2.4238,-2.4257,-2.4413,-2.4766,-2.4831,-2.5133,-2.5938,-2.603,-2.6214,-2.6554,-2.6591,-2.6591,-2.6591,-2.6591,-2.6591,-2.6591,-2.6591,-2.6591,-2.6591,-2.7107,-2.7377,-2.7431,-2.8023,-2.8291,-2.8291,-2.8291,-2.8291,-2.8291,-2.8291,-2.8291,-2.8291,-2.8291,-2.8291,-2.8291,-2.8291,-2.8291,-2.8291,-2.8291,-2.8291,-2.8291,-2.8237,-2.8184,-2.8184,-2.8121,-2.8121,-2.8121,-2.8121,-2.8121,-2.8121,-2.8184,-2.8184,-2.7565,-2.5278,-2.4671,-2.4005,-2.1759,-2.1211,-2.1211,-2.1211,-2.1211,-2.1211,-2.1211,-2.1211,-2.1211,-2.1211,-2.1211,-2.1211,-2.1211,-2.1474,-2.1708,-2.1744,-2.2204,-2.2579,-2.2601,-2.2893,-2.3091,-2.3106,-2.3106,-2.3106,-2.3106,-2.3106,-2.3106,-2.3106,-2.3106,-2.3106,-2.3106,-2.3106,-2.3106,-2.3106,-2.3106,-2.3106,-2.3106,-2.2738,-2.2606,-1.2079,-1.3576,-1.523,-1.7061,-1.8762,-2.0163,-2.0979,-2.1842,-2.2547,-2.2684,-2.2931,-2.3242,-2.3684,-2.3978,-2.4202,-2.4202,-2.4202,-2.4202,-2.4202,-2.4202,-2.4257,-2.4413,-2.462,-2.4895,-2.5179,-2.5488,-2.569,-2.5793,-2.6094,-2.6188,-2.6188,-2.6444,-2.6591,-2.6591,-2.6591,-2.6591,-2.6591,-2.7116,-2.7377,-2.7431,-2.8023,-2.8291,-2.8291,-2.8291,-2.8291,-2.8291,-2.8291,-2.8291,-2.8291,-2.8291,-2.8291,-2.8291,-2.8291,-2.8291,-2.8291,-2.8291,-2.8291,-2.8291,-2.8291,-2.8291,-2.8291,-2.8291,-2.8291,-2.8291,-2.8291,-2.8291,-2.8291,-2.8291,-2.8291,-2.7736,-2.5333,-2.4727,-2.4117,-2.1759,-2.1211,-2.1211,-2.1211,-2.1211,-2.1211,-2.1211,-2.1211,-2.1211,-2.1211,-2.1386,-2.1525,-2.1525,-2.1796,-2.2023,-2.2059,-2.2389,-2.2623,-2.2623,-2.2915,-2.3106,-2.3106,-2.3106,-2.3106,-2.3106,-2.3106,-2.3106,-2.3106,-2.3106,-2.3106,-2.3106,-2.3106,-2.3106,-2.3106,-2.3106,-2.3106,-2.3106,-2.2988,-2.2801,-1.1339,-1.2844,-1.4572,-1.6317,-1.7634,-1.8889,-2.0374,-2.1092,-2.1595,-2.1998,-2.241,-2.2821,-2.3224,-2.3565,-2.384,-2.4156,-2.4202,-2.4202,-2.4202,-2.4202,-2.4202,-2.4202,-2.445,-2.4629,-2.4766,-2.5014,-2.5225,-2.5414,-2.5663,-2.5819,-2.5819,-2.6032,-2.6243,-2.6371,-2.6518,-2.6591,-2.6591,-2.7116,-2.7377,-2.7431,-2.8023,-2.8291,-2.8291,-2.8291,-2.8291,-2.8291,-2.8291,-2.8291,-2.8291,-2.8291,-2.8291,-2.8291,-2.8291,-2.8291,-2.8291,-2.8291,-2.8291,-2.8291,-2.8291,-2.8291,-2.8291,-2.8291,-2.8291,-2.8291,-2.8291,-2.8291,-2.8291,-2.8291,-2.8291,-2.7736,-2.5333,-2.4125,-2.3135,-2.1596,-2.1211,-2.1211,-2.1211,-2.1211,-2.1211,-2.1211,-2.1211,-2.1211,-2.1211,-2.1481,-2.1693,-2.1693,-2.2059,-2.233,-2.233,-2.2593,-2.2784,-2.2784,-2.2981,-2.3106,-2.3106,-2.3106,-2.3106,-2.3106,-2.3106,-2.3106,-2.3106,-2.3106,-2.3106,-2.3106,-2.3106,-2.3106,-2.3106,-2.3106,-2.3106,-2.3106,-2.3106,-2.2918,0.0,0.0,0.0,-1.5503,-1.6441,-1.7614,-2.0374,-2.042,-2.0177,-2.1403,-2.1952,-2.2346,-2.2803,-2.2885,-2.3151,-2.4036,-2.4174,-2.4192,-2.4202,-2.4202,-2.4202,-2.4202,-2.4202,-2.4367,-2.4721,-2.4757,-2.4922,-2.5359,-2.5396,-2.5405,-2.5405,-2.5372,-2.5617,-2.6002,-2.6371,-2.6591,-2.6591,-2.7116,-2.7377,-2.7431,-2.8023,-2.8291,-2.8291,-2.8291,-2.8291,-2.8291,-2.8291,-2.8291,-2.8291,-2.8291,-2.8291,-2.8291,-2.8291,-2.8291,-2.8291,-2.8291,-2.8291,-2.8291,-2.8291,-2.8291,-2.8291,-2.8291,-2.8291,-2.8291,-2.8291,-2.8291,-2.8291,-2.8291,-2.8291,-2.7736,-2.5333,-2.2974,-2.1211,-2.1211,-2.1211,-2.1211,-2.1211,-2.1211,-2.1211,-2.1211,-2.1211,-2.1211,-2.1211,-2.1489,-2.1715,-2.1715,-2.2242,-2.2637,-2.2637,-2.2915,-2.3106,-2.3106,-2.3106,-2.3106,-2.3106,-2.3106,-2.3106,-2.3106,-2.3106,-2.3106,-2.3106,-2.3106,-2.3106,-2.3106,-2.3106,-2.3106,-2.3106,-2.3106,-2.3106,-2.3106,-2.3106,-2.2926,-1.0094,0.0,0.0,0.0,0.0,0.0,-1.8183,-1.8568,-1.9006,-2.0506,-2.0671,-2.0936,-2.2217,-2.2455,-2.2629,-2.3151,-2.348,-2.3813,-2.4156,-2.4202,-2.4202,-2.4202,-2.4202,-2.4248,-2.4367,-2.4376,-2.4422,-2.4532,-2.4826,-2.4992,-2.4992,-2.5543,-2.5901,-2.6012,-2.6371,-2.6591,-2.6591,-2.7116,-2.7377,-2.7431,-2.8023,-2.8291,-2.8291,-2.8291,-2.8291,-2.8291,-2.8291,-2.8291,-2.8291,-2.8291,-2.8291,-2.8291,-2.8291,-2.8291,-2.8291,-2.8291,-2.8291,-2.8291,-2.8291,-2.8291,-2.8291,-2.8291,-2.8291,-2.8291,-2.8291,-2.8291,-2.8291,-2.8291,-2.8291,-2.7736,-2.5333,-2.2974,-2.1211,-2.1211,-2.1211,-2.1211,-2.1211,-2.1211,-2.1211,-2.1211,-2.1211,-2.1211,-2.1211,-2.1679,-2.2052,-2.2052,-2.2579,-2.2974,-2.2974,-2.3054,-2.3106,-2.3106,-2.3106,-2.3106,-2.3106,-2.3106,-2.3106,-2.3106,-2.3106,-2.3106,-2.3106,-2.3106,-2.3106,-2.3106,-2.3106,-2.3106,-2.3106,-2.3106,-2.3106,-2.3106,-2.3106,-2.3043,-1.0722,-1.1742,-1.302,-1.423,0.0,0.0,-1.7597,-1.7569,-1.772,-1.9597,-1.993,-2.0223,-2.1374,-2.1704,-2.1906,-2.2327,-2.2876,-2.3389,-2.384,-2.4101,-2.4202,-2.4202,-2.4202,-2.4202,-2.4202,-2.4202,-2.4202,-2.4202,-2.4431,-2.4569,-2.4569,-2.5176,-2.5515,-2.5515,-2.6023,-2.6243,-2.6078,-2.6831,-2.7239,-2.7176,-2.7593,-2.7912,-2.8027,-2.8027,-2.8027,-2.8047,-2.8223,-2.8291,-2.8291,-2.8291,-2.8291,-2.8291,-2.8291,-2.8291,-2.8291,-2.8291,-2.8291,-2.8291,-2.8291,-2.8291,-2.8291,-2.8291,-2.8291,-2.8291,-2.8291,-2.8291,-2.8291,-2.8291,-2.7565,-2.6445,-2.5058,-2.2974,-2.1211,-2.1211,-2.1211,-2.1211,-2.1211,-2.1211,-2.1211,-2.1211,-2.1211,-2.1211,-2.1211,-2.1752,-2.2184,-2.2184,-2.271,-2.3106,-2.3106,-2.3106,-2.3106,-2.3106,-2.3106,-2.3106,-2.3106,-2.3106,-2.3106,-2.3106,-2.3106,-2.3106,-2.3106,-2.3106,-2.3106,-2.3106,-2.3106,-2.3106,-2.3106,-2.3106,-2.3106,-2.3106,-2.3106,-2.3106,-1.1639,-1.2445,0.0,-1.5589,-1.5146,0.0,-1.7539,-1.6862,-1.6295,-1.8484,-1.9173,-1.9565,-2.0177,-2.064,-2.1044,-2.1421,-2.2217,-2.294,-2.3425,-2.3895,-2.4202,-2.4202,-2.4202,-2.4202,-2.4202,-2.4202,-2.4202,-2.4202,-2.4202,-2.4202,-2.4202,-2.4606,-2.4785,-2.4785,-2.5561,-2.5773,-2.5372,-2.6389,-2.6842,-2.675,-2.6993,-2.7317,-2.7598,-2.7598,-2.7669,-2.7738,-2.8057,-2.8252,-2.8291,-2.8291,-2.8291,-2.8291,-2.8291,-2.8291,-2.8291,-2.8291,-2.8291,-2.8291,-2.8291,-2.8291,-2.8291,-2.8291,-2.8291,-2.8291,-2.8291,-2.8291,-2.8291,-2.8291,-2.6563,-2.4727,-2.4727,-2.2974,-2.1211,-2.1211,-2.1211,-2.1211,-2.1211,-2.1211,-2.1211,-2.1211,-2.1211,-2.1211,-2.1211,-2.1833,-2.2319,-2.2236,-2.2804,-2.3186,-2.3106,-2.3106,-2.3106,-2.3106,-2.3106,-2.3106,-2.3106,-2.3106,-2.3106,-2.3106,-2.3106,-2.3106,-2.3106,-2.3106,-2.3106,-2.3106,-2.3106,-2.3106,-2.3106,-2.3106,-2.3106,-2.3106,-2.3106,-2.3106,-1.215,-1.2707,-1.3327,-1.3567,-1.4086,0.0,-1.4604,-1.4391,-1.4663,-1.6242,-1.6368,-1.6766,-1.869,-1.9393,-1.9797,-2.0177,-2.1193,-2.23,-2.3343,-2.3895,-2.4202,-2.4202,-2.4202,-2.4202,-2.4202,-2.4202,-2.4202,-2.4202,-2.4202,-2.4202,-2.4202,-2.4606,-2.4785,-2.4785,-2.5295,-2.5506,-2.5424,-2.5841,-2.613,-2.6295,-2.6605,-2.6872,-2.7139,-2.7139,-2.7334,-2.7718,-2.7806,-2.7978,-2.8291,-2.8291,-2.8291,-2.8291,-2.8291,-2.8291,-2.8291,-2.8291,-2.8291,-2.8291,-2.8291,-2.8291,-2.8291,-2.8291,-2.8291,-2.8291,-2.8291,-2.8291,-2.8291,-2.8291,-2.6563,-2.4727,-2.4727,-2.2974,-2.1211,-2.1211,-2.1211,-2.1211,-2.1211,-2.1211,-2.1211,-2.1211,-2.1211,-2.1211,-2.1211,-2.2321,-2.3022,-2.2319,-2.3323,-2.3902,-2.3201,-2.3106,-2.3106,-2.3106,-2.3106,-2.3106,-2.3106,-2.3106,-2.3106,-2.3106,-2.3106,-2.3106,-2.3106,-2.3106,-2.3106,-2.3106,-2.3106,-2.3106,-2.3106,-2.3106,-2.3106,-2.3106,-2.3106,-2.3106,-1.3081,-1.3326,-1.3733,-1.4268,-1.4351,0.0,0.0,-1.4171,-1.4089,-1.5654,-1.5743,-1.606,-1.7746,-1.856,-1.9136,-1.9549,-2.0763,-2.1833,-2.2272,-2.3033,-2.3629,-2.3831,-2.3849,-2.3932,-2.4183,-2.4202,-2.4202,-2.4202,-2.4202,-2.4202,-2.4202,-2.4404,-2.4514,-2.4514,-2.4867,-2.4977,-2.4817,-2.5325,-2.5675,-2.592,-2.6012,-2.6275,-2.6699,-2.6699,-2.6816,-2.7102,-2.7532,-2.7783,-2.7998,-2.8203,-2.8291,-2.8291,-2.8291,-2.8291,-2.8291,-2.8291,-2.8291,-2.8291,-2.8291,-2.8291,-2.8291,-2.8291,-2.8291,-2.8291,-2.8291,-2.8291,-2.8291,-2.8291,-2.7015,-2.5626,-2.5626,-2.43,-2.2805,-2.2207,-2.2093,-2.193,-2.1325,-2.1211,-2.1211,-2.1211,-2.1211,-2.1211,-2.1211,-2.2933,-2.3849,-2.2424,-2.345,-2.4068,-2.3186,-2.3106,-2.3106,-2.3106,-2.3106,-2.3106,-2.3106,-2.3106,-2.3106,-2.3106,-2.3106,-2.3106,-2.3106,-2.3106,-2.3106,-2.3106,-2.3106,-2.3106,-2.3106,-2.3106,-2.3106,-2.3106,-2.3106,-2.3106,-1.4416,-1.4337,-1.4501,-1.5379,-1.4827,-1.4207,0.0,0.0,0.0,-1.5273,-1.5585,-1.591,-1.697,-1.7896,-1.8605,-1.9008,-2.031,-2.1083,-2.0704,-2.1595,-2.2529,-2.3078,-2.3288,-2.3508,-2.3886,-2.3898,-2.3954,-2.4183,-2.3981,-2.3954,-2.4192,-2.4202,-2.4202,-2.4202,-2.4532,-2.4551,-2.4211,-2.4854,-2.5275,-2.5443,-2.5434,-2.5683,-2.6269,-2.6269,-2.6309,-2.6426,-2.7207,-2.764,-2.7748,-2.8125,-2.8291,-2.8291,-2.8291,-2.8291,-2.8291,-2.8291,-2.8291,-2.8291,-2.8291,-2.8291,-2.8291,-2.8291,-2.8291,-2.8291,-2.8291,-2.8291,-2.8291,-2.8291,-2.7403,-2.6527,-2.6527,-2.5626,-2.445,-2.3528,-2.3303,-2.3087,-2.2093,-2.1866,-2.1866,-2.1866,-2.2036,-2.2101,-2.1596,-2.3537,-2.4522,-2.2727,-2.3702,-2.427,-2.3152,-2.3069,-2.3106,-2.3106,-2.3106,-2.3106,-2.3106,-2.3106,-2.3106,-2.3106,-2.3106,-2.3106,-2.3106,-2.3106,-2.3106,-2.3106,-2.3106,-2.3106,-2.3106,-2.3106,-2.3106,-2.3106,-2.3106,-2.3106,-1.6456,-1.6004,-1.5418,-1.4796,-1.4556,-1.4114,-1.2961,0.0,-1.3329,-1.3548,0.0,-1.506,-1.6133,0.0,0.0,-1.8155,-1.8999,-1.9439,-1.9045,-1.9692,-2.0644,-2.1769,-2.2529,-2.2995,-2.3041,-2.2749,-2.2978,-2.4119,-2.3143,-2.3006,-2.4146,-2.4202,-2.4202,-2.4202,-2.4248,-2.4248,-2.4202,-2.4293,-2.456,-2.5007,-2.4949,-2.5253,-2.5762,-2.5762,-2.6025,-2.6416,-2.6885,-2.7314,-2.7748,-2.8125,-2.8291,-2.8291,-2.8291,-2.8291,-2.8291,-2.8291,-2.8291,-2.8291,-2.8291,-2.8291,-2.8291,-2.8291,-2.8291,-2.8291,-2.8291,-2.8291,-2.8291,-2.8291,-2.7403,-2.6527,-2.6527,-2.5626,-2.4671,-2.4561,-2.4505,-2.445,-2.4339,-2.4283,-2.4283,-2.4283,-2.5186,-2.525,-2.3143,-2.3888,-2.4421,-2.3514,-2.4605,-2.4832,-2.2935,-2.293,-2.3106,-2.3106,-2.3106,-2.3106,-2.3106,-2.3106,-2.3106,-2.3106,-2.3106,-2.3106,-2.3106,-2.3106,-2.3106,-2.3106,-2.3106,-2.3106,-2.3106,-2.3106,-2.3106,-2.3106,-2.3106,-2.3106,-1.6786,-1.6695,-1.6519,-1.5822,-1.5737,-1.5575,-1.4887,-1.4266,-1.3956,-1.4402,0.0,0.0,0.0,0.0,0.0,0.0,-1.8595,-1.8733,-1.8091,-1.8705,-1.9546,-2.0534,-2.0946,-2.1431,-2.2135,-2.2044,-2.2346,-2.3382,-2.2749,-2.2758,-2.3749,-2.4073,-2.4202,-2.4202,-2.4202,-2.4202,-2.4202,-2.4202,-2.4341,-2.4686,-2.4833,-2.5088,-2.5489,-2.5635,-2.5791,-2.6035,-2.6465,-2.6758,-2.6973,-2.7646,-2.7783,-2.7598,-2.8096,-2.8291,-2.8291,-2.8291,-2.8291,-2.8291,-2.8291,-2.8291,-2.8291,-2.8291,-2.8291,-2.8291,-2.8291,-2.8291,-2.8291,-2.8291,-2.796,-2.752,-2.752,-2.7178,-2.6617,-2.5899,-2.5735,-2.5562,-2.4837,-2.4727,-2.4727,-2.4727,-2.5122,-2.5351,-2.5084,-2.6018,-2.6034,-2.3844,-2.4581,-2.4697,-2.2616,-2.2491,-2.2637,-2.2806,-2.2828,-2.2901,-2.3091,-2.3106,-2.3106,-2.3106,-2.3106,-2.3106,-2.3106,-2.3106,-2.3106,-2.3106,-2.3106,-2.3106,-2.3106,-2.3106,-2.3106,-2.3106,-2.3106,-2.3106,-1.7705,-1.7754,-1.7749,-1.6847,-1.6677,-1.6651,-1.6339,-1.5533,-1.5016,-1.564,-1.5178,0.0,0.0,0.0,-1.6874,-1.7942,0.0,-1.8265,-1.7449,-1.7844,-1.8476,-1.9182,-1.9518,-2.0104,-2.1101,-2.1,-2.1339,-2.2492,-2.198,-2.2172,-2.3425,-2.3822,-2.4082,-2.4202,-2.4202,-2.4202,-2.4202,-2.4202,-2.4291,-2.448,-2.4784,-2.5039,-2.5294,-2.5586,-2.5693,-2.5713,-2.6201,-2.6387,-2.6445,-2.7178,-2.7305,-2.709,-2.7832,-2.8125,-2.8135,-2.8252,-2.8291,-2.8291,-2.8291,-2.8291,-2.8291,-2.8291,-2.8291,-2.8291,-2.8291,-2.8291,-2.8291,-2.8291,-2.8291,-2.8291,-2.8291,-2.8291,-2.8067,-2.7187,-2.6961,-2.6744,-2.5891,-2.5672,-2.5672,-2.5672,-2.5672,-2.5945,-2.6853,-2.7466,-2.6891,-2.4218,-2.4609,-2.4433,-2.2305,-2.2125,-2.2264,-2.2476,-2.2506,-2.2593,-2.2835,-2.293,-2.3018,-2.3106,-2.3106,-2.3106,-2.3106,-2.3106,-2.3106,-2.3106,-2.3106,-2.3106,-2.3106,-2.3106,-2.3106,-2.3106,-2.3106,-2.3106,-1.9994,-1.9706,-1.9179,-1.7428,-1.6839,-1.6524,-1.5864,-1.5983,-1.6309,-1.6586,-1.6937,-1.734,-1.7838,-1.7632,-1.7535,-1.8033,-1.81,0.0,0.0,-1.6945,-1.711,-1.7523,-1.8614,-1.9494,-1.9902,-1.9234,-1.9591,-2.1577,-2.0634,-2.1,-2.337,-2.3508,-2.3739,-2.4192,-2.4202,-2.4202,-2.4202,-2.4202,-2.4291,-2.448,-2.4784,-2.5039,-2.5294,-2.5586,-2.5693,-2.5713,-2.6201,-2.6387,-2.6426,-2.6855,-2.7021,-2.706,-2.751,-2.7738,-2.7787,-2.8144,-2.8291,-2.8291,-2.8291,-2.8291,-2.8291,-2.8291,-2.8291,-2.8291,-2.8291,-2.8291,-2.8291,-2.8291,-2.8291,-2.8291,-2.8291,-2.8291,-2.8291,-2.8237,-2.8237,-2.8237,-2.8184,-2.8174,-2.8174,-2.8174,-2.8174,-2.8184,-2.8237,-2.7305,-2.6136,-2.4855,-2.494,-2.4342,-2.1993,-2.1986,-2.2184,-2.2198,-2.2198,-2.2206,-2.2213,-2.2476,-2.2769,-2.3091,-2.3106,-2.3106,-2.3106,-2.3106,-2.3106,-2.3106,-2.3106,-2.3106,-2.3106,-2.3106,-2.3106,-2.3106,-2.3106,-2.3106,-2.0393,-2.0449,-2.0343,-1.921,-1.8656,-1.8377,-1.8123,-1.7535,-1.7119,-1.7478,-1.7425,-1.743,-1.7904,-1.7658,-1.7561,-1.8033,-1.7475,-1.6777,0.0,-1.5881,-1.5854,-1.6248,-1.7367,-1.8164,-1.8302,-1.8559,-1.918,-2.0406,-2.036,-2.0982,-2.2602,-2.3206,-2.3553,-2.3739,-2.4064,-2.4202,-2.4202,-2.4202,-2.4251,-2.4301,-2.4686,-2.4941,-2.503,-2.5489,-2.5693,-2.5693,-2.5889,-2.5957,-2.5986,-2.6426,-2.6426,-2.622,-2.7275,-2.749,-2.7324,-2.8037,-2.8291,-2.8291,-2.8291,-2.8291,-2.8291,-2.8291,-2.8291,-2.8291,-2.8291,-2.8291,-2.8291,-2.8291,-2.8291,-2.8291,-2.8291,-2.8291,-2.8291,-2.8291,-2.8291,-2.8291,-2.8291,-2.8291,-2.8291,-2.8291,-2.8291,-2.8291,-2.8291,-2.796,-2.7015,-2.5003,-2.4774,-2.4028,-2.1652,-2.1467,-2.162,-2.184,-2.1862,-2.195,-2.2162,-2.2454,-2.2762,-2.3091,-2.3106,-2.3106,-2.3106,-2.3106,-2.3106,-2.3106,-2.3106,-2.3106,-2.3106,-2.3106,-2.3106,-2.3106,-2.3106,-2.3106,-2.0769,-2.1025,-2.1108,-2.0122,-1.9793,-1.9659,-1.9366,-1.8775,-1.8368,-1.8614,-1.8185,-1.7979,-1.8754,-1.8077,-1.7605,-1.8215,-1.7449,-1.6528,0.0,-1.5364,-1.5272,-1.568,-1.6514,-1.7183,-1.7468,-1.7715,-1.8375,-1.9573,-1.9774,-2.0488,-2.1989,-2.284,-2.3352,-2.3489,-2.3941,-2.4202,-2.4202,-2.4202,-2.4202,-2.4202,-2.4695,-2.4883,-2.4932,-2.544,-2.5693,-2.5693,-2.5693,-2.5693,-2.5713,-2.6045,-2.5986,-2.5801,-2.6992,-2.7266,-2.7119,-2.7978,-2.8291,-2.8291,-2.8291,-2.8291,-2.8291,-2.8291,-2.8291,-2.8291,-2.8291,-2.8291,-2.8291,-2.8291,-2.8291,-2.8291,-2.8291,-2.8291,-2.8291,-2.8291,-2.8291,-2.8291,-2.8291,-2.8291,-2.8291,-2.8291,-2.8291,-2.8291,-2.8291,-2.8291,-2.7457,-2.5058,-2.4727,-2.3847,-2.1482,-2.1211,-2.1291,-2.1503,-2.1525,-2.1701,-2.2147,-2.2359,-2.2652,-2.3084,-2.3106,-2.3106,-2.3106,-2.3106,-2.3106,-2.3106,-2.3106,-2.3106,-2.3106,-2.3106,-2.3106,-2.3106,-2.3106,-2.3106]},{"header":{"parameterUnit":"m.s-1","parameterCategory":1,"la1":30.6,"la2":29.2853,"lo1":-89.7004,"lo2":-87.6739,"dy":0.0162,"dx":0.0183,"nx":112,"ny":82,"refTime":"2024-08-28T06:00:00:Z","depth":0,"parameterNumber":3,"parameterNumberName":"V-component_of_WINDS"},"data":[0.0,0.0,0.0,0.0,0.0,0.0,0.0,0.0,0.0,0.0,0.0,0.0,0.0,0.0,0.0,0.0,0.0,0.0,0.0,0.0,0.0,0.0,0.0,0.0,0.0,0.0,0.0,0.0,0.0,0.0,0.0,0.0,0.0,0.0,0.0,0.0,0.0,0.0,0.0,0.0,0.0,0.0,0.0,0.0,0.0,0.0,0.0,0.0,0.0,0.0,0.0,0.0,0.0,0.0,0.0,0.0,0.0,0.0,0.0,0.0,0.0,0.0,0.0,0.0,0.0,0.0,0.0,0.0,0.0,0.0,0.0,0.0,0.0,0.0,0.0,0.0,0.0,0.0,0.0,0.0,0.0,0.0,0.0,0.0,0.0,0.0,0.0,0.0,0.0,0.0,3.1832,3.2538,3.4698,3.6394,3.7133,3.5545,3.3393,3.0766,0.0,0.0,0.0,0.0,0.0,0.0,0.0,0.0,0.0,0.0,0.0,0.0,0.0,0.0,0.0,0.0,0.0,0.0,0.0,0.0,0.0,0.0,0.0,0.0,0.0,0.0,0.0,0.0,0.0,0.0,0.0,0.0,0.0,0.0,0.0,0.0,0.0,0.0,0.0,0.0,0.0,0.0,0.0,0.0,0.0,0.0,0.0,0.0,0.0,0.0,0.0,0.0,0.0,0.0,0.0,0.0,0.0,0.0,0.0,0.0,0.0,0.0,0.0,0.0,0.0,0.0,0.0,0.0,0.0,0.0,0.0,0.0,0.0,0.0,0.0,0.0,0.0,0.0,0.0,0.0,0.0,0.0,0.0,0.0,0.0,0.0,0.0,0.0,0.0,0.0,0.0,0.0,0.0,0.0,0.0,0.0,0.0,0.0,0.0,0.0,0.0,0.0,0.0,0.0,3.1145,3.492,3.6314,3.7055,3.72,3.5591,3.3433,3.0766,0.0,0.0,0.0,0.0,0.0,0.0,0.0,0.0,0.0,0.0,0.0,0.0,0.0,0.0,0.0,0.0,0.0,0.0,0.0,0.0,0.0,0.0,0.0,0.0,0.0,0.0,0.0,0.0,0.0,0.0,0.0,0.0,0.0,0.0,0.0,0.0,0.0,0.0,0.0,0.0,0.0,0.0,0.0,0.0,0.0,0.0,0.0,0.0,0.0,0.0,0.0,0.0,0.0,0.0,0.0,0.0,0.0,0.0,0.0,0.0,0.0,0.0,0.0,0.0,0.0,0.0,0.0,0.0,0.0,0.0,0.0,0.0,0.0,0.0,0.0,0.0,0.0,0.0,0.0,0.0,0.0,0.0,0.0,0.0,0.0,0.0,0.0,0.0,0.0,0.0,0.0,0.0,0.0,0.0,0.0,0.0,0.0,0.0,0.0,0.0,0.0,0.0,0.0,3.1054,3.3003,3.6882,3.7235,3.7391,3.7861,3.5912,3.3482,3.0762,2.852,0.0,0.0,0.0,0.0,0.0,0.0,0.0,0.0,0.0,0.0,0.0,0.0,0.0,0.0,0.0,0.0,0.0,0.0,0.0,0.0,0.0,0.0,0.0,0.0,0.0,0.0,0.0,0.0,0.0,0.0,0.0,0.0,0.0,0.0,0.0,0.0,0.0,0.0,0.0,0.0,0.0,0.0,0.0,0.0,0.0,0.0,0.0,0.0,0.0,0.0,0.0,0.0,0.0,0.0,0.0,0.0,0.0,0.0,0.0,0.0,0.0,0.0,0.0,0.0,0.0,0.0,0.0,0.0,0.0,0.0,0.0,0.0,0.0,0.0,0.0,0.0,0.0,0.0,0.0,0.0,0.0,0.0,0.0,0.0,0.0,0.0,0.0,0.0,0.0,0.0,0.0,0.0,0.0,0.0,0.0,0.0,0.0,0.0,0.0,0.0,0.0,0.0,3.3847,3.5602,3.8217,3.79,3.7786,3.8443,3.5984,3.332,3.0757,2.8016,0.0,0.0,0.0,0.0,0.0,0.0,0.0,0.0,0.0,0.0,0.0,0.0,0.0,0.0,0.0,0.0,0.0,0.0,0.0,0.0,0.0,0.0,0.0,0.0,0.0,0.0,0.0,0.0,0.0,0.0,0.0,0.0,0.0,0.0,0.0,0.0,0.0,0.0,0.0,0.0,0.0,0.0,0.0,0.0,0.0,0.0,0.0,0.0,0.0,0.0,0.0,0.0,0.0,0.0,0.0,0.0,0.0,0.0,0.0,0.0,0.0,0.0,0.0,0.0,0.0,0.0,0.0,0.0,0.0,0.0,0.0,0.0,0.0,0.0,0.0,0.0,0.0,0.0,0.0,0.0,0.0,0.0,0.0,0.0,0.0,0.0,0.0,0.0,0.0,0.0,0.0,0.0,0.0,0.0,0.0,0.0,0.0,0.0,0.0,0.0,0.0,0.0,3.5132,3.8229,3.8463,3.8454,3.8432,3.8482,3.5429,3.2661,3.0718,2.7446,0.0,0.0,0.0,0.0,0.0,0.0,0.0,0.0,0.0,0.0,0.0,0.0,0.0,0.0,0.0,0.0,0.0,0.0,0.0,0.0,0.0,0.0,0.0,0.0,0.0,0.0,0.0,0.0,0.0,0.0,0.0,0.0,0.0,0.0,0.0,0.0,0.0,0.0,0.0,0.0,0.0,0.0,0.0,0.0,0.0,0.0,0.0,0.0,0.0,0.0,0.0,0.0,0.0,0.0,0.0,0.0,0.0,0.0,0.0,0.0,0.0,0.0,0.0,0.0,0.0,0.0,0.0,0.0,0.0,0.0,0.0,0.0,0.0,0.0,0.0,0.0,0.0,0.0,0.0,0.0,0.0,0.0,0.0,0.0,0.0,0.0,0.0,0.0,0.0,0.0,0.0,0.0,0.0,0.0,0.0,0.0,0.0,0.0,0.0,0.0,0.0,0.0,3.3897,3.6555,3.7634,3.7747,3.7749,3.776,3.5571,3.3191,3.0809,0.0,0.0,0.0,0.0,0.0,0.0,0.0,0.0,0.0,0.0,0.0,0.0,0.0,0.0,0.0,0.0,0.0,0.0,0.0,0.0,0.0,0.0,0.0,0.0,0.0,0.0,0.0,0.0,0.0,0.0,0.0,0.0,0.0,0.0,0.0,0.0,0.0,0.0,0.0,0.0,0.0,0.0,0.0,0.0,0.0,0.0,0.0,0.0,0.0,0.0,0.0,0.0,0.0,0.0,0.0,0.0,0.0,0.0,0.0,0.0,0.0,0.0,0.0,0.0,0.0,0.0,0.0,0.0,0.0,0.0,0.0,0.0,0.0,0.0,0.0,0.0,0.0,0.0,0.0,0.0,0.0,0.0,0.0,0.0,0.0,0.0,0.0,0.0,0.0,0.0,0.0,0.0,0.0,0.0,0.0,0.0,0.0,0.0,0.0,0.0,0.0,0.0,3.0656,3.358,3.598,3.7177,3.731,3.729,3.7301,3.5192,3.2856,3.0477,0.0,0.0,0.0,0.0,0.0,0.0,0.0,0.0,0.0,0.0,0.0,0.0,0.0,0.0,0.0,0.0,0.0,0.0,0.0,0.0,0.0,0.0,0.0,0.0,0.0,0.0,0.0,0.0,0.0,0.0,0.0,0.0,0.0,0.0,0.0,0.0,0.0,0.0,0.0,0.0,0.0,0.0,0.0,0.0,0.0,0.0,0.0,0.0,0.0,0.0,0.0,0.0,0.0,0.0,0.0,0.0,0.0,0.0,0.0,0.0,0.0,0.0,0.0,0.0,0.0,0.0,0.0,0.0,0.0,0.0,0.0,0.0,0.0,0.0,0.0,0.0,0.0,0.0,0.0,0.0,0.0,0.0,0.0,0.0,0.0,0.0,0.0,0.0,0.0,0.0,0.0,0.0,0.0,0.0,0.0,0.0,0.0,0.0,0.0,0.0,0.0,0.0,3.0839,3.4627,3.7301,3.7301,3.7295,3.7294,3.7282,3.4113,3.1368,0.0,0.0,0.0,0.0,0.0,0.0,0.0,0.0,0.0,0.0,0.0,0.0,0.0,0.0,0.0,0.0,0.0,0.0,0.0,0.0,0.0,0.0,0.0,0.0,0.0,0.0,0.0,0.0,0.0,0.0,0.0,0.0,0.0,0.0,0.0,0.0,0.0,0.0,0.0,0.0,0.0,0.0,0.0,0.0,0.0,0.0,0.0,0.0,0.0,0.0,0.0,0.0,0.0,0.0,0.0,0.0,0.0,0.0,0.0,0.0,0.0,0.0,0.0,0.0,0.0,0.0,0.0,0.0,0.0,0.0,0.0,0.0,0.0,0.0,0.0,0.0,0.0,0.0,0.0,0.0,0.0,0.0,0.0,0.0,0.0,0.0,0.0,0.0,0.0,0.0,0.0,0.0,0.0,0.0,0.0,0.0,0.0,0.0,0.0,0.0,0.0,0.0,0.0,3.2403,3.5325,3.7241,3.7285,3.73,3.7045,3.6441,3.4312,3.228,3.0537,0.0,0.0,0.0,0.0,0.0,0.0,0.0,0.0,0.0,0.0,0.0,0.0,0.0,0.0,0.0,0.0,0.0,0.0,0.0,0.0,0.0,0.0,0.0,0.0,0.0,0.0,0.0,0.0,0.0,0.0,0.0,0.0,0.0,0.0,0.0,0.0,0.0,0.0,0.0,0.0,0.0,0.0,0.0,0.0,0.0,0.0,0.0,0.0,0.0,0.0,0.0,0.0,0.0,0.0,0.0,0.0,0.0,0.0,0.0,0.0,0.0,0.0,0.0,0.0,0.0,0.0,0.0,0.0,0.0,0.0,0.0,0.0,0.0,0.0,0.0,0.0,0.0,0.0,0.0,0.0,0.0,0.0,0.0,0.0,0.0,0.0,0.0,0.0,0.0,0.0,0.0,0.0,0.0,0.0,0.0,0.0,0.0,0.0,0.0,0.0,0.0,0.0,3.3141,3.5937,3.7733,3.7768,3.7473,3.706,3.656,3.4606,3.2518,3.045,0.0,0.0,0.0,0.0,0.0,0.0,0.0,0.0,0.0,0.0,0.0,0.0,0.0,0.0,0.0,0.0,0.0,0.0,0.0,0.0,0.0,0.0,0.0,0.0,0.0,0.0,0.0,0.0,0.0,0.0,0.0,0.0,0.0,0.0,0.0,0.0,0.0,0.0,0.0,0.0,0.0,0.0,0.0,0.0,0.0,0.0,0.0,0.0,0.0,0.0,0.0,0.0,0.0,0.0,0.0,0.0,0.0,0.0,0.0,0.0,0.0,0.0,0.0,0.0,0.0,0.0,0.0,0.0,0.0,0.0,0.0,0.0,0.0,0.0,0.0,0.0,0.0,0.0,0.0,0.0,0.0,0.0,0.0,0.0,0.0,0.0,0.0,0.0,0.0,0.0,0.0,0.0,0.0,0.0,0.0,0.0,0.0,0.0,0.0,0.0,0.0,0.0,3.3493,3.6545,3.8612,3.8612,3.7909,3.7383,3.7292,3.5042,3.2542,2.9986,0.0,0.0,0.0,0.0,0.0,0.0,0.0,0.0,0.0,0.0,0.0,0.0,0.0,0.0,0.0,0.0,0.0,0.0,0.0,0.0,0.0,0.0,0.0,0.0,0.0,0.0,0.0,0.0,0.0,0.0,0.0,0.0,0.0,0.0,0.0,0.0,0.0,0.0,0.0,0.0,0.0,0.0,0.0,0.0,0.0,0.0,0.0,0.0,0.0,0.0,0.0,0.0,0.0,0.0,0.0,0.0,0.0,0.0,0.0,0.0,3.1194,2.9759,0.0,0.0,0.0,0.0,0.0,0.0,0.0,0.0,0.0,0.0,0.0,0.0,0.0,0.0,0.0,0.0,0.0,0.0,0.0,0.0,0.0,0.0,0.0,0.0,0.0,0.0,0.0,0.0,0.0,0.0,0.0,0.0,0.0,0.0,0.0,0.0,0.0,0.0,0.0,0.0,3.4999,3.7745,3.9436,3.9432,3.9278,3.8637,3.7334,3.6073,3.4277,3.1738,2.9152,0.0,0.0,0.0,0.0,0.0,0.0,0.0,0.0,0.0,0.0,0.0,0.0,0.0,0.0,0.0,0.0,0.0,0.0,0.0,0.0,0.0,0.0,0.0,0.0,0.0,0.0,0.0,0.0,0.0,0.0,0.0,0.0,0.0,0.0,0.0,0.0,0.0,0.0,0.0,0.0,0.0,0.0,0.0,0.0,0.0,0.0,0.0,0.0,0.0,0.0,0.0,0.0,0.0,0.0,0.0,0.0,0.0,0.0,0.0,3.4176,3.2863,0.0,0.0,0.0,0.0,0.0,0.0,0.0,0.0,0.0,0.0,0.0,0.0,0.0,0.0,0.0,0.0,0.0,0.0,0.0,0.0,0.0,0.0,0.0,0.0,0.0,0.0,0.0,0.0,0.0,0.0,0.0,0.0,0.0,0.0,0.0,0.0,0.0,0.0,0.0,0.0,3.5604,3.8468,4.0289,4.0328,3.994,3.9345,3.8487,3.686,3.5167,3.3409,3.0525,0.0,0.0,0.0,0.0,0.0,0.0,0.0,0.0,0.0,0.0,0.0,0.0,0.0,0.0,0.0,0.0,0.0,0.0,0.0,0.0,0.0,0.0,0.0,0.0,0.0,0.0,0.0,0.0,0.0,0.0,0.0,0.0,0.0,0.0,0.0,0.0,0.0,0.0,0.0,0.0,0.0,0.0,0.0,0.0,0.0,0.0,0.0,0.0,0.0,0.0,0.0,0.0,0.0,3.8926,3.9414,3.9414,3.9414,3.9803,4.0325,3.7499,3.6797,3.7558,3.6164,0.0,0.0,0.0,0.0,0.0,0.0,0.0,0.0,0.0,0.0,0.0,0.0,0.0,0.0,0.0,0.0,0.0,0.0,0.0,0.0,0.0,0.0,3.6317,3.7698,3.8084,3.7362,3.4447,0.0,0.0,0.0,0.0,0.0,0.0,0.0,0.0,0.0,0.0,0.0,3.6187,3.9003,4.092,4.0986,4.0347,3.9841,3.9713,3.7771,3.6073,3.4899,3.2037,2.9931,0.0,0.0,0.0,0.0,0.0,0.0,0.0,0.0,0.0,0.0,0.0,0.0,0.0,0.0,0.0,0.0,0.0,0.0,0.0,0.0,0.0,0.0,0.0,0.0,0.0,0.0,0.0,0.0,0.0,0.0,0.0,0.0,3.0466,3.2341,0.0,0.0,0.0,0.0,0.0,0.0,0.0,0.0,0.0,0.0,0.0,0.0,0.0,3.8007,3.8007,3.9726,4.0583,4.0602,4.2234,4.3009,4.3009,4.3009,4.3085,4.3162,4.2714,0.0,3.9431,3.9217,0.0,0.0,0.0,0.0,0.0,0.0,0.0,0.0,0.0,0.0,0.0,0.0,0.0,0.0,0.0,0.0,0.0,0.0,0.0,0.0,0.0,0.0,4.1075,4.1239,4.1852,4.2073,4.0866,3.7308,3.4213,3.3766,3.2596,3.129,0.0,0.0,0.0,0.0,0.0,0.0,3.7758,3.9732,4.0893,4.0906,4.0809,4.0464,3.9753,3.9386,3.8207,3.5886,3.4599,3.3191,3.1571,2.9153,0.0,0.0,0.0,0.0,0.0,0.0,0.0,0.0,0.0,0.0,0.0,0.0,0.0,0.0,0.0,0.0,0.0,0.0,0.0,0.0,0.0,0.0,0.0,0.0,0.0,0.0,0.0,0.0,0.0,2.9432,3.1991,3.3242,3.3163,3.2752,0.0,0.0,0.0,0.0,0.0,0.0,0.0,0.0,0.0,3.937,4.0248,4.0931,4.1419,4.2663,4.3285,4.3304,4.4567,4.5168,4.5168,4.5168,4.5168,4.5168,4.5168,4.4509,4.3344,4.1869,4.0525,3.9316,0.0,0.0,0.0,0.0,3.8538,3.8298,3.9806,3.9679,3.876,3.8183,0.0,0.0,0.0,0.0,0.0,0.0,0.0,3.8067,3.884,4.0502,4.2221,4.3105,4.3232,4.3163,4.3279,4.1216,3.876,3.6845,3.5945,3.4603,3.1808,3.2195,0.0,0.0,0.0,3.7104,3.8251,3.9858,4.0907,4.0907,4.0907,4.0752,4.0402,3.9967,3.9229,3.8117,3.6297,3.4928,3.4166,3.1697,2.9938,0.0,0.0,0.0,0.0,0.0,0.0,0.0,0.0,0.0,0.0,0.0,0.0,0.0,0.0,0.0,0.0,0.0,0.0,0.0,0.0,0.0,0.0,0.0,0.0,0.0,0.0,0.0,0.0,3.1679,3.3749,3.4624,3.5487,3.541,0.0,0.0,0.0,0.0,0.0,0.0,3.8512,4.0114,4.142,4.23,4.3175,4.4053,4.4913,4.5574,4.5905,4.5905,4.6552,4.6864,4.6864,4.6864,4.6864,4.6864,4.6864,4.6864,4.6652,4.4073,4.2639,4.1953,4.1069,4.0348,3.9921,4.1222,4.1268,4.0968,4.2936,4.3093,4.2267,4.1265,4.0563,3.9807,3.8117,0.0,0.0,0.0,0.0,4.0316,4.1332,4.2046,4.2864,4.4288,4.4124,4.3844,4.4487,4.3973,4.2564,3.9851,3.9219,3.8032,3.4632,3.545,0.0,3.4434,3.6915,3.9111,3.9557,4.0528,4.1184,4.1184,4.101,4.0907,4.0907,4.0344,3.9912,3.9699,3.7873,3.6708,3.6479,3.4227,3.2558,3.1688,0.0,0.0,0.0,0.0,0.0,0.0,0.0,0.0,0.0,0.0,0.0,0.0,0.0,0.0,0.0,0.0,0.0,0.0,0.0,0.0,0.0,0.0,0.0,0.0,0.0,0.0,0.0,0.0,0.0,3.8222,3.9041,0.0,0.0,0.0,0.0,3.925,4.015,4.099,4.1806,4.3447,4.4753,4.5627,4.6502,4.7376,4.8244,4.8302,4.8322,4.8322,4.8361,4.838,4.838,4.838,4.838,4.838,4.838,4.838,4.8197,4.5714,4.464,4.4517,4.3577,4.3225,4.3247,4.3276,4.3298,4.3318,4.3388,4.3389,4.3441,4.406,4.313,4.1931,4.2754,4.13,0.0,0.0,4.1703,4.2052,4.3623,4.3972,4.4132,4.5041,4.5213,4.5194,4.5251,4.4662,4.3889,4.3004,4.2186,4.1318,4.0321,0.0,3.935,4.0058,4.0347,4.1068,4.2664,4.2337,4.1943,4.1943,4.1324,4.0907,4.0907,4.0869,4.0519,3.9757,3.9582,3.914,3.8309,3.6556,3.5201,3.433,3.1808,0.0,0.0,0.0,0.0,0.0,0.0,0.0,0.0,0.0,0.0,0.0,0.0,0.0,0.0,0.0,0.0,0.0,0.0,0.0,0.0,0.0,0.0,0.0,0.0,0.0,0.0,0.0,0.0,3.9262,4.049,0.0,4.0108,4.0189,4.079,4.1936,4.3311,4.4455,4.5348,4.648,4.7243,4.7567,4.7864,4.8188,4.8499,4.8499,4.8499,4.8499,4.8499,4.8499,4.8499,4.8499,4.8499,4.8499,4.8499,4.8499,4.8421,4.7454,4.6771,4.6251,4.5366,4.5026,4.5035,4.5016,4.4999,4.4977,4.499,4.4918,4.4862,4.5117,4.4784,4.4341,4.472,4.4167,4.3547,4.4118,4.4234,4.4301,4.4834,4.4949,4.4966,4.5231,4.5307,4.5307,4.5307,4.509,4.4834,4.4566,4.3431,4.2061,4.0718,4.1102,4.1393,4.0711,4.1516,4.2429,4.3027,4.2879,4.2742,4.2834,4.2102,4.1643,4.1723,4.1218,4.0558,3.9757,3.9179,3.846,3.7605,3.644,3.5391,3.4521,3.3099,3.137,0.0,0.0,0.0,0.0,0.0,0.0,0.0,0.0,0.0,0.0,0.0,0.0,0.0,0.0,0.0,0.0,0.0,0.0,0.0,0.0,0.0,0.0,0.0,0.0,0.0,3.8179,4.0505,4.0505,4.2204,4.3038,4.2174,4.3092,4.4096,4.491,4.6022,4.6893,4.7474,4.8055,4.8507,4.8798,4.8798,4.8952,4.9236,4.9236,4.9236,4.9236,4.9236,4.9236,4.9236,4.9236,4.9236,4.9236,4.9236,4.9236,4.9209,4.8821,4.8381,4.7868,4.6984,4.6668,4.6705,4.6655,4.6635,4.6639,4.6641,4.6379,4.6028,4.6028,4.5845,4.5594,4.5594,4.5577,4.5568,4.5568,4.5523,4.5458,4.541,4.538,4.5367,4.5307,4.5307,4.5307,4.5307,4.5307,4.5307,4.5307,4.4441,4.3349,4.2239,4.2976,4.3367,4.2343,4.3129,4.3848,4.3848,4.3632,4.3505,4.3588,4.2858,4.2293,4.2119,4.1313,4.0601,4.0051,3.8952,3.8181,3.786,3.6779,3.59,3.5318,3.4227,3.2949,3.1426,0.0,0.0,0.0,0.0,0.0,0.0,0.0,0.0,0.0,0.0,0.0,0.0,0.0,0.0,0.0,0.0,0.0,0.0,0.0,0.0,0.0,0.0,0.0,3.8283,4.0558,4.2213,4.2213,4.443,4.5634,4.4788,4.6112,4.7395,4.8272,4.8204,4.8144,4.8182,4.8182,4.8567,4.9413,4.9433,4.9856,5.0693,5.0712,5.0712,5.0712,5.0712,5.0712,5.0712,5.0712,5.0712,5.0712,5.0712,5.0712,5.0635,4.9779,4.9433,4.9356,4.8452,4.8174,4.8276,4.815,4.8174,4.8288,4.8141,4.7586,4.6942,4.6942,4.6374,4.5691,4.5691,4.5636,4.5581,4.5552,4.5486,4.5427,4.5408,4.5348,4.5307,4.5307,4.5307,4.5307,4.5307,4.5307,4.5307,4.5307,4.5307,4.5307,4.5307,4.5307,4.5307,4.5307,4.5307,0.0,4.5307,4.4672,4.4238,4.4248,4.3572,4.2815,4.2008,4.121,4.0687,4.0575,3.9063,3.8514,3.9225,3.7735,3.6913,3.6927,3.5305,3.3984,3.2986,0.0,0.0,0.0,0.0,0.0,0.0,0.0,0.0,0.0,0.0,0.0,0.0,0.0,0.0,0.0,0.0,0.0,0.0,0.0,0.0,0.0,4.0029,4.1421,4.0257,4.2741,4.4705,4.4705,4.636,4.7389,4.7158,4.754,4.8158,4.9025,4.9057,4.9317,4.9952,4.999,5.0087,5.0346,5.0346,5.0462,5.0712,5.0712,5.0712,5.0712,5.0712,5.0712,5.0712,5.0712,5.0712,5.0712,5.0712,5.0712,5.0673,5.0442,5.0346,5.0183,4.8682,4.8114,4.815,4.8105,4.8114,4.815,4.8105,4.7971,4.7778,4.7778,4.7605,4.7404,4.7347,4.7329,4.7175,4.6541,4.631,4.6144,4.5561,4.5348,4.5307,4.5307,4.5307,4.5307,4.5307,4.5307,4.5307,4.5307,4.5307,4.5307,4.5307,4.5307,4.5307,4.5307,4.5307,4.5307,4.5307,4.5128,4.5026,4.514,4.4399,4.3594,4.2837,4.2037,4.1014,3.9732,3.8685,3.8202,3.8349,3.7366,3.7108,3.7701,3.6671,3.5682,0.0,0.0,0.0,0.0,0.0,0.0,0.0,0.0,0.0,0.0,0.0,0.0,0.0,0.0,0.0,0.0,0.0,0.0,0.0,0.0,0.0,0.0,4.2802,4.4126,4.3884,4.5495,4.6703,4.6703,4.7852,4.8644,4.8644,4.8971,4.9548,5.0375,5.0452,5.0837,5.1702,5.1741,5.1741,5.1741,5.1741,5.1741,5.1741,5.1741,5.1741,5.1741,5.161,5.1538,5.1538,5.1389,5.1342,5.1342,5.1342,5.1342,5.1304,5.096,5.0838,5.0715,0.0,0.0,0.0,0.0,4.9067,4.9173,4.9037,4.8816,4.8606,4.8606,4.8259,4.7871,4.797,4.7871,4.7671,4.7314,4.714,4.6961,4.6347,4.6176,4.6023,4.5537,4.5437,4.5323,4.5005,4.5011,4.5098,4.5098,4.5194,0.0,4.5307,4.5307,4.5307,4.5307,4.5307,4.5307,4.5307,4.5307,4.5319,4.5419,4.495,4.4336,4.3543,4.245,0.0,0.0,0.0,3.8005,3.7952,3.7516,0.0,0.0,0.0,0.0,0.0,3.8373,0.0,0.0,3.6322,3.6285,0.0,0.0,0.0,0.0,0.0,0.0,0.0,0.0,0.0,0.0,0.0,0.0,0.0,0.0,0.0,0.0,4.4969,4.6567,4.8163,4.8394,4.8355,4.8259,4.9029,4.9586,4.9663,5.0375,5.1164,5.1981,5.2038,5.2385,5.3164,5.3203,0.0,0.0,0.0,5.3131,5.308,5.308,5.308,5.308,5.2796,5.2647,5.2635,5.2332,5.2205,5.2205,5.2205,5.2205,5.2148,5.1424,5.114,5.1101,5.0711,5.0575,5.0544,5.023,5.0325,5.0514,5.0218,0.0,0.0,4.932,4.8598,4.7781,4.8078,4.7903,4.7663,4.7873,4.7877,4.7746,4.7346,4.7243,4.6987,4.597,4.5744,4.5519,4.4721,4.4717,4.4865,4.477,4.5,4.5203,4.5203,4.5246,4.5307,4.5307,4.5307,4.5307,4.5307,4.5307,4.5307,4.5307,4.5307,0.0,4.4064,4.2737,4.1865,4.1657,3.9634,3.8407,3.8319,3.8388,3.8791,3.9493,4.0287,4.0983,4.1648,4.2412,4.2851,4.2851,3.9122,3.8566,0.0,0.0,0.0,0.0,0.0,0.0,0.0,0.0,0.0,0.0,0.0,0.0,0.0,0.0,0.0,4.5791,4.7585,4.9009,5.0048,5.0212,4.9933,4.9221,4.9913,5.0702,5.1346,5.1558,5.2019,5.2876,5.2953,5.3029,5.3203,5.3203,5.307,5.2808,5.2808,5.266,5.2406,5.2387,5.2387,5.2387,5.2332,0.0,5.229,5.2234,5.2205,5.2205,5.2205,5.2205,5.2186,5.2035,5.1959,5.1822,5.0388,4.9808,4.9794,4.9673,4.9678,4.9733,4.9664,4.9565,4.9459,4.9459,4.9291,4.9122,4.9122,4.9079,0.0,4.8239,4.8037,4.7857,4.7089,4.6905,4.6834,4.6626,4.6573,4.6348,4.5537,4.5411,4.526,4.4597,4.4519,4.4578,4.4578,4.4976,4.5307,4.5307,4.5307,4.5307,4.5307,4.5307,4.5307,4.5307,4.5307,4.4953,4.4064,4.3721,4.3272,4.2584,4.2106,4.1533,4.0825,4.1475,4.1934,4.2087,4.2259,4.2422,4.2545,4.2717,4.3138,4.372,4.2298,4.1887,0.0,0.0,0.0,0.0,0.0,0.0,0.0,0.0,0.0,0.0,0.0,4.1184,4.2811,0.0,4.5731,4.7807,4.8856,4.9702,5.0577,5.0554,5.035,5.0077,5.0779,5.1471,5.1865,5.2146,5.2655,5.3518,5.3439,5.3537,5.3976,5.3996,5.3913,5.3767,5.3748,5.3665,5.3489,5.3489,5.3489,5.3507,5.3323,5.3245,5.3264,5.3088,5.3005,5.3005,5.3005,5.3005,5.2951,5.2505,5.2042,5.1559,5.0634,5.0275,5.0232,4.957,4.9416,4.9532,4.936,4.9378,4.9445,4.9445,4.9295,4.9174,4.9314,4.9237,4.9035,4.8768,4.8686,4.8562,4.7962,4.7802,4.766,4.7088,4.6945,4.6739,4.5923,4.5565,4.5278,4.4883,4.4584,4.4397,4.4397,4.4643,4.485,4.485,4.485,4.485,4.485,4.4976,4.5045,4.5045,4.5194,4.5125,4.4685,4.4255,4.3663,4.2851,4.2794,4.2603,4.2163,4.2565,4.2794,4.2794,4.3195,4.3395,4.3395,4.3845,4.4456,4.5229,4.4838,4.4647,0.0,0.0,0.0,0.0,0.0,0.0,0.0,3.9051,3.9729,4.1665,4.3168,4.4604,4.6074,4.6913,4.7932,4.9606,4.9894,5.0125,5.0818,5.067,5.0543,5.0814,5.1359,5.1809,5.2024,5.254,5.3219,5.4091,5.3912,5.4053,5.4754,5.4791,5.4776,5.47,5.47,5.467,5.4607,5.4607,5.4607,5.4607,5.433,5.4194,5.4194,5.3907,5.3774,5.3774,5.3755,5.3737,5.368,5.2936,5.2191,5.1522,5.1297,5.1209,5.1103,4.9933,4.9551,4.9551,4.9276,4.9181,4.919,4.919,4.8965,4.8746,4.9031,4.8917,4.8764,4.9031,4.9113,4.9048,4.8781,4.8693,4.8474,4.7536,4.7333,4.7113,4.6305,4.5839,4.5525,4.5358,4.4873,4.4456,4.4456,4.4325,4.4256,4.4369,4.4397,4.4397,4.4397,4.4585,4.4714,4.4714,4.4946,4.5129,4.5129,4.447,4.3825,4.3238,4.3181,4.3221,4.3291,4.3291,4.3291,4.3291,4.4083,4.4484,4.4484,4.5354,4.6118,4.6748,4.6748,4.6748,3.5135,3.5531,3.6093,3.8473,3.8025,3.8563,0.0,4.4193,4.3518,4.663,4.7412,4.7835,4.8798,4.9048,4.9663,5.1346,5.1615,5.1654,5.175,5.1532,5.1365,5.1403,5.1224,5.1496,5.2499,5.3101,5.377,5.4642,5.4689,5.4697,5.4791,5.4791,5.467,5.4382,5.4366,5.4212,5.3907,5.3907,5.3907,5.3907,5.387,5.3851,5.3851,5.3773,5.3695,5.3695,5.3598,5.3521,5.3521,5.3408,5.3316,5.3148,5.2427,5.2154,5.2028,5.1002,5.0188,4.9582,4.9561,4.9046,4.8421,4.8421,4.8402,4.8364,4.8402,4.8383,4.8364,4.8402,4.842,4.8402,4.8364,4.8363,4.8326,4.8196,4.8177,4.7957,4.7131,4.693,4.6691,4.5956,4.5201,4.4684,4.4684,4.4059,4.3793,4.4313,4.4397,4.4397,4.4397,4.4443,4.4438,4.4438,4.4465,4.4511,4.4511,4.4417,4.4416,4.4578,4.459,4.4715,4.501,4.501,4.501,4.501,4.5812,4.6233,4.6233,4.7101,4.7559,4.7654,4.7654,4.7654,3.7382,3.8651,3.9716,4.1216,4.1788,4.2867,4.6196,4.648,4.659,4.8461,4.926,4.9875,5.0702,5.0856,5.1191,5.2203,5.2372,5.2296,5.21,5.1435,5.104,5.119,5.1228,5.1707,5.293,5.35,5.395,5.4307,5.4229,5.4161,5.4161,5.4213,5.4142,5.3999,5.4018,5.3944,5.3794,5.3813,5.3774,5.3735,5.3735,5.3716,5.362,5.3598,5.3578,5.3578,5.3519,5.3459,5.338,5.338,5.3357,5.3277,5.2946,5.2817,5.2651,5.1343,5.0643,5.0349,5.0308,4.9738,4.9058,4.9058,4.871,4.8306,4.8306,4.8306,4.8306,4.8306,4.8306,4.8306,4.8306,4.8306,4.8306,4.8306,4.8306,4.8214,4.7865,4.7424,4.7003,4.6654,4.5957,4.5406,4.5406,4.5112,4.4814,4.4619,4.4186,4.3871,4.3871,4.4042,4.4236,4.4369,4.4397,4.4397,4.4397,4.4397,4.4438,4.4559,4.4998,4.5334,4.547,4.5924,4.6176,4.6176,4.6497,4.6777,4.6977,4.7338,4.7879,4.8563,4.8563,4.8812,3.8984,4.0804,4.2451,4.3242,4.4701,4.624,4.7336,4.8048,4.8702,4.9586,5.0269,5.0875,5.1471,5.168,5.1987,5.2607,5.2813,5.2848,5.2589,5.1631,5.1014,5.1189,5.1095,5.1542,5.2921,5.3583,5.3926,5.3944,5.3756,5.3656,5.3714,5.3735,5.3755,5.3716,5.3755,5.3755,5.3716,5.3716,5.3678,5.3656,5.3656,5.3598,5.3499,5.3461,5.342,5.3437,5.3437,5.3357,5.3256,5.3256,5.3233,5.3185,5.3185,5.3185,5.3059,5.1946,5.1399,5.1215,5.1153,5.06,4.9904,4.9665,4.9169,4.8618,4.8379,4.8306,4.8306,4.8306,4.8306,4.8306,4.8306,4.8306,4.8306,4.8306,4.8306,4.8306,4.8306,4.7828,4.7424,4.7424,4.6783,4.6232,4.6232,4.6049,4.57,4.5131,4.4544,4.3993,4.357,4.3716,4.3939,4.4129,4.4158,4.4158,4.4158,4.4364,4.4524,4.4612,4.5383,4.5847,4.5936,4.6498,4.6798,4.6798,4.7042,4.7272,4.7516,4.7743,4.8299,4.9163,4.9255,4.9604,3.9629,4.1235,4.3327,4.4089,4.5566,4.7298,4.8952,4.9336,4.9606,5.0481,5.0673,5.0712,5.0731,5.1168,5.1768,5.257,5.3131,5.348,5.3465,5.2548,5.1853,5.1783,5.0742,5.0676,5.2269,5.3195,5.3734,5.3794,5.3619,5.3559,5.3675,5.3714,5.3656,5.3501,5.3636,5.3656,5.3519,5.3519,5.3519,5.3519,5.3519,5.3499,5.3499,5.3359,5.3274,5.3206,5.3206,5.3206,5.3206,5.3206,5.3206,5.3185,5.3185,5.3185,5.3185,5.3151,5.2637,5.1979,5.1958,5.1444,5.0637,4.9867,4.9574,4.9408,4.8563,4.8306,4.8306,4.8306,4.8306,4.8306,4.8306,4.8306,4.8306,4.8306,4.8306,4.8306,4.8306,4.8288,4.8269,4.8269,4.7608,4.7058,4.7058,4.6434,4.5883,4.5865,4.5847,4.5259,4.3699,4.3515,4.3513,4.3513,4.3513,4.3513,4.3513,4.4248,4.4828,4.5159,4.5937,4.6494,4.6746,4.6798,4.6798,4.6798,4.7639,4.807,4.8085,4.8867,4.9258,4.9292,4.9636,4.9779,4.1477,4.3293,4.5115,4.6479,4.7702,4.8856,4.999,5.0269,5.0346,5.0635,5.025,5.0124,5.1053,5.0914,5.1142,5.2696,5.311,5.3327,5.3673,5.2934,5.2323,5.2196,5.1844,5.1786,5.2302,5.2519,5.2887,5.3444,5.34,5.338,5.3439,5.3519,5.3558,5.3499,5.3539,5.3558,5.3499,5.3499,5.3459,5.338,5.3316,5.3293,5.3293,5.3251,5.3209,5.3185,5.3185,5.3185,5.3185,5.3185,5.3185,5.3185,5.3185,5.3185,5.3185,5.3185,5.3041,5.2803,5.2803,5.227,5.1555,5.1281,5.0473,4.9555,4.9262,4.8765,4.8306,4.8306,4.8306,4.8306,4.8306,4.8306,4.8306,4.8306,4.8306,4.8306,4.8306,4.8306,4.8306,4.8306,4.8067,4.7901,4.7901,4.7682,4.7315,4.6764,4.625,4.57,4.5149,4.5094,4.5094,4.5094,4.5094,4.5094,4.5094,4.5333,4.5533,4.5657,4.6431,4.6891,4.6996,4.7495,4.7809,4.7809,4.8086,4.8339,4.8559,4.8837,4.908,4.9299,4.9627,4.9688,4.3393,4.522,4.6836,4.8221,4.9221,5.001,5.0577,5.0614,5.0438,5.016,4.958,4.9299,4.9895,4.9695,5.0036,5.1901,5.2375,5.2802,5.3683,5.3069,5.2493,5.2398,5.2138,5.2025,5.2262,5.2181,5.2453,5.3324,5.3297,5.3256,5.3297,5.338,5.3418,5.3378,5.3676,5.3842,5.382,5.4096,5.4075,5.3697,5.3356,5.3185,5.3185,5.3185,5.3185,5.3185,5.3185,5.3185,5.3185,5.3185,5.3185,5.3185,5.3185,5.3185,5.3185,5.3185,5.3185,5.3185,5.3185,5.2858,5.238,5.2087,5.1298,5.0363,4.9776,4.9225,4.8691,4.8398,4.8306,4.8306,4.8306,4.8306,4.8306,4.8306,4.8306,4.8306,4.8306,4.8306,4.8306,4.8306,4.8306,4.8306,4.8306,4.8306,4.8122,4.7608,4.7095,4.6544,4.5975,4.5902,4.5902,4.5902,4.5902,4.5902,4.5902,4.6159,4.6342,4.6342,4.7076,4.7516,4.7516,4.8031,4.8306,4.8306,4.8306,4.8402,4.8623,4.8623,4.8729,4.8949,4.9287,4.9483,4.5231,4.6904,4.8365,4.9212,5.0048,5.0673,5.0663,5.0372,4.9877,4.9079,4.8642,4.8143,4.7252,4.7565,4.8517,5.0175,5.0978,5.1955,5.3571,5.3011,5.2434,5.2453,5.171,5.1504,5.2261,5.2235,5.2528,5.3424,5.3314,5.323,5.3297,5.3279,5.3293,5.3261,5.4065,5.447,5.4454,5.5207,5.5207,5.4454,5.3665,5.3259,5.3259,5.3203,5.3185,5.3185,5.3185,5.3185,5.3185,5.3185,5.3185,5.3185,5.3185,5.3185,5.3185,5.3185,5.3185,5.3185,5.3185,5.3185,5.3057,5.2307,5.2013,5.1722,5.0198,4.9702,4.9482,4.8618,4.8379,4.8361,4.8324,4.8306,4.8306,4.8306,4.8306,4.8306,4.8306,4.8306,4.8306,4.8306,4.8306,4.8306,4.8306,4.8306,4.8306,4.8306,4.8306,4.7755,4.6214,4.6012,4.6012,4.6012,4.6012,4.6012,4.6012,4.6709,4.7168,4.7168,4.7865,4.8306,4.8306,4.8306,4.8306,4.8306,4.8306,4.8306,4.8306,4.8306,4.8306,4.8306,4.8641,4.9226,4.6577,4.8105,4.9163,4.9596,5.0007,5.0272,5.0081,4.9499,4.8777,4.7915,4.6726,4.5527,4.4435,4.5336,4.6716,4.8201,5.0023,5.1825,5.3493,5.3432,5.3167,5.3086,5.2862,5.2803,5.2959,5.2936,5.301,5.3272,5.3227,5.3206,5.3209,5.323,5.3484,5.4087,5.4311,5.4718,5.528,5.5482,5.5482,5.5262,5.4473,5.4087,5.4069,5.3482,5.3185,5.3185,5.3185,5.3185,5.3185,5.3185,5.3185,5.3185,5.3185,5.3185,5.3185,5.3185,5.3185,5.3185,5.3185,5.3185,5.3167,5.2968,5.2491,5.1903,5.1499,5.0967,5.0325,4.9499,4.928,4.9114,4.8471,4.8306,4.8306,4.8306,4.8306,4.8306,4.8306,4.8306,4.8306,4.8306,4.8306,4.8306,4.8306,4.8306,4.8306,4.8306,4.8306,4.8159,4.7737,4.77,4.77,4.77,4.77,4.77,4.77,4.7884,4.7975,4.7975,4.8196,4.8306,4.8306,4.8306,4.8306,4.8306,4.8306,4.8306,4.8306,4.8306,4.8306,4.8306,4.8641,4.9121,4.7726,4.8899,4.961,4.9751,4.9904,4.9791,4.889,4.8259,4.7313,4.5356,4.4171,4.3028,4.1654,4.302,4.4871,4.6397,4.8914,5.125,5.2898,5.3298,5.338,5.3318,5.3256,5.3251,5.3206,5.3185,5.3353,5.3702,5.3739,5.3739,5.3739,5.4069,5.4454,5.4913,5.5262,5.5831,5.6638,5.629,5.6124,5.6124,5.5299,5.473,5.4381,5.394,5.3537,5.3185,5.3185,5.3185,5.3185,5.3185,5.3185,5.3185,5.3185,5.3185,5.3185,5.3185,5.3185,5.3185,5.3185,5.3185,5.3185,5.3185,5.2894,5.2454,5.2105,5.1665,5.1077,4.9941,4.961,4.9408,4.8526,4.8306,4.8306,4.8306,4.8306,4.8306,4.8306,4.8306,4.8306,4.8306,4.8306,4.8306,4.8306,4.8306,4.8306,4.8306,4.8306,4.8306,4.8306,4.8306,4.8306,4.8306,4.8306,4.8306,4.8306,4.8306,4.8306,4.8306,4.8306,4.8306,4.8306,4.8306,4.8306,4.8306,4.8306,4.8306,4.8306,4.8306,4.8508,4.8894,4.9048,4.9675,4.8666,4.9442,4.9771,4.9707,4.9626,4.9162,4.7545,4.6742,4.5467,4.2399,4.14,4.0587,3.8934,4.0736,4.302,4.4676,4.7599,5.0287,5.21,5.2811,5.3187,5.3279,5.317,5.3137,5.3228,5.3163,5.3471,5.4257,5.4422,5.4507,5.4564,5.5207,5.5669,5.578,5.6547,5.7299,5.7997,5.7317,5.6969,5.695,5.6143,5.539,5.4711,5.4601,5.4124,5.3371,5.3371,5.3316,5.3185,5.3185,5.3185,5.3185,5.3185,5.3185,5.3185,5.3185,5.3185,5.3185,5.3185,5.3185,5.3185,5.3185,5.3185,5.3057,5.2362,5.216,5.1848,5.0345,4.9922,4.9721,4.8857,4.8636,4.8636,4.8636,4.8563,4.8471,4.8471,4.8379,4.8306,4.8306,4.8306,4.8343,4.8453,4.8471,4.8508,4.8618,4.8545,4.8471,4.8471,4.8379,4.8306,4.8306,4.8306,4.8306,4.8306,4.8306,4.8306,4.8306,4.8306,4.8306,4.8306,4.8306,4.8306,4.8306,4.8306,4.8306,4.8306,4.8416,4.8857,4.9592,4.9721,5.0565,4.9377,4.973,4.9693,4.9188,4.8709,4.8063,4.6837,4.4941,4.2868,4.0921,3.943,3.7988,3.6408,3.8706,4.1334,4.2891,4.5793,4.8864,5.1759,5.2191,5.2477,5.3136,5.2806,5.2794,5.3383,5.3038,5.3096,5.3841,5.453,5.5024,5.5365,5.5522,5.5886,5.6565,5.7373,5.785,5.7997,5.785,5.7795,5.7776,5.6987,5.6528,5.6363,5.5702,5.495,5.4197,5.4197,5.3812,5.3185,5.3185,5.3185,5.3185,5.3185,5.3185,5.3185,5.3185,5.3185,5.3185,5.3185,5.3185,5.3185,5.3185,5.3185,5.3167,5.3041,5.3004,5.2803,5.1848,5.1593,5.1389,5.0582,5.038,5.038,5.038,4.9848,4.9372,4.9372,4.8802,4.8306,4.8306,4.8306,4.8526,4.9262,4.9372,4.961,5.027,4.9793,4.9372,4.9372,4.8746,4.8306,4.8306,4.8306,4.8306,4.8306,4.8306,4.8306,4.8306,4.8306,4.8306,4.8306,4.8306,4.8306,4.8306,4.8306,4.8306,4.8306,4.9022,4.9427,4.9517,5.0251,5.1096,4.9244,4.9465,4.9265,4.8976,4.8077,4.6781,4.4886,4.2576,4.0096,3.7558,3.6073,3.5019,3.4278,3.6525,3.899,4.0566,4.3463,4.6631,4.9823,5.0516,5.1216,5.2605,5.2563,5.258,5.3041,5.2845,5.3191,5.4403,5.4813,5.5261,5.5731,5.6447,5.7024,5.7409,5.7795,5.7997,5.7997,5.7997,5.7997,5.7997,5.7611,5.7207,5.6804,5.64,5.5776,5.4987,5.4583,5.4179,5.3794,5.3369,5.3185,5.3185,5.3185,5.3185,5.3185,5.3185,5.3185,5.3185,5.3185,5.3185,5.3185,5.3185,5.3185,5.3185,5.3185,5.3185,5.3041,5.2215,5.1995,5.1811,5.1004,5.0802,5.0782,5.0723,5.0039,4.9504,4.9944,4.9417,4.8997,4.942,4.9551,4.9738,5.0141,5.0215,5.0362,5.0747,5.0472,5.0215,5.0215,4.9866,4.9279,4.8398,4.8306,4.8489,4.893,4.8967,4.915,4.9572,4.9205,4.8967,4.8967,4.8967,4.8967,4.8967,4.9389,4.9609,4.9609,5.0013,5.0417,5.0802,5.1224,5.1867,4.8746,4.9011,4.8872,4.8686,4.7423,4.5568,4.3021,4.0415,3.7683,3.4694,3.3297,3.2679,3.2876,3.4686,3.6771,3.8744,4.1558,4.4677,4.8071,4.9247,5.0437,5.2182,5.2436,5.2527,5.274,5.283,5.345,5.4849,5.5094,5.5402,5.5956,5.7152,5.7797,5.7797,5.7932,5.7997,5.7997,5.7997,5.7997,5.7997,5.7997,5.7666,5.706,5.706,5.662,5.5794,5.5005,5.4564,5.4344,5.3537,5.3185,5.3185,5.3185,5.3185,5.3185,5.3185,5.3185,5.3185,5.3185,5.3185,5.3185,5.3185,5.3185,5.3185,5.3185,5.3185,5.3057,5.2435,5.2252,5.2105,5.1481,5.1295,5.12,5.0895,5.0243,4.9852,5.0305,5.0026,4.9852,5.0474,5.0703,5.0798,5.0982,5.098,5.1014,5.1197,5.1069,5.098,5.1018,5.0853,5.0268,4.8985,4.8838,4.904,4.9555,4.9757,5.0123,5.0765,5.0196,4.9867,4.9867,4.9867,4.9867,4.9867,5.0472,5.0802,5.0802,5.0967,5.1371,5.1995,5.2179,5.2601,4.8103,4.8544,4.8723,4.7999,4.6605,4.4735,4.2106,3.9046,3.6209,3.4308,3.276,3.1954,3.2753,3.3685,3.5345,3.8412,4.0956,4.3894,4.7793,4.9682,5.1114,5.2254,5.255,5.2731,5.2958,5.3182,5.3666,5.4479,5.5059,5.5638,5.625,5.6832,5.7191,5.7191,5.7708,5.7997,5.7997,5.7997,5.7997,5.7997,5.7997,5.796,5.7886,5.7886,5.7446,5.6657,5.5831,5.5078,5.4344,5.3537,5.3185,5.3185,5.3185,5.3185,5.3185,5.3185,5.3185,5.3185,5.3185,5.3185,5.3185,5.3185,5.3185,5.3185,5.3185,5.3185,5.3167,5.3115,5.3096,5.3057,5.3004,5.2883,5.2596,5.17,5.1438,5.1201,5.0542,5.0446,5.0511,5.0584,5.0623,5.0861,5.1572,5.1618,5.177,5.2517,5.1988,5.1557,5.17,5.108,5.0609,5.0562,5.0582,5.0306,4.9665,5.027,5.0729,5.0802,5.0729,5.0692,5.0692,5.0692,5.0692,5.0692,5.0765,5.0802,5.0802,5.1518,5.1922,5.2013,5.2747,5.3133,4.7551,4.836,4.8723,4.7906,4.6071,4.3796,4.1258,3.7728,3.4505,3.2752,3.117,3.0498,3.1807,3.2348,3.3654,3.6939,3.8214,4.0178,4.4191,4.5881,4.7456,4.9444,5.0794,5.1798,5.2462,5.303,5.3718,5.4443,5.4728,5.4939,5.5194,5.6093,5.6607,5.6607,5.7166,5.7474,5.7474,5.7821,5.7997,5.7997,5.7997,5.7997,5.7997,5.7997,5.7556,5.6767,5.5941,5.5133,5.4344,5.3537,5.3185,5.3185,5.3185,5.3185,5.3185,5.3185,5.3185,5.3185,5.3185,5.3185,5.3185,5.3185,5.3185,5.3185,5.3185,5.3185,5.3185,5.3185,5.3185,5.3185,5.3103,5.2915,5.267,5.2298,5.1795,5.1456,5.1619,5.138,5.1267,5.1726,5.1879,5.2032,5.236,5.2353,5.2441,5.2769,5.2532,5.2331,5.2393,5.2188,5.1886,5.1451,5.1037,5.0875,5.1042,5.1334,5.1738,5.2215,5.1793,5.1518,5.1518,5.1518,5.1518,5.1518,5.2013,5.2252,5.2252,5.2582,5.2729,5.2729,5.3059,5.3185,4.6166,4.7369,4.7999,4.7181,4.5257,4.2894,4.0392,3.6796,3.3569,3.207,3.0533,2.9936,3.1568,3.1888,3.2926,3.5989,3.6818,3.8444,4.233,4.3942,4.5549,4.782,4.9483,5.0819,5.1765,5.3011,5.3942,5.4477,5.4512,5.4512,5.4512,5.5313,5.5858,5.6027,5.6581,5.692,5.7116,5.7522,5.7821,5.7997,5.7997,5.7997,5.7997,5.7997,5.7556,5.6767,5.5941,5.5133,5.4344,5.3537,5.3185,5.3185,5.3185,5.3185,5.3185,5.3185,5.3185,5.3185,5.3185,5.3185,5.3185,5.3185,5.3185,5.3185,5.3185,5.3185,5.3185,5.3185,5.3164,5.3103,5.2915,5.2743,5.2608,5.2563,5.2096,5.181,5.2371,5.2137,5.1972,5.2499,5.2676,5.2739,5.2739,5.2717,5.2712,5.2712,5.2712,5.2735,5.2739,5.2828,5.2674,5.2148,5.1663,5.1545,5.1977,5.2215,5.2601,5.3148,5.2674,5.2344,5.2344,5.2344,5.2344,5.2344,5.2913,5.3185,5.3185,5.3185,5.3185,5.3185,5.3185,5.3185,4.3725,4.5201,4.6327,4.5528,4.4013,4.2045,3.949,3.6371,3.3734,3.2792,3.136,3.0777,3.2385,3.2698,3.3508,3.5993,3.7687,3.992,4.3481,4.5361,4.6902,4.8322,4.9153,5.0016,5.1018,5.3166,5.4494,5.4512,5.4512,5.4512,5.4512,5.4512,5.479,5.5385,5.5999,5.6554,5.7073,5.7116,5.7407,5.7997,5.7997,5.7997,5.7997,5.7997,5.7556,5.6767,5.5941,5.5133,5.4344,5.3537,5.3185,5.3185,5.3185,5.3185,5.3185,5.3185,5.3185,5.3185,5.3185,5.3185,5.3185,5.3185,5.3185,5.3185,5.3185,5.3185,5.3185,5.3185,5.3103,5.2937,5.2658,5.259,5.2586,5.2503,5.248,5.248,5.2498,5.2559,5.259,5.259,5.259,5.259,5.259,5.2554,5.2498,5.2498,5.2498,5.2526,5.259,5.259,5.2635,5.2783,5.2787,5.2565,5.2029,5.2729,5.3185,5.3185,5.3185,5.3206,5.3206,5.3206,5.3206,5.3206,5.3185,5.3185,5.3185,5.3185,5.3185,5.3185,5.3185,5.3185,4.0466,4.2162,4.3378,4.1471,4.0507,3.9545,3.763,3.5041,3.297,3.2669,3.1342,3.0711,3.2346,3.264,3.3797,3.7397,3.807,3.933,4.2699,4.4436,4.5711,4.668,4.952,5.1926,5.3287,5.4098,5.4512,5.4512,5.4512,5.4512,5.4512,5.4512,5.4589,5.479,5.5373,5.5773,5.5925,5.6713,5.7191,5.7382,5.7797,5.7997,5.7997,5.7997,5.7262,5.5959,5.5702,5.4821,5.3573,5.3295,5.3185,5.3185,5.3185,5.3185,5.3185,5.3185,5.3185,5.3185,5.3185,5.3185,5.3185,5.3185,5.3185,5.3185,5.3185,5.3185,5.3185,5.3082,5.2893,5.2721,5.2613,5.2581,5.2526,5.2521,5.2498,5.2498,5.2498,5.2503,5.2531,5.2531,5.2531,5.2531,5.2531,5.2503,5.2498,5.2498,5.2498,5.2521,5.2526,5.2563,5.2631,5.2654,5.2761,5.278,5.2694,5.2935,5.3103,5.3185,5.3185,5.3185,5.3185,5.3185,5.3185,5.3185,5.3185,5.3185,5.3185,5.3185,5.3185,5.3185,5.3185,5.3185,3.7275,3.9128,4.0396,3.8865,3.8198,3.7554,3.6242,3.3984,3.2155,3.2155,3.1347,3.1054,3.2362,3.2839,3.4041,3.7074,3.7531,3.8617,4.1855,4.3544,4.5096,4.6847,4.9855,5.2257,5.3529,5.4167,5.4512,5.4512,5.4512,5.4512,5.4512,5.4512,5.4512,5.4512,5.4865,5.5164,5.5385,5.6093,5.6686,5.7116,5.7474,5.7774,5.7997,5.7997,5.7116,5.5614,5.5614,5.4693,0.0,5.3185,5.3185,5.3185,5.3185,5.3185,5.3185,5.3185,5.3185,5.3185,5.3185,5.3185,5.3185,5.3185,5.3164,5.3124,5.3124,5.3124,5.3103,5.2955,5.2765,5.259,5.2581,5.2531,5.2498,5.2498,5.2498,5.2498,5.2498,5.2498,5.2498,5.2498,5.2498,5.2498,5.2498,5.2498,5.2498,5.2498,5.2498,5.2498,5.2498,5.2531,5.2559,5.2559,5.2645,5.2735,5.285,5.2937,5.302,5.3039,5.3143,5.3164,5.306,5.3143,5.3185,5.3143,5.3185,5.3185,5.3185,5.3185,5.3185,5.3185,5.3185,5.3371,0.0,3.6025,3.7318,3.7207,3.6597,3.5841,3.5105,3.3046,0.0,3.1397,3.1397,3.1696,3.2674,3.3395,3.4365,3.596,3.6681,3.8151,4.1315,4.3051,4.5244,4.8642,5.0292,5.1511,5.2274,5.3667,5.4512,5.4512,5.4512,5.4512,5.4512,5.4512,5.4512,5.4512,5.4512,5.4759,5.5343,5.5373,5.5925,5.6971,5.7022,5.7333,5.7886,5.7886,5.7043,5.5558,5.5526,5.4668,5.3216,5.3222,5.3185,5.3185,5.3185,5.3185,5.3185,5.3185,5.3185,5.3185,5.3185,5.3185,5.3185,5.3185,5.3103,5.2999,5.2999,5.2977,5.2955,5.2828,5.2676,5.2586,5.2503,5.2498,5.2498,5.2498,5.2498,5.2498,5.2498,5.2498,5.2498,5.2498,5.2498,5.2498,5.2498,5.2498,5.2498,5.2498,5.2498,5.2498,5.2498,5.2498,5.2498,5.2498,5.2498,5.2526,5.2586,5.2828,5.2915,5.2806,5.3039,5.306,5.2828,5.306,5.3124,5.302,5.3143,5.3185,5.3185,5.3185,5.3185,5.3185,5.3259,5.3702,3.0295,0.0,3.3493,3.2274,3.2279,3.2524,0.0,3.1354,3.065,3.1268,3.1397,3.2241,3.4926,3.4823,3.5831,4.0473,4.0237,4.0591,4.3734,4.5664,4.7914,5.1045,5.1705,5.2463,5.3839,5.4305,5.4512,5.4512,5.4512,5.4512,5.4512,5.4512,5.4512,5.4512,5.4512,5.4557,5.4697,5.5164,5.5513,5.5801,5.6258,5.6572,5.6704,5.6704,5.6157,5.5205,5.4991,5.4342,5.3421,5.3255,5.3185,5.3185,5.3185,5.3185,5.3185,5.3185,5.3185,5.3185,5.3185,5.3185,5.3185,5.3082,5.302,5.2977,5.2872,5.2783,5.2698,5.2654,5.2581,5.2526,5.2498,5.2498,5.2498,5.2498,5.2498,5.2498,5.2498,5.2498,5.2498,5.2498,5.2498,5.2498,5.2498,5.2498,5.2498,5.2498,5.2498,5.2498,5.2498,5.2498,5.2498,5.2498,5.2498,5.2521,5.2526,5.2627,5.2721,5.2783,5.2868,5.2912,5.2955,5.302,5.3082,5.3164,5.3185,5.3185,5.3185,5.3185,5.3185,5.3203,5.383,5.4216,2.9005,3.0491,3.1935,3.1427,3.1347,3.1507,3.1861,3.076,2.9757,3.021,3.0889,3.2007,3.3966,3.496,3.6654,4.0081,4.0732,4.1962,4.5279,4.7165,4.9068,5.1412,5.1981,5.2684,5.3891,5.4305,5.4512,5.4512,5.4512,5.4512,5.4512,5.4512,5.4512,5.4512,5.4512,5.4512,5.4512,5.4803,5.5122,5.5385,5.5716,5.6027,5.6303,5.6303,5.5651,5.4545,5.441,5.3832,5.2982,5.288,5.2995,5.3185,5.3185,5.3185,5.3185,5.3185,5.3185,5.3185,5.3185,5.3185,5.3185,5.3042,5.2955,5.2872,5.2761,5.2649,5.2559,5.259,5.2536,5.2498,5.2498,5.2498,5.2498,5.2498,5.2498,5.2498,5.2498,5.2498,5.2498,5.2498,5.2498,5.2498,5.2498,5.2498,5.2498,5.2498,5.2498,5.2498,5.2498,5.2498,5.2498,5.2498,5.2498,5.2498,5.2498,5.2531,5.2599,5.2645,5.2757,5.2802,5.2757,5.2868,5.2977,5.3103,5.3164,5.3185,5.3185,5.3573,5.3757,5.3775,5.4583,5.5152,2.9299,3.054,3.1843,3.2173,3.1806,3.158,3.2265,3.0821,2.9409,2.9519,3.0687,3.1981,3.2929,3.5181,3.7363,3.8834,4.0831,4.3291,4.6485,4.8,4.9361,5.0925,5.174,5.2528,5.3322,5.408,5.4512,5.4512,5.4512,5.4512,5.4512,5.4512,5.4512,5.4512,5.4512,5.4512,5.4512,5.4512,5.4759,5.5254,5.5254,5.5531,5.6027,5.6027,5.5228,5.3815,5.3771,5.3279,5.2454,5.2415,5.2717,5.3185,5.3185,5.3185,5.3185,5.3185,5.3185,5.3185,5.3185,5.3164,5.3121,5.2977,5.285,5.2761,5.2631,5.2554,5.2503,5.2581,5.2554,5.2498,5.2498,5.2498,5.2498,5.2498,5.2498,5.2498,5.2498,5.2498,5.2498,5.2498,5.2498,5.2498,5.2498,5.2498,5.2498,5.2498,5.2498,5.2498,5.2498,5.2498,5.2498,5.2498,5.2498,5.2498,5.2498,5.2498,5.2498,5.2498,5.2645,5.269,5.2526,5.2712,5.285,5.2999,5.3103,5.324,5.339,5.4069,5.4454,5.4601,5.5409,5.6143,3.065,3.221,3.2963,3.1054,3.098,3.1433,3.1549,3.1305,3.1219,3.1904,3.2552,3.4045,3.7472,3.7931,3.9135,4.3254,4.4978,4.6408,4.8217,4.8654,4.9361,5.0925,5.174,5.2528,5.3322,5.408,5.4512,5.4512,5.4512,5.4512,5.4512,5.4512,5.4512,5.4512,5.4512,5.4512,5.4512,5.4512,5.4543,5.4652,5.4652,5.4683,5.479,5.479,5.4304,5.3454,5.3252,5.2953,5.263,5.2473,5.2717,5.3185,5.3185,5.3185,5.3185,5.3185,5.3185,5.3185,5.3082,5.2955,5.2846,5.2698,5.2654,5.2608,5.2531,5.2521,5.2498,5.2503,5.2521,5.2498,5.2498,5.2498,5.2498,5.2498,5.2498,5.2498,5.2498,5.2498,5.2498,5.2498,5.2498,5.2498,5.2498,5.2498,5.2498,5.2498,5.2498,5.2498,5.2498,5.2498,5.2498,5.2498,5.2498,5.2498,5.2498,5.2498,5.2498,5.2498,5.2544,5.2572,5.2586,5.2717,5.285,5.2999,5.302,5.3433,5.4216,5.4344,5.4748,5.5427,5.6235,5.6693,2.9898,3.1274,3.2379,3.1942,3.3084,3.4164,3.3533,3.3349,3.3409,3.3754,3.4381,3.5612,3.8052,3.9238,4.1158,4.5212,4.6948,4.8017,4.8689,4.9154,4.9717,5.0424,5.1166,5.1925,5.2684,5.346,5.408,5.4477,5.4512,5.4512,5.4512,5.4512,5.4512,5.4512,5.4512,5.4512,5.4512,5.4512,5.4512,5.4512,5.4512,5.4512,5.4494,5.4098,5.3494,5.2718,5.2206,5.2014,5.2101,5.201,5.2454,5.3185,5.3185,5.3185,5.3185,5.3124,5.3082,5.3082,5.2934,5.285,5.2783,5.2635,5.259,5.2586,5.2526,5.2498,5.2498,5.2498,5.2498,5.2498,5.2498,5.2498,5.2498,5.2498,5.2498,5.2498,5.2498,5.2498,5.2498,5.2498,5.2498,5.2498,5.2498,5.2498,5.2498,5.2498,5.2498,5.2498,5.2498,5.2498,5.2498,5.2498,5.2498,5.2498,5.2498,5.2498,5.2498,5.2498,5.2498,5.2503,5.2554,5.2649,5.2761,5.289,5.2959,5.3466,5.4399,5.484,5.5464,5.6271,5.7079,5.7446,2.9464,3.0742,3.2156,3.291,3.4558,3.5966,3.5917,3.5545,3.5403,3.6131,3.6749,3.7535,3.8762,4.0974,4.3562,4.6408,4.8103,4.9068,4.9068,4.9631,5.0011,5.0011,5.0666,5.1338,5.1877,5.2666,5.3356,5.3925,5.3977,5.4046,5.4236,5.4253,5.4322,5.4494,5.4512,5.4425,5.4253,5.4253,5.4253,5.4253,5.4253,5.4149,5.396,5.3391,5.2701,5.1895,5.1356,5.1217,5.1398,5.1398,5.1964,5.2806,5.2765,5.2743,5.2702,5.2635,5.2658,5.2698,5.2608,5.2649,5.2694,5.2627,5.2563,5.2581,5.2503,5.2498,5.2498,5.2498,5.2498,5.2498,5.2498,5.2498,5.2498,5.2498,5.2498,5.2498,5.2498,5.2498,5.2498,5.2498,5.2498,5.2498,5.2498,5.2498,5.2498,5.2498,5.2498,5.2498,5.2498,5.2498,5.2498,5.2498,5.2498,5.2498,5.2498,5.2498,5.2498,5.2498,5.2498,5.2498,5.2498,5.2536,5.2631,5.2761,5.3054,5.3697,5.4631,5.5482,5.629,5.7097,5.7703,5.7997,3.0815,3.2394,3.3506,3.2965,3.3188,3.4377,3.7539,3.7145,3.6914,3.9789,4.0193,4.0482,4.1988,4.4441,4.6537,4.7476,4.8924,4.9924,4.9924,4.9959,5.0011,5.0011,5.0666,5.1132,5.1183,5.1843,5.2291,5.2343,5.236,5.2701,5.3442,5.3477,5.3787,5.4494,5.4512,5.4184,5.3494,5.3477,5.3477,5.3477,5.3477,5.3097,5.2343,5.2291,5.189,5.1183,5.1132,5.0997,5.0857,5.0857,5.1184,5.1701,5.1504,5.1361,5.1284,5.1386,5.1622,5.1879,5.1873,5.2168,5.2521,5.2521,5.2521,5.2521,5.2498,5.2498,5.2498,5.2498,5.2498,5.2498,5.2498,5.2498,5.2498,5.2498,5.2498,5.2498,5.2498,5.2498,5.2498,5.2498,5.2498,5.2498,5.2498,5.2498,5.2498,5.2498,5.2498,5.2498,5.2498,5.2498,5.2498,5.2498,5.2498,5.2498,5.2498,5.2498,5.2498,5.2498,5.2498,5.2498,5.2498,5.2498,5.2531,5.2613,5.3472,5.4409,5.5345,5.6263,5.7134,5.7923,5.796,5.7997,2.9551,3.1501,3.3388,3.3223,3.4323,3.5896,3.7496,3.8531,3.9853,4.2451,4.2502,4.2423,4.3471,4.5632,4.7389,4.7638,4.901,5.0011,5.0011,5.0011,5.0011,5.0011,5.0252,5.0614,5.108,5.1343,5.1718,5.2153,5.2188,5.2326,5.2649,5.2666,5.2787,5.3049,5.308,5.2959,5.2666,5.2666,5.2425,5.1994,5.2442,5.2481,5.217,5.1752,5.1373,5.108,5.0631,5.0563,5.0803,5.0803,5.1035,5.1396,5.1233,5.1138,5.1086,5.1051,5.1121,5.1268,5.1558,5.1793,5.2,5.2387,5.2498,5.2498,5.2498,5.2498,5.2498,5.2498,5.2498,5.2498,5.2498,5.2498,5.2498,5.2498,5.2498,5.2498,5.2498,5.2498,5.2498,5.2498,5.2498,5.2498,5.2498,5.2498,5.2498,5.2498,5.2498,5.2498,5.2498,5.2498,5.2498,5.2498,5.2498,5.2498,5.2498,5.2498,5.2498,5.2498,5.2498,5.2498,5.2498,5.2498,5.2785,5.3335,5.3781,5.4716,5.6164,5.6589,5.7207,5.7997,5.7997,5.7997,2.9344,3.1135,3.316,3.3635,3.5295,3.7103,3.8308,3.979,4.1619,4.4113,4.4234,4.4207,4.5182,4.6648,4.7758,4.8,4.9166,5.0011,5.0011,5.0011,5.0011,5.0011,5.0011,5.02,5.0718,5.0752,5.0976,5.1476,5.1528,5.1602,5.1856,5.1843,5.1946,5.2188,5.2188,5.2084,5.1843,5.1843,5.1464,5.0769,5.1269,5.1528,5.1511,5.0994,5.0752,5.0735,5.0159,5.0103,5.0446,5.0408,5.0477,5.0626,5.0616,5.0535,5.0435,5.0369,5.047,5.0661,5.1157,5.1432,5.1694,5.2298,5.2498,5.2498,5.2498,5.2498,5.2498,5.2498,5.2498,5.2498,5.2498,5.2498,5.2498,5.2498,5.2498,5.2498,5.2498,5.2498,5.2498,5.2498,5.2498,5.2498,5.2498,5.2498,5.2498,5.2498,5.2498,5.2498,5.2498,5.2498,5.2498,5.2498,5.2498,5.2498,5.2498,5.2498,5.2498,5.2498,5.2733,5.2752,5.2498,5.2498,5.2907,5.3738,5.4132,5.5048,5.6533,5.6946,5.7419,5.7997,5.7997,5.7997,3.0794,3.1733,3.3008,3.4196,3.5679,3.7557,4.0274,4.0929,4.1774,4.4777,4.5414,4.588,4.7396,4.7689,4.7948,4.8672,4.9493,5.0011,5.0011,5.0011,5.0011,5.0011,5.0011,5.0011,5.0011,5.0011,5.0011,5.0011,5.0011,5.0321,5.1063,5.1097,5.1412,5.2153,5.217,5.1808,5.1114,5.1097,5.0735,5.0011,5.0011,5.0011,5.0011,5.0011,5.0011,4.9982,4.9784,4.9708,4.9679,4.953,4.9381,4.9229,4.9428,4.9307,4.9001,4.9138,4.9496,4.9959,5.0507,5.1087,5.1694,5.2298,5.2498,5.2498,5.2498,5.2498,5.2498,5.2498,5.2498,5.2498,5.2498,5.2498,5.2498,5.2498,5.2498,5.2498,5.2498,5.2498,5.2498,5.2498,5.2498,5.2498,5.2498,5.2498,5.2498,5.2498,5.2498,5.2498,5.2498,5.2498,5.2498,5.2498,5.2498,5.2498,5.2498,5.2498,5.2498,5.2498,5.3277,5.3349,5.2534,5.2516,5.2896,5.3711,5.4573,5.5478,5.6421,5.7361,5.7881,5.7997,5.7997,5.7997,3.0102,3.1599,3.3407,3.4353,3.714,4.0049,4.1384,4.212,4.3086,4.4983,4.6259,4.6983,4.6958,4.7758,4.8534,4.8758,4.9493,5.0011,5.0011,5.0011,5.0011,5.0011,5.0011,5.0011,5.0011,5.0011,5.0011,5.0011,5.0011,5.0097,5.0321,5.0338,5.0442,5.0666,5.0666,5.0562,5.0338,5.0338,5.0235,5.0011,5.0011,5.0011,5.0011,5.0011,4.9935,4.9784,4.9725,4.9649,4.9547,4.935,4.926,4.9199,4.9155,4.9094,4.9001,4.9032,4.9138,4.9406,5.0387,5.0805,5.1139,5.2162,5.2498,5.2498,5.2498,5.2498,5.2498,5.2498,5.2498,5.2498,5.2498,5.2498,5.2498,5.2498,5.2498,5.2498,5.2498,5.2498,5.2498,5.2498,5.2498,5.2498,5.2498,5.2498,5.2498,5.2498,5.2498,5.2498,5.2498,5.2498,5.2498,5.2498,5.2498,5.2498,5.2498,5.3023,5.3331,5.3331,5.411,5.4182,5.3385,5.3892,5.4544,5.5287,5.5668,5.6267,5.7116,5.7569,5.7815,5.7862,5.795,5.7997,3.1265,3.2748,3.4439,3.5851,3.8547,4.1343,4.2975,4.3733,4.4423,4.5621,4.6362,4.6914,4.7407,4.7948,4.8551,4.9172,4.9683,5.0011,5.0011,5.0011,5.0011,5.0011,5.0011,5.0011,5.0011,5.0011,5.0011,5.0011,5.0011,5.0011,5.0011,5.0011,5.0011,5.0011,5.0011,5.0011,5.0011,5.0011,4.9964,4.9889,4.9889,4.986,4.9801,4.986,4.9813,4.9708,4.956,4.9411,4.9307,4.9185,4.9107,4.9107,4.9032,4.9001,4.9001,4.9001,4.9138,4.9496,5.0387,5.0858,5.1235,5.2186,5.2498,5.2498,5.2498,5.2498,5.2498,5.2498,5.2498,5.2498,5.2498,5.2498,5.2498,5.2498,5.2498,5.2498,5.2498,5.2498,5.2498,5.2498,5.2498,5.2498,5.2498,5.2498,5.2498,5.2498,5.2498,5.2498,5.2498,5.2498,5.2498,5.2498,5.2498,5.2625,5.2951,5.3422,5.3838,5.4164,5.4907,5.5124,5.4635,5.4798,5.5251,5.5975,5.6091,5.6539,5.7388,5.7559,5.7697,5.7792,5.7862,5.795,3.3301,3.4405,3.5649,3.7966,3.9848,4.1854,4.4725,4.5397,4.5604,4.6355,4.5966,4.6138,4.8206,4.8155,4.8269,4.9666,4.9959,5.0011,5.0011,5.0011,5.0011,5.0011,5.0011,5.0011,5.0011,5.0011,5.0011,5.0011,5.0011,5.0011,5.0011,5.0011,5.0011,5.0011,5.0011,5.0011,5.0011,5.0011,4.9889,4.9708,4.9708,4.9619,4.9518,4.9619,4.9679,4.9649,4.932,4.9107,4.9001,4.9001,4.9001,4.9001,4.9001,4.9001,4.9001,4.9001,4.9333,4.9902,5.048,5.1061,5.1644,5.2275,5.2498,5.2498,5.2498,5.2498,5.2498,5.2498,5.2498,5.2498,5.2498,5.2498,5.2498,5.2498,5.2498,5.2498,5.2498,5.2498,5.2498,5.2498,5.2498,5.2498,5.2498,5.2498,5.2498,5.2498,5.2498,5.2498,5.2498,5.2498,5.2498,5.2498,5.257,5.2915,5.3639,5.3838,5.4218,5.4961,5.5703,5.6102,5.6102,5.5468,5.5432,5.6084,5.6102,5.6538,5.7363,5.7388,5.7528,5.7768,5.7792,5.7862,3.2098,3.3353,3.495,3.7492,4.0429,4.3189,4.4983,4.5397,4.5449,4.5621,4.6017,4.651,4.6993,4.7879,4.8654,4.8999,4.9597,5.0011,5.0011,5.0011,5.0011,5.0011,5.0011,5.0011,5.0011,5.0011,5.0011,5.0011,5.0011,5.0011,5.0011,5.0011,5.0011,5.0011,5.0011,5.0011,5.0011,5.0011,4.9889,4.9708,4.9708,4.9619,4.9518,4.9547,4.9441,4.929,4.9124,4.9032,4.9001,4.9001,4.9001,4.9001,4.9001,4.9001,4.9001,4.9001,4.9094,4.9333,5.0359,5.0778,5.1061,5.2162,5.2498,5.2498,5.2498,5.2498,5.2498,5.2498,5.2498,5.2498,5.2498,5.2498,5.2498,5.2498,5.2498,5.2498,5.2498,5.2498,5.2498,5.2498,5.2498,5.2498,5.2498,5.2498,5.2498,5.2498,5.2498,5.2498,5.2498,5.2498,5.2498,5.2498,5.3078,5.3512,5.3693,5.4798,5.5577,5.574,5.65,5.6935,5.6935,5.679,5.6772,5.6935,5.6935,5.705,5.7239,5.7356,5.7461,5.7649,5.7745,5.7862,3.2384,3.3759,3.5483,3.9011,4.1572,4.35,4.4613,4.5139,4.5397,4.5397,4.5725,4.6121,4.6544,4.7234,4.7844,4.8206,4.8913,4.9441,4.9441,4.9769,5.0011,5.0011,5.0011,5.0011,5.0011,5.0011,5.0011,5.0011,5.0011,5.0011,5.0011,5.0011,5.0011,5.0011,5.0011,5.0011,5.0011,5.0011,4.9877,4.959,4.959,4.9471,4.9277,4.9337,4.926,4.9077,4.9032,4.9001,4.9001,4.9001,4.9001,4.9001,4.9001,4.9001,4.9001,4.9001,4.9199,4.9555,5.0397,5.0885,5.1286,5.2186,5.2498,5.2498,5.2498,5.2498,5.2434,5.2162,5.2275,5.2434,5.2138,5.2275,5.2498,5.2498,5.2498,5.2498,5.2498,5.2498,5.2498,5.2498,5.2498,5.2498,5.2498,5.2498,5.2498,5.2498,5.2498,5.2498,5.2498,5.2498,5.2643,5.3023,5.3458,5.4001,5.4744,5.554,5.6156,5.6536,5.6971,5.7188,5.7188,5.7188,5.7188,5.7188,5.7188,5.7188,5.7188,5.7264,5.7363,5.7504,5.7649,5.7768,3.2636,3.4408,3.6506,4.0739,4.2516,4.3396,4.4138,4.4872,4.5397,4.5397,4.5397,4.5604,4.6259,4.651,4.6803,4.7424,4.812,4.8603,4.8603,4.92,4.9666,4.9786,4.9804,4.9855,4.9993,5.0011,5.0011,5.0011,5.0011,5.0011,5.0011,5.0011,5.0011,5.0011,5.0011,5.0011,5.0011,5.0011,4.9848,4.9518,4.9458,4.9277,4.9001,4.9107,4.9107,4.9001,4.9001,4.9001,4.9001,4.9001,4.9001,4.9001,4.9001,4.9001,4.9001,4.9001,4.9303,4.9832,5.0359,5.0876,5.1398,5.2,5.2186,5.2186,5.2186,5.2186,5.2096,5.1576,5.1793,5.2096,5.1694,5.1975,5.2364,5.2475,5.2498,5.2498,5.2498,5.2498,5.2498,5.2498,5.2498,5.2498,5.2498,5.2498,5.2498,5.2498,5.2498,5.2498,5.2498,5.2625,5.2951,5.3639,5.3947,5.4617,5.5884,5.612,5.6482,5.7152,5.7188,5.7188,5.7188,5.7188,5.7188,5.7188,5.7188,5.7188,5.7188,5.7188,5.7282,5.7388,5.7553,5.7673,3.0936,3.3843,3.73,4.0308,4.2137,4.3396,4.4138,4.4872,4.5397,4.5397,4.5397,4.5432,4.5535,4.6148,4.6648,4.6734,4.7389,4.7844,4.7844,4.7931,4.8224,4.8879,4.8947,4.9223,4.9942,5.0011,5.0011,5.0011,5.0011,5.0011,5.0011,5.0011,5.0011,5.0011,5.0011,5.0011,5.0011,5.0011,4.9848,4.9488,4.9216,4.9032,4.9001,4.9032,4.9001,4.9001,4.9001,4.9001,4.9001,4.9001,4.9001,4.9001,4.9001,4.9001,4.9001,4.9001,4.9063,4.9199,4.9803,5.0074,5.0226,5.0751,5.0938,5.0938,5.0938,5.0938,5.0911,5.0832,5.0885,5.1034,5.15,5.1669,5.186,5.2387,5.2498,5.2498,5.2498,5.2498,5.2498,5.2498,5.2498,5.2498,5.2498,5.2498,5.2498,5.2498,5.2498,5.2498,5.2498,5.3114,5.3585,5.3693,5.4888,5.5776,5.5975,5.6627,5.708,5.7188,5.7188,5.7188,5.7188,5.7188,5.7188,5.7188,5.7188,5.7188,5.7188,5.7188,5.7282,5.7388,5.7553,5.7673,3.1573,3.4038,3.6593,3.9502,4.1084,4.2102,4.2844,4.3923,4.4785,4.4785,4.5104,4.5397,4.5397,4.569,4.5914,4.5914,4.6569,4.7096,4.7096,4.7431,4.781,4.8137,4.8534,4.893,4.9275,4.9752,5.0011,5.0011,5.0011,5.0011,5.0011,5.0011,5.0011,5.0011,5.0011,5.0011,5.0011,5.0011,4.9848,4.9488,4.9155,4.9001,4.9001,4.9001,4.9001,4.9001,4.9001,4.9001,4.9001,4.9001,4.9001,4.9001,4.9001,4.9001,4.9001,4.9001,4.9001,4.9094,4.9686,4.989,4.9988,5.0552,5.0697,5.0697,5.0697,5.0697,5.0643,5.0349,5.047,5.0778,5.1034,5.1355,5.1743,5.2364,5.2498,5.2498,5.2498,5.2498,5.2498,5.2498,5.2498,5.2498,5.2498,5.2498,5.2498,5.2498,5.2498,5.2498,5.2498,5.3204,5.3874,5.4327,5.5341,5.6174,5.6627,5.6989,5.7188,5.7188,5.7188,5.7188,5.7188,5.7188,5.7188,5.7188,5.7188,5.7188,5.7188,5.7188,5.7213,5.7289,5.7431,5.7577,3.1787,3.3615,3.5265,3.8231,3.9784,4.0843,4.1792,4.3051,4.4069,4.4259,4.4734,4.5173,4.5363,4.5397,4.5397,4.5397,4.5897,4.632,4.632,4.6759,4.7172,4.7396,4.7896,4.8379,4.8758,4.9327,4.9786,4.9993,5.0011,5.0011,5.0011,5.0011,5.0011,5.0011,5.0011,5.0011,5.0011,4.9906,4.9742,4.9488,4.9155,4.9001,4.9001,4.9001,4.9001,4.9001,4.9001,4.9001,4.9001,4.9001,4.9001,4.9001,4.9001,4.9001,4.9001,4.9001,4.9001,4.9063,4.9526,4.9674,4.9744,5.0153,5.0276,5.0276,5.0276,5.0276,5.0192,4.9786,4.9971,5.0342,5.0626,5.1034,5.1576,5.2322,5.2498,5.2498,5.2498,5.2498,5.2498,5.2498,5.2498,5.2498,5.2498,5.2498,5.2498,5.2498,5.2661,5.2824,5.2896,5.3711,5.4508,5.5124,5.5848,5.6536,5.7152,5.7188,5.7188,5.7188,5.7188,5.7188,5.7188,5.7188,5.7188,5.7188,5.7188,5.7188,5.7188,5.7188,5.7188,5.7188,5.7356,5.7437,3.0365,3.1854,3.3474,3.626,3.8369,4.0146,4.1671,4.2654,4.3465,4.4156,4.4328,4.4561,4.5259,4.5397,4.5397,4.5397,4.5432,4.5466,4.5466,4.55,4.5793,4.6579,4.67,4.7269,4.8654,4.8827,4.9172,4.9942,5.0011,5.0011,5.0011,5.0011,5.0011,5.0011,5.0011,5.0011,5.0011,4.9666,4.9518,4.9488,4.9155,4.9001,4.9001,4.9001,4.9001,4.9001,4.9001,4.9001,4.9001,4.9001,4.9001,4.9001,4.9001,4.9001,4.9001,4.9001,4.9001,4.9001,4.9032,4.9063,4.9063,4.9077,4.9077,4.9077,4.9077,4.9077,4.9077,4.9063,4.9063,4.9346,5.0425,5.0724,5.1043,5.2209,5.2498,5.2498,5.2498,5.2498,5.2498,5.2498,5.2498,5.2498,5.2498,5.2498,5.2498,5.2498,5.315,5.3729,5.3989,5.513,5.5884,5.5939,5.6663,5.7152,5.7188,5.7188,5.7188,5.7188,5.7188,5.7188,5.7188,5.7188,5.7188,5.7188,5.7188,5.7188,5.7188,5.7188,5.7188,5.7188,5.7356,5.7388,2.9434,3.0493,3.1664,3.4596,3.6429,3.7922,3.9457,4.1188,4.2516,4.2775,4.3241,4.3828,4.4544,4.5096,4.5397,4.5397,4.5397,4.5397,4.5397,4.5397,4.55,4.5793,4.6303,4.682,4.7355,4.781,4.8189,4.851,4.8947,4.9252,4.9252,4.9735,5.0011,5.0011,5.0011,5.0011,5.0011,4.9683,4.9518,4.9488,4.9155,4.9001,4.9001,4.9001,4.9001,4.9001,4.9001,4.9001,4.9001,4.9001,4.9001,4.9001,4.9001,4.9001,4.9001,4.9001,4.9001,4.9001,4.9001,4.9001,4.9001,4.9001,4.9001,4.9001,4.9001,4.9001,4.9001,4.9001,4.9001,4.9273,5.0397,5.0697,5.0991,5.2209,5.2498,5.2498,5.2498,5.2498,5.2498,5.2498,5.2498,5.2498,5.2498,5.2933,5.3277,5.3277,5.3947,5.4508,5.4599,5.5414,5.5993,5.5993,5.6717,5.7188,5.7188,5.7188,5.7188,5.7188,5.7188,5.7188,5.7188,5.7188,5.7188,5.7188,5.7188,5.7188,5.7188,5.7188,5.7188,5.7188,5.7257,5.7332,2.8512,2.9364,3.055,3.3829,3.4702,3.5525,3.8318,3.9773,4.0722,4.1481,4.2258,4.3034,4.3793,4.432,4.4837,4.5311,4.5397,4.5397,4.5397,4.5397,4.5397,4.5397,4.5862,4.632,4.6579,4.7044,4.7441,4.7672,4.8137,4.843,4.843,4.8959,4.9355,4.9597,4.9873,5.0011,5.0011,4.9683,4.9518,4.9488,4.9155,4.9001,4.9001,4.9001,4.9001,4.9001,4.9001,4.9001,4.9001,4.9001,4.9001,4.9001,4.9001,4.9001,4.9001,4.9001,4.9001,4.9001,4.9001,4.9001,4.9001,4.9001,4.9001,4.9001,4.9001,4.9001,4.9001,4.9001,4.9001,4.9273,5.0397,5.1008,5.1508,5.2298,5.2498,5.2498,5.2498,5.2498,5.2498,5.2498,5.2498,5.2498,5.2498,5.3168,5.3693,5.3693,5.4599,5.5269,5.5269,5.5921,5.6391,5.6391,5.688,5.7188,5.7188,5.7188,5.7188,5.7188,5.7188,5.7188,5.7188,5.7188,5.7188,5.7188,5.7188,5.7188,5.7188,5.7188,5.7188,5.7188,5.7188,5.7264,0.0,0.0,0.0,3.3823,3.3247,3.3128,3.8318,3.8405,3.8047,4.0359,4.1395,4.2137,4.3,4.3155,4.3655,4.5087,4.5345,4.538,4.5397,4.5397,4.5397,4.5397,4.5397,4.5707,4.6493,4.6562,4.6872,4.7569,4.7638,4.7655,4.7655,4.7717,4.8051,4.8775,4.9597,5.0011,5.0011,4.9683,4.9518,4.9488,4.9155,4.9001,4.9001,4.9001,4.9001,4.9001,4.9001,4.9001,4.9001,4.9001,4.9001,4.9001,4.9001,4.9001,4.9001,4.9001,4.9001,4.9001,4.9001,4.9001,4.9001,4.9001,4.9001,4.9001,4.9001,4.9001,4.9001,4.9001,4.9001,4.9273,5.0397,5.1601,5.2498,5.2498,5.2498,5.2498,5.2498,5.2498,5.2498,5.2498,5.2498,5.2498,5.2498,5.3186,5.3748,5.3748,5.5051,5.6029,5.6029,5.6717,5.7188,5.7188,5.7188,5.7188,5.7188,5.7188,5.7188,5.7188,5.7188,5.7188,5.7188,5.7188,5.7188,5.7188,5.7188,5.7188,5.7188,5.7188,5.7188,5.7188,5.7188,5.7282,2.7732,0.0,0.0,0.0,0.0,0.0,3.4197,3.4921,3.5839,3.8669,3.8979,3.9479,4.1895,4.2344,4.2672,4.3655,4.4276,4.4785,4.5311,4.5397,4.5397,4.5397,4.5397,4.5483,4.5707,4.5725,4.5811,4.6017,4.6569,4.6879,4.6879,4.7913,4.8586,4.8792,4.9597,5.0011,5.0011,4.9683,4.9518,4.9488,4.9155,4.9001,4.9001,4.9001,4.9001,4.9001,4.9001,4.9001,4.9001,4.9001,4.9001,4.9001,4.9001,4.9001,4.9001,4.9001,4.9001,4.9001,4.9001,4.9001,4.9001,4.9001,4.9001,4.9001,4.9001,4.9001,4.9001,4.9001,4.9001,4.9273,5.0397,5.1601,5.2498,5.2498,5.2498,5.2498,5.2498,5.2498,5.2498,5.2498,5.2498,5.2498,5.2498,5.3657,5.4581,5.4581,5.5884,5.6862,5.6862,5.7062,5.7188,5.7188,5.7188,5.7188,5.7188,5.7188,5.7188,5.7188,5.7188,5.7188,5.7188,5.7188,5.7188,5.7188,5.7188,5.7188,5.7188,5.7188,5.7188,5.7188,5.7188,5.7213,2.8207,2.8348,2.8988,3.0603,0.0,0.0,3.327,3.3571,3.4131,3.7051,3.7581,3.8134,4.0198,4.0819,4.1309,4.2102,4.3138,4.4104,4.4837,4.5207,4.5397,4.5397,4.5397,4.5397,4.5397,4.5397,4.5397,4.5397,4.5828,4.6086,4.6086,4.7224,4.7862,4.7862,4.8941,4.9355,4.9045,4.9416,4.9393,4.9026,4.877,4.8589,4.8545,4.8545,4.8545,4.8578,4.8883,4.9001,4.9001,4.9001,4.9001,4.9001,4.9001,4.9001,4.9001,4.9001,4.9001,4.9001,4.9001,4.9001,4.9001,4.9001,4.9001,4.9001,4.9001,4.9001,4.9001,4.9001,4.9346,4.9867,5.0535,5.1601,5.2498,5.2498,5.2498,5.2498,5.2498,5.2498,5.2498,5.2498,5.2498,5.2498,5.2498,5.3838,5.4907,5.4907,5.621,5.7188,5.7188,5.7188,5.7188,5.7188,5.7188,5.7188,5.7188,5.7188,5.7188,5.7188,5.7188,5.7188,5.7188,5.7188,5.7188,5.7188,5.7188,5.7188,5.7188,5.7188,5.7188,5.7188,5.7188,5.7188,2.9359,2.9409,0.0,3.2683,3.1314,0.0,3.3873,3.3364,3.2861,3.5319,3.6346,3.7089,3.8047,3.8819,3.9577,4.0394,4.1895,4.3258,4.4173,4.4941,4.5397,4.5397,4.5397,4.5397,4.5397,4.5397,4.5397,4.5397,4.5397,4.5397,4.5397,4.6155,4.6613,4.6613,4.7948,4.8344,4.7717,4.8856,4.9054,4.8258,4.8077,4.7916,4.78,4.78,4.7804,4.7922,4.8595,4.8934,4.9001,4.9001,4.9001,4.9001,4.9001,4.9001,4.9001,4.9001,4.9001,4.9001,4.9001,4.9001,4.9001,4.9001,4.9001,4.9001,4.9001,4.9001,4.9001,4.9001,4.9826,5.0697,5.0697,5.1601,5.2498,5.2498,5.2498,5.2498,5.2498,5.2498,5.2498,5.2498,5.2498,5.2498,5.2498,5.37,5.4725,5.4864,5.6088,5.7029,5.7188,5.7188,5.7188,5.7188,5.7188,5.7188,5.7188,5.7188,5.7188,5.7188,5.7188,5.7188,5.7188,5.7188,5.7188,5.7188,5.7188,5.7188,5.7188,5.7188,5.7188,5.7188,5.7188,5.7188,3.2823,3.2675,3.2575,3.2454,3.2786,0.0,3.1679,3.1669,3.2081,3.2844,3.265,3.3084,3.5431,3.6473,3.7232,3.8047,3.9963,4.205,4.4018,4.4941,4.5397,4.5397,4.5397,4.5397,4.5397,4.5397,4.5397,4.5397,4.5397,4.5397,4.5397,4.6155,4.6613,4.6613,4.7448,4.7844,4.7689,4.7842,4.7752,4.7438,4.7265,4.7136,4.7005,4.7005,4.7344,4.7889,4.8041,4.846,4.9001,4.9001,4.9001,4.9001,4.9001,4.9001,4.9001,4.9001,4.9001,4.9001,4.9001,4.9001,4.9001,4.9001,4.9001,4.9001,4.9001,4.9001,4.9001,4.9001,4.9826,5.0697,5.0697,5.1601,5.2498,5.2498,5.2498,5.2498,5.2498,5.2498,5.2498,5.2498,5.2498,5.2498,5.2498,5.2906,5.3584,5.4725,5.5281,5.5969,5.7065,5.7188,5.7188,5.7188,5.7188,5.7188,5.7188,5.7188,5.7188,5.7188,5.7188,5.7188,5.7188,5.7188,5.7188,5.7188,5.7188,5.7188,5.7188,5.7188,5.7188,5.7188,5.7188,5.7188,3.4414,3.4047,3.3991,3.4235,3.4328,0.0,0.0,3.2983,3.2891,3.4055,3.2913,3.2477,3.5018,3.5654,3.599,3.6766,3.9152,4.117,4.1888,4.332,4.444,4.482,4.4854,4.501,4.5363,4.5397,4.5397,4.5397,4.5397,4.5397,4.5397,4.5776,4.5983,4.5983,4.6769,4.6975,4.6552,4.7255,4.7288,4.6641,4.6567,4.6442,4.6244,4.6244,4.6447,4.6824,4.7567,4.8122,4.8494,4.8849,4.9001,4.9001,4.9001,4.9001,4.9001,4.9001,4.9001,4.9001,4.9001,4.9001,4.9001,4.9001,4.9001,4.9001,4.9001,4.9001,4.9001,4.9001,4.9627,5.0293,5.0293,5.0947,5.1676,5.2,5.2048,5.2138,5.2452,5.2498,5.2498,5.2498,5.2498,5.2498,5.2498,5.243,5.2943,5.464,5.5079,5.5685,5.7029,5.7188,5.7188,5.7188,5.7188,5.7188,5.7188,5.7188,5.7188,5.7188,5.7188,5.7188,5.7188,5.7188,5.7188,5.7188,5.7188,5.7188,5.7188,5.7188,5.7188,5.7188,5.7188,5.7188,3.5569,3.5263,3.5555,3.612,3.5907,3.561,0.0,0.0,0.0,3.5549,3.4001,3.2984,3.4988,3.5029,3.499,3.5749,3.8198,3.9756,3.8939,4.0722,4.2482,4.3517,4.3914,4.4328,4.4923,4.4828,4.4932,4.5363,4.4983,4.4932,4.538,4.5397,4.5397,4.5397,4.6017,4.6052,4.5414,4.6621,4.6794,4.59,4.5883,4.5744,4.55,4.55,4.5568,4.5771,4.7124,4.7753,4.7939,4.8714,4.9001,4.9001,4.9001,4.9001,4.9001,4.9001,4.9001,4.9001,4.9001,4.9001,4.9001,4.9001,4.9001,4.9001,4.9001,4.9001,4.9001,4.9001,4.9436,4.989,4.989,5.0293,5.0832,5.1329,5.1432,5.1551,5.2048,5.2144,5.2144,5.2144,5.2072,5.2066,5.2298,5.1948,5.2289,5.4197,5.4673,5.532,5.6769,5.7098,5.7188,5.7188,5.7188,5.7188,5.7188,5.7188,5.7188,5.7188,5.7188,5.7188,5.7188,5.7188,5.7188,5.7188,5.7188,5.7188,5.7188,5.7188,5.7188,5.7188,5.7188,5.7188,3.7399,3.7934,3.8281,3.6278,3.7551,3.8386,3.4897,0.0,3.5531,3.4065,0.0,3.2952,3.3635,0.0,0.0,3.4234,3.5732,3.6559,3.5818,3.7133,3.8927,4.105,4.2482,4.3362,4.3448,4.2785,4.3216,4.5242,4.3526,4.3268,4.5294,4.5397,4.5397,4.5397,4.5483,4.5483,4.5397,4.5569,4.5471,4.5115,4.5125,4.4977,4.4733,4.4733,4.5077,4.5754,4.6566,4.731,4.7939,4.8714,4.9001,4.9001,4.9001,4.9001,4.9001,4.9001,4.9001,4.9001,4.9001,4.9001,4.9001,4.9001,4.9001,4.9001,4.9001,4.9001,4.9001,4.9001,4.9436,4.989,4.989,5.0293,5.0724,5.0778,5.0805,5.0832,5.0885,5.0911,5.0911,5.0911,5.0515,5.0505,5.1525,5.1228,5.1343,5.2814,5.322,5.4019,5.5887,5.6754,5.7188,5.7188,5.7188,5.7188,5.7188,5.7188,5.7188,5.7188,5.7188,5.7188,5.7188,5.7188,5.7188,5.7188,5.7188,5.7188,5.7188,5.7188,5.7188,5.7188,5.7188,5.7188,3.7702,3.8168,3.8564,3.7162,3.7644,3.807,3.6389,3.5986,3.6003,3.61,0.0,0.0,0.0,0.0,0.0,0.0,3.4973,3.5232,3.4024,3.518,3.6857,3.872,3.9497,4.0411,4.174,4.1567,4.2137,4.3975,4.2785,4.2802,4.4665,4.5156,4.5397,4.5397,4.5397,4.5397,4.5397,4.5397,4.53,4.5113,4.5032,4.4913,4.4709,4.4626,4.4784,4.5094,4.5838,4.6346,4.6718,4.7885,4.8122,4.78,4.8663,4.9001,4.9001,4.9001,4.9001,4.9001,4.9001,4.9001,4.9001,4.9001,4.9001,4.9001,4.9001,4.9001,4.9001,4.9001,4.9168,4.9394,4.9394,4.9538,4.9797,5.0153,5.0237,5.0304,5.0643,5.0697,5.0697,5.0697,5.0525,5.0432,5.0587,5.0113,5.0413,5.2473,5.2564,5.3113,5.511,5.5667,5.6029,5.6446,5.65,5.6681,5.7152,5.7188,5.7188,5.7188,5.7188,5.7188,5.7188,5.7188,5.7188,5.7188,5.7188,5.7188,5.7188,5.7188,5.7188,5.7188,5.7188,5.7188,3.7754,3.8291,3.8723,3.7182,3.713,3.7398,3.7024,3.6373,3.6251,3.7642,3.6755,0.0,0.0,0.0,3.4122,3.4103,0.0,3.4352,3.2817,3.3559,3.4749,3.6077,3.6805,3.7909,3.979,3.96,4.0239,4.2413,4.1447,4.1809,4.4173,4.4803,4.5173,4.5397,4.5397,4.5397,4.5397,4.5397,4.5327,4.5203,4.5059,4.494,4.482,4.4654,4.4615,4.4649,4.5382,4.5703,4.5805,4.7073,4.7293,4.6921,4.8206,4.8714,4.8731,4.8934,4.9001,4.9001,4.9001,4.9001,4.9001,4.9001,4.9001,4.9001,4.9001,4.9001,4.9001,4.9001,4.9001,4.9001,4.9001,4.9001,4.9107,4.9555,4.9656,4.9774,5.0135,5.0248,5.0248,5.0248,5.0248,5.0107,4.9715,4.9424,4.9916,5.1936,5.2032,5.2546,5.4351,5.4762,5.5106,5.5631,5.5703,5.5921,5.6518,5.6754,5.6971,5.7188,5.7188,5.7188,5.7188,5.7188,5.7188,5.7188,5.7188,5.7188,5.7188,5.7188,5.7188,5.7188,5.7188,5.7188,3.7901,3.8885,3.9431,3.5634,3.6111,3.7113,3.5632,3.5793,3.6524,3.7363,3.8041,3.8159,3.7085,3.6252,3.5364,3.4276,3.413,0.0,0.0,3.1869,3.2179,3.2955,3.5007,3.6663,3.753,3.627,3.6943,4.0687,3.891,3.96,4.4069,4.4328,4.4647,4.538,4.5397,4.5397,4.5397,4.5397,4.5327,4.5203,4.5059,4.494,4.482,4.4654,4.4615,4.4649,4.5382,4.5703,4.5771,4.6515,4.6802,4.687,4.7648,4.7922,4.8007,4.8748,4.9001,4.9001,4.9001,4.9001,4.9001,4.9001,4.9001,4.9001,4.9001,4.9001,4.9001,4.9001,4.9001,4.9001,4.9001,4.9001,4.9001,4.9032,4.9032,4.9032,4.9063,4.9046,4.9046,4.9046,4.9046,4.9063,4.9032,4.9513,5.0074,5.0678,5.1419,5.2352,5.3592,5.4418,5.4907,5.4943,5.4943,5.4961,5.4979,5.5631,5.6355,5.7152,5.7188,5.7188,5.7188,5.7188,5.7188,5.7188,5.7188,5.7188,5.7188,5.7188,5.7188,5.7188,5.7188,5.7188,3.8353,3.9074,3.9393,3.7099,3.6615,3.6559,3.6053,3.5952,3.6195,3.6954,3.7906,3.8247,3.7119,3.6304,3.5416,3.4276,3.384,3.2838,0.0,2.9868,2.9817,3.0558,3.2662,3.4162,3.4421,3.4904,3.6167,3.8479,3.8392,3.9566,4.262,4.3759,4.4414,4.4647,4.5139,4.5397,4.5397,4.5397,4.5371,4.5344,4.5113,4.4995,4.4923,4.4709,4.4615,4.4615,4.484,4.4959,4.501,4.5771,4.5771,4.5529,4.7242,4.7614,4.7327,4.8562,4.9001,4.9001,4.9001,4.9001,4.9001,4.9001,4.9001,4.9001,4.9001,4.9001,4.9001,4.9001,4.9001,4.9001,4.9001,4.9001,4.9001,4.9001,4.9001,4.9001,4.9001,4.9001,4.9001,4.9001,4.9001,4.9001,4.9001,4.9168,4.9627,5.0562,5.0935,5.1528,5.2761,5.3132,5.3512,5.4055,5.411,5.4327,5.4852,5.5577,5.6337,5.7152,5.7188,5.7188,5.7188,5.7188,5.7188,5.7188,5.7188,5.7188,5.7188,5.7188,5.7188,5.7188,5.7188,5.7188,3.906,3.9543,3.9698,3.7944,3.7323,3.6973,3.6422,3.6356,3.6541,3.703,3.7807,3.8229,3.7615,3.6556,3.5504,3.4622,3.3788,3.2351,0.0,2.9435,2.9416,2.9489,3.1058,3.2317,3.2852,3.3317,3.4559,3.6908,3.7288,3.8634,4.1464,4.3069,4.4035,4.4294,4.5027,4.5397,4.5397,4.5397,4.5397,4.5397,4.513,4.5005,4.4978,4.4737,4.4615,4.4615,4.4615,4.4615,4.4649,4.5111,4.501,4.4801,4.6752,4.7225,4.6972,4.846,4.9001,4.9001,4.9001,4.9001,4.9001,4.9001,4.9001,4.9001,4.9001,4.9001,4.9001,4.9001,4.9001,4.9001,4.9001,4.9001,4.9001,4.9001,4.9001,4.9001,4.9001,4.9001,4.9001,4.9001,4.9001,4.9001,4.9001,4.9001,4.9406,5.0535,5.0697,5.1139,5.2345,5.2498,5.2697,5.3222,5.3277,5.3711,5.4816,5.5341,5.6066,5.7134,5.7188,5.7188,5.7188,5.7188,5.7188,5.7188,5.7188,5.7188,5.7188,5.7188,5.7188,5.7188,5.7188,5.7188]}]]